[[{"header":{"parameterUnit":"m.s-1","parameterCategory":1,"la1":30.6,"la2":28.766,"lo1":-90.7593,"lo2":-88.6598,"dy":0.0162,"dx":0.0183,"nx":116,"ny":114,"refTime":"2024-03-21T18:00:00:Z","depth":0,"parameterNumber":2,"parameterNumberName":"U-component_of_WINDS"},"data":[0.0,0.0,0.0,0.0,0.0,0.0,0.0,0.0,0.0,0.0,0.0,0.0,0.0,0.0,0.0,0.0,0.0,0.0,0.0,0.0,0.0,0.0,0.0,0.0,0.0,0.0,0.0,0.0,0.0,0.0,0.0,0.0,0.0,0.0,0.0,0.0,0.0,0.0,0.0,0.0,0.0,0.0,0.0,0.0,0.0,0.0,0.0,0.0,0.0,0.0,0.0,0.0,0.0,0.0,0.0,0.0,0.0,0.0,0.0,0.0,0.0,0.0,0.0,0.0,0.0,0.0,0.0,0.0,0.0,0.0,0.0,0.0,0.0,0.0,0.0,0.0,0.0,0.0,0.0,0.0,0.0,0.0,0.0,0.0,0.0,0.0,0.0,0.0,0.0,0.0,0.0,0.0,0.0,0.0,0.0,0.0,0.0,0.0,0.0,0.0,0.0,0.0,0.0,0.0,0.0,0.0,0.0,0.0,0.0,0.0,0.0,0.0,0.0,0.0,0.0,0.0,0.0,0.0,0.0,0.0,0.0,0.0,0.0,0.0,0.0,0.0,0.0,0.0,0.0,0.0,0.0,0.0,0.0,0.0,0.0,0.0,0.0,0.0,0.0,0.0,0.0,0.0,0.0,0.0,0.0,0.0,0.0,0.0,0.0,0.0,0.0,0.0,0.0,0.0,0.0,0.0,0.0,0.0,0.0,0.0,0.0,0.0,0.0,0.0,0.0,0.0,0.0,0.0,0.0,0.0,0.0,0.0,0.0,0.0,0.0,0.0,0.0,0.0,0.0,0.0,0.0,0.0,0.0,0.0,0.0,0.0,0.0,0.0,0.0,0.0,0.0,0.0,0.0,0.0,0.0,0.0,0.0,0.0,0.0,0.0,0.0,0.0,0.0,0.0,0.0,0.0,0.0,0.0,0.0,0.0,0.0,0.0,0.0,0.0,0.0,0.0,0.0,0.0,0.0,0.0,0.0,0.0,0.0,0.0,0.0,0.0,0.0,0.0,0.0,0.0,0.0,0.0,0.0,0.0,0.0,0.0,0.0,0.0,0.0,0.0,0.0,0.0,0.0,0.0,0.0,0.0,0.0,0.0,0.0,0.0,0.0,0.0,0.0,0.0,0.0,0.0,0.0,0.0,0.0,0.0,0.0,0.0,0.0,0.0,0.0,0.0,0.0,0.0,0.0,0.0,0.0,0.0,0.0,0.0,0.0,0.0,0.0,0.0,0.0,0.0,0.0,0.0,0.0,0.0,0.0,0.0,0.0,0.0,0.0,0.0,0.0,0.0,0.0,0.0,0.0,0.0,0.0,0.0,0.0,0.0,0.0,0.0,0.0,0.0,0.0,0.0,0.0,0.0,0.0,0.0,0.0,0.0,0.0,0.0,0.0,0.0,0.0,0.0,0.0,0.0,0.0,0.0,0.0,0.0,0.0,0.0,0.0,0.0,0.0,0.0,0.0,0.0,0.0,0.0,0.0,0.0,0.0,0.0,0.0,0.0,0.0,0.0,0.0,0.0,0.0,0.0,0.0,0.0,0.0,0.0,0.0,0.0,0.0,0.0,0.0,0.0,0.0,0.0,0.0,0.0,0.0,0.0,0.0,0.0,0.0,0.0,0.0,0.0,0.0,0.0,0.0,0.0,0.0,0.0,0.0,0.0,0.0,0.0,0.0,0.0,0.0,0.0,0.0,0.0,0.0,0.0,0.0,0.0,0.0,0.0,0.0,0.0,0.0,0.0,0.0,0.0,0.0,0.0,0.0,0.0,0.0,0.0,0.0,0.0,0.0,0.0,0.0,0.0,0.0,0.0,0.0,0.0,0.0,0.0,0.0,0.0,0.0,0.0,0.0,0.0,0.0,0.0,0.0,0.0,0.0,0.0,0.0,0.0,0.0,0.0,0.0,0.0,0.0,0.0,0.0,0.0,0.0,0.0,0.0,0.0,0.0,0.0,0.0,0.0,0.0,0.0,0.0,0.0,0.0,0.0,0.0,0.0,0.0,0.0,0.0,0.0,0.0,0.0,0.0,0.0,0.0,0.0,0.0,0.0,0.0,0.0,0.0,0.0,0.0,0.0,0.0,0.0,0.0,0.0,0.0,0.0,0.0,0.0,0.0,0.0,0.0,0.0,0.0,0.0,0.0,0.0,0.0,0.0,0.0,0.0,0.0,0.0,0.0,0.0,0.0,0.0,0.0,0.0,0.0,0.0,0.0,0.0,0.0,0.0,0.0,0.0,0.0,0.0,0.0,0.0,0.0,0.0,0.0,0.0,0.0,0.0,0.0,0.0,0.0,0.0,0.0,0.0,0.0,0.0,0.0,0.0,0.0,0.0,0.0,0.0,0.0,0.0,0.0,0.0,0.0,0.0,0.0,0.0,0.0,0.0,0.0,0.0,0.0,0.0,0.0,0.0,0.0,0.0,0.0,0.0,0.0,0.0,0.0,0.0,0.0,0.0,0.0,0.0,0.0,0.0,0.0,0.0,0.0,0.0,0.0,0.0,0.0,0.0,0.0,0.0,0.0,0.0,0.0,0.0,0.0,0.0,0.0,0.0,0.0,0.0,0.0,0.0,0.0,0.0,0.0,0.0,0.0,0.0,0.0,0.0,0.0,0.0,0.0,0.0,0.0,0.0,0.0,0.0,0.0,0.0,0.0,0.0,0.0,0.0,0.0,0.0,0.0,0.0,0.0,0.0,0.0,0.0,0.0,0.0,0.0,0.0,0.0,0.0,0.0,0.0,0.0,0.0,0.0,0.0,0.0,0.0,0.0,0.0,0.0,0.0,0.0,0.0,0.0,0.0,0.0,0.0,0.0,0.0,0.0,0.0,0.0,0.0,0.0,0.0,0.0,0.0,0.0,0.0,0.0,0.0,0.0,0.0,0.0,0.0,0.0,0.0,0.0,0.0,0.0,0.0,0.0,0.0,0.0,0.0,0.0,0.0,0.0,0.0,0.0,0.0,0.0,0.0,0.0,0.0,0.0,0.0,0.0,0.0,0.0,0.0,0.0,0.0,0.0,0.0,0.0,0.0,0.0,0.0,0.0,0.0,0.0,0.0,0.0,0.0,0.0,0.0,0.0,0.0,0.0,0.0,0.0,0.0,0.0,0.0,0.0,0.0,0.0,0.0,0.0,0.0,0.0,0.0,0.0,0.0,0.0,0.0,0.0,0.0,0.0,0.0,0.0,0.0,0.0,0.0,0.0,0.0,0.0,0.0,0.0,0.0,0.0,0.0,0.0,0.0,0.0,0.0,0.0,0.0,0.0,0.0,0.0,0.0,0.0,0.0,0.0,0.0,0.0,0.0,0.0,0.0,0.0,0.0,0.0,0.0,0.0,0.0,0.0,0.0,0.0,0.0,0.0,0.0,0.0,0.0,0.0,0.0,0.0,0.0,0.0,0.0,0.0,0.0,0.0,0.0,0.0,0.0,0.0,0.0,0.0,0.0,0.0,0.0,0.0,0.0,0.0,0.0,0.0,0.0,0.0,0.0,0.0,0.0,0.0,0.0,0.0,0.0,0.0,0.0,0.0,0.0,0.0,0.0,0.0,0.0,0.0,0.0,0.0,0.0,0.0,0.0,0.0,0.0,0.0,0.0,0.0,0.0,0.0,0.0,0.0,0.0,0.0,0.0,0.0,0.0,0.0,0.0,0.0,0.0,0.0,0.0,0.0,0.0,0.0,0.0,0.0,0.0,0.0,0.0,0.0,0.0,0.0,0.0,0.0,0.0,0.0,0.0,0.0,0.0,0.0,0.0,0.0,0.0,0.0,0.0,0.0,0.0,0.0,0.0,0.0,0.0,0.0,0.0,0.0,0.0,0.0,0.0,0.0,0.0,0.0,0.0,0.0,0.0,0.0,0.0,0.0,0.0,0.0,0.0,0.0,0.0,0.0,0.0,0.0,0.0,0.0,0.0,0.0,0.0,0.0,0.0,0.0,0.0,0.0,0.0,0.0,0.0,0.0,0.0,0.0,0.0,0.0,0.0,0.0,0.0,0.0,0.0,0.0,0.0,0.0,0.0,0.0,0.0,0.0,0.0,0.0,0.0,0.0,0.0,0.0,0.0,0.0,0.0,0.0,0.0,0.0,0.0,0.0,0.0,0.0,0.0,0.0,0.0,0.0,0.0,0.0,0.0,0.0,0.0,0.0,0.0,0.0,0.0,0.0,0.0,0.0,0.0,0.0,0.0,0.0,0.0,0.0,0.0,0.0,0.0,0.0,0.0,0.0,0.0,0.0,0.0,0.0,0.0,0.0,0.0,0.0,0.0,0.0,0.0,0.0,0.0,0.0,0.0,0.0,0.0,0.0,0.0,0.0,0.0,0.0,0.0,0.0,0.0,0.0,0.0,0.0,0.0,0.0,0.0,0.0,0.0,0.0,0.0,0.0,0.0,0.0,0.0,0.0,0.0,0.0,0.0,0.0,0.0,0.0,0.0,0.0,0.0,0.0,0.0,0.0,0.0,0.0,0.0,0.0,0.0,0.0,0.0,0.0,0.0,0.0,0.0,0.0,0.0,0.0,0.0,0.0,0.0,0.0,0.0,0.0,0.0,0.0,0.0,0.0,0.0,0.0,0.0,0.0,0.0,0.0,0.0,0.0,0.0,0.0,0.0,0.0,0.0,0.0,0.0,0.0,0.0,0.0,0.0,0.0,0.0,0.0,0.0,0.0,0.0,0.0,0.0,0.0,0.0,0.0,0.0,0.0,0.0,0.0,0.0,0.0,0.0,0.0,0.0,0.0,0.0,0.0,0.0,0.0,0.0,0.0,0.0,0.0,0.0,0.0,0.0,0.0,0.0,0.0,0.0,0.0,0.0,0.0,0.0,0.0,0.0,0.0,0.0,0.0,0.0,0.0,0.0,0.0,0.0,0.0,0.0,0.0,0.0,0.0,0.0,0.0,0.0,0.0,0.0,0.0,0.0,0.0,0.0,0.0,0.0,0.0,0.0,0.0,0.0,0.0,0.0,0.0,0.0,0.0,0.0,0.0,0.0,0.0,0.0,0.0,0.0,0.0,0.0,0.0,0.0,0.0,0.0,0.0,0.0,0.0,0.0,0.0,0.0,0.0,0.0,0.0,0.0,0.0,0.0,0.0,0.0,0.0,0.0,0.0,0.0,0.0,0.0,0.0,0.0,0.0,0.0,0.0,0.0,0.0,0.0,0.0,0.0,0.0,0.0,0.0,0.0,0.0,0.0,0.0,0.0,0.0,0.0,0.0,0.0,0.0,0.0,0.0,0.0,0.0,0.0,0.0,0.0,0.0,0.0,0.0,0.0,0.0,0.0,0.0,0.0,0.0,0.0,0.0,0.0,0.0,0.0,0.0,0.0,0.0,0.0,0.0,0.0,0.0,0.0,0.0,0.0,0.0,0.0,0.0,0.0,0.0,0.0,0.0,0.0,0.0,0.0,0.0,0.0,0.0,0.0,0.0,0.0,0.0,0.0,0.0,0.0,0.0,0.0,0.0,0.0,0.0,0.0,0.0,0.0,0.0,0.0,0.0,0.0,0.0,0.0,0.0,0.0,0.0,0.0,0.0,0.0,0.0,0.0,0.0,0.0,0.0,0.0,0.0,0.0,0.0,0.0,0.0,0.0,0.0,0.0,0.0,0.0,0.0,0.0,0.0,0.0,0.0,0.0,0.0,0.0,0.0,0.0,0.0,0.0,0.0,0.0,0.0,0.0,0.0,0.0,0.0,0.0,0.0,0.0,0.0,0.0,0.0,0.0,0.0,0.0,0.0,0.0,0.0,0.0,0.0,0.0,0.0,0.0,0.0,0.0,0.0,0.0,0.0,0.0,0.0,0.0,0.0,0.0,0.0,0.0,0.0,0.0,0.0,0.0,0.0,0.0,0.0,0.0,0.0,0.0,0.0,0.0,0.0,0.0,0.0,0.0,0.0,0.0,0.0,0.0,0.0,0.0,0.0,0.0,0.0,0.0,0.0,0.0,0.0,0.0,0.0,0.0,0.0,0.0,0.0,0.0,0.0,0.0,0.0,0.0,0.0,0.0,0.0,0.0,0.0,0.0,0.0,0.0,0.0,0.0,0.0,0.0,0.0,0.0,0.0,0.0,0.0,0.0,0.0,0.0,0.0,0.0,-2.2445,-2.3144,0.0,0.0,0.0,0.0,0.0,0.0,0.0,0.0,0.0,0.0,0.0,0.0,0.0,0.0,0.0,0.0,0.0,0.0,0.0,0.0,0.0,0.0,0.0,0.0,0.0,0.0,3.0148,3.017,3.039,3.06,3.0798,3.1086,3.1164,3.1137,3.1034,3.0599,3.0287,2.9973,2.9764,2.9237,2.8727,2.7727,2.6674,2.5778,0.0,0.0,0.0,0.0,0.0,0.0,0.0,0.0,0.0,0.0,0.0,0.0,0.0,0.0,0.0,0.0,0.0,0.0,0.0,0.0,0.0,0.0,0.0,0.0,0.0,0.0,0.0,0.0,0.0,0.0,0.0,0.0,0.0,0.0,0.0,0.0,0.0,0.0,0.0,0.0,0.0,0.0,0.0,0.0,0.0,0.0,0.0,0.0,0.0,0.0,0.0,0.0,0.0,0.0,0.0,0.0,0.0,0.0,0.0,0.0,0.0,0.0,0.0,0.0,0.0,0.0,0.0,0.0,0.0,0.0,-2.6084,-2.6358,0.0,0.0,0.0,0.0,0.0,0.0,0.0,0.0,0.0,0.0,0.0,0.0,0.0,0.0,0.0,0.0,0.0,0.0,0.0,0.0,0.0,0.0,0.0,3.0937,3.0668,3.0578,3.0489,3.0468,3.0691,3.0926,3.1225,3.1418,3.1331,3.1322,3.1219,3.0806,3.0495,3.0391,2.9869,2.9343,2.8727,2.8281,2.7381,2.6106,2.5718,0.0,0.0,0.0,0.0,0.0,0.0,0.0,0.0,0.0,0.0,0.0,0.0,0.0,0.0,0.0,0.0,0.0,0.0,0.0,0.0,0.0,0.0,0.0,0.0,0.0,0.0,0.0,0.0,0.0,0.0,0.0,0.0,0.0,0.0,0.0,0.0,0.0,0.0,0.0,0.0,0.0,0.0,0.0,0.0,0.0,0.0,0.0,0.0,0.0,0.0,0.0,0.0,0.0,0.0,0.0,0.0,0.0,0.0,0.0,0.0,0.0,0.0,0.0,-2.2983,-2.4674,-2.6336,-2.7866,-2.9514,-3.092,-2.9872,-2.9931,-3.0854,-3.2799,0.0,0.0,0.0,0.0,0.0,0.0,0.0,0.0,0.0,0.0,0.0,0.0,0.0,0.0,0.0,0.0,0.0,0.0,0.0,3.0409,3.1199,3.105,3.0871,3.0578,3.0813,3.1018,3.1235,3.1637,3.1915,3.1905,3.1891,3.1732,3.1219,3.1116,3.0909,3.0391,2.9869,2.9448,2.9026,2.8727,2.8242,2.7573,2.6467,2.577,2.5414,0.0,0.0,0.0,0.0,0.0,0.0,0.0,0.0,0.0,0.0,0.0,0.0,0.0,0.0,0.0,0.0,0.0,0.0,0.0,0.0,0.0,0.0,0.0,0.0,0.0,0.0,0.0,0.0,0.0,0.0,0.0,0.0,0.0,0.0,0.0,0.0,0.0,0.0,0.0,0.0,0.0,0.1292,-0.0737,0.0,0.0,0.0,0.0,0.0,0.0,0.0,0.0,0.0,0.0,0.0,0.0,0.0,-1.8103,-1.9396,-2.079,-2.2198,-2.3907,-2.5604,-2.7136,-2.8777,-3.0367,-3.2098,-3.3965,-3.5369,0.0,-3.3685,-3.4916,0.0,0.0,0.0,0.0,0.0,0.0,0.0,0.0,0.0,0.0,0.0,0.0,0.0,0.0,0.0,0.0,0.0,0.0,0.0,0.0,0.0,3.1229,3.0984,3.0871,3.0905,3.1132,3.1517,3.1922,3.2225,3.2544,3.2139,3.1913,3.1629,3.1322,3.0909,3.0391,2.9869,2.9554,2.9343,2.894,2.8514,2.8067,2.7233,2.6513,2.6045,2.5112,0.0,0.0,0.0,0.0,0.0,0.0,0.0,0.0,0.0,0.0,0.0,0.0,0.0,0.0,0.0,0.0,0.0,0.0,0.0,0.0,0.0,0.0,0.0,0.0,0.0,0.0,0.0,0.0,0.0,0.0,0.0,0.0,0.0,0.0,0.0,0.0,0.0,0.0,0.0,0.1149,-0.044,-0.1484,-0.314,-0.4527,0.0,0.0,0.0,0.0,0.0,0.0,0.0,0.0,0.0,-1.8012,-1.9427,-2.09,-2.2298,-2.3847,-2.5321,-2.689,-2.8724,-3.0552,-3.2209,-3.3751,-3.5392,-3.7113,-3.8566,-3.9081,-3.8996,-3.9213,-3.9905,-4.1057,0.0,0.0,0.0,0.0,-4.5623,-4.6243,0.0,0.0,0.0,0.0,0.0,0.0,0.0,0.0,0.0,0.0,0.0,0.0,3.1553,3.1318,3.1121,3.1149,3.1275,3.1504,3.1892,3.2202,3.2582,3.2869,3.2443,3.2117,3.2015,3.1636,3.1184,3.0663,3.0369,3.0113,2.9901,2.9387,2.9064,2.8741,2.8071,2.7413,2.6645,2.5703,2.5054,2.4585,0.0,0.0,0.0,0.0,0.0,0.0,0.0,0.0,0.0,0.0,0.0,0.0,0.0,0.0,0.0,0.0,0.0,0.0,0.0,0.0,0.0,0.0,0.0,0.0,0.0,0.0,0.0,0.0,0.0,0.0,0.0,0.0,0.0,0.0,0.0,0.0,0.0,-0.0146,-0.1638,-0.2549,-0.4537,-0.5969,0.0,0.0,0.0,0.0,0.0,0.0,-1.5872,-1.7463,-1.9095,-2.0475,-2.2053,-2.3756,-2.5281,-2.6854,-2.8544,-3.0217,-3.2049,-3.3873,-3.5539,-3.7161,-3.8754,-4.0329,-4.1433,-4.2859,-4.4134,-4.3117,-4.3368,-4.4362,-4.5011,-4.5666,-4.6334,-4.7186,-4.797,-4.8464,0.0,0.0,0.0,0.0,0.0,0.0,0.0,0.0,0.0,0.0,0.0,3.0494,3.1553,3.1496,3.1418,3.1642,3.1879,3.2202,3.242,3.2948,3.3147,3.2891,3.2667,3.2342,3.2015,3.1941,3.1761,3.1466,3.1611,3.1387,3.0819,3.051,3.0178,2.9846,2.9288,2.8271,2.6989,2.6318,2.5881,2.5516,2.4585,0.0,0.0,0.0,0.0,0.0,0.0,0.0,0.0,0.0,0.0,0.0,0.0,0.0,0.0,0.0,0.0,0.0,0.0,0.0,0.0,0.0,0.0,0.0,0.0,0.0,0.0,0.0,0.0,0.0,0.0,0.0,0.0,0.0,0.0,0.0,0.0,0.0,0.0,-0.4606,-0.5695,0.0,0.0,0.0,0.0,-1.2762,-1.4525,-1.6199,-1.8145,-1.9912,-2.1712,-2.3493,-2.5112,-2.6693,-2.8431,-3.004,-3.1825,-3.3595,-3.5279,-3.6805,-3.8501,-4.0136,-4.1895,-4.3788,-4.485,-4.631,-4.782,-4.5657,-4.5534,-4.6858,-4.7521,-4.8402,-4.9335,-4.9328,-4.9693,-5.029,0.0,0.0,0.0,0.0,0.0,0.0,0.0,0.0,2.9268,2.9989,3.0374,3.0855,3.1577,3.1472,3.1418,3.1666,3.1903,3.2225,3.2443,3.2994,3.3292,3.3192,3.2869,3.2724,3.2502,3.2463,3.2276,3.1955,3.1822,3.1579,3.1251,3.0701,3.048,3.0258,2.9458,2.8837,2.8328,2.729,2.6625,2.6238,2.5296,2.47,0.0,0.0,0.0,0.0,0.0,0.0,0.0,0.0,0.0,0.0,0.0,0.0,0.0,0.0,0.0,0.0,0.0,0.0,0.0,0.0,0.0,0.0,0.0,0.0,0.0,0.0,0.0,0.0,0.0,0.0,0.0,0.0,0.0,0.0,0.0,0.0,0.0,-0.5444,-0.6744,0.0,-0.9657,-1.1267,-1.2922,-1.4677,-1.6572,-1.8503,-2.0354,-2.2296,-2.4263,-2.5929,-2.7716,-2.9223,-3.0786,-3.2364,-3.3942,-3.5331,-3.7338,-3.9012,-4.0684,-4.246,-4.4207,-4.5946,-4.7283,-4.8724,-5.0181,-5.0348,-4.9977,-4.9456,-5.0194,-5.0927,-5.1741,-5.2436,-5.2707,-5.2471,0.0,0.0,0.0,0.0,0.0,0.0,0.0,2.8955,2.9484,3.0013,3.0543,3.1072,3.1601,3.1728,3.1793,3.1948,3.2277,3.2599,3.2718,3.3086,3.3292,3.3292,3.3151,3.3061,3.3011,3.3071,3.2879,3.2553,3.2505,3.2259,3.1948,3.137,3.1035,3.0922,3.0113,2.9792,2.9526,2.854,2.7715,2.6988,2.6175,2.5646,2.5284,0.0,0.0,0.0,0.0,0.0,0.0,0.0,0.0,0.0,0.0,0.0,0.0,0.0,0.0,0.0,0.0,0.0,0.0,0.0,0.0,0.0,0.0,0.0,0.0,0.0,0.0,0.0,0.0,0.0,0.0,0.0,0.0,0.0,0.0,-0.337,-0.53,-0.5987,-0.7648,-0.9181,-1.0745,-1.2579,-1.4452,-1.6253,-1.8247,-2.023,-2.2212,-2.4022,-2.5969,-2.788,-2.9673,-3.1335,-3.3066,-3.4801,-3.6375,-3.7896,-3.9758,-4.1595,-4.3236,-4.4997,-4.6751,-4.817,-4.9511,-5.0911,-5.2404,-5.3632,-5.3627,-5.2849,-5.2879,-5.3171,-5.378,-5.4594,-5.4691,-5.4446,0.0,0.0,0.0,0.0,0.0,0.0,2.8522,2.8979,2.9508,3.0037,3.0567,3.1096,3.1601,3.2178,3.2524,3.2489,3.3006,3.3328,3.3247,3.3292,3.3292,3.3315,3.3288,3.3347,3.3498,3.366,3.3704,3.3396,3.3514,3.3409,3.3203,3.2592,3.2133,3.1787,3.1441,3.0976,3.0353,2.9949,2.9089,2.7801,2.7441,2.6978,2.6264,0.0,0.0,0.0,0.0,0.0,0.0,0.0,0.0,0.0,0.0,0.0,0.0,0.0,0.0,0.0,0.0,0.0,0.0,0.0,0.0,0.0,0.0,0.0,0.0,0.0,0.0,0.0,0.0,0.0,0.0,0.0,0.0,0.0,-0.1543,-0.3743,-0.5525,-0.6387,-0.8067,-0.9946,-1.1861,-1.3809,-1.5624,-1.7636,-1.9677,-2.1484,-2.331,-2.5133,-2.7086,-2.9198,-3.084,-3.2949,-3.5416,-3.7188,-3.9096,-4.1152,-4.283,-4.4525,-4.6195,-4.7772,-4.9198,-5.0741,-5.1731,-5.2833,-5.4236,-5.5095,-5.6129,-5.6875,-5.5619,-5.5362,-5.5564,-5.5516,-5.5692,-5.6006,0.0,0.0,0.0,0.0,0.0,0.0,2.9027,2.9532,3.0062,3.0591,3.112,3.1504,3.1649,3.2178,3.2524,3.2489,3.3006,3.3328,3.3247,3.3292,3.343,3.3798,3.4102,3.4196,3.433,3.4274,3.4227,3.3892,3.3685,3.3409,3.3203,3.2592,3.2248,3.2133,3.1556,3.1208,3.0976,3.049,3.0025,2.9524,2.8233,2.7368,2.6996,0.0,0.0,0.0,0.0,0.0,0.0,0.0,0.0,0.0,0.0,0.0,0.0,0.0,0.0,0.0,0.0,0.0,0.0,0.0,0.0,0.0,0.0,0.0,0.0,0.0,0.0,0.0,0.0,0.0,0.0,0.0,0.1547,-0.0781,-0.2969,-0.4419,-0.5765,-0.7347,-0.925,-1.118,-1.3471,-1.547,-1.7449,-1.9696,-2.1747,-2.3729,-2.5403,-2.7429,-2.9424,-3.1167,-3.3227,-3.5375,-3.727,-3.9336,-4.1254,-4.3,-4.5012,-4.6855,-4.8366,-4.9899,-5.132,-5.2874,-5.381,-5.4891,-5.5942,-5.7223,-5.8143,-5.8491,-5.7961,-5.7627,-5.7625,-5.846,-5.8543,-5.8068,0.0,0.0,0.0,0.0,0.0,0.0,2.922,2.9749,3.0278,3.0807,3.1336,3.1745,3.1985,3.2491,3.2859,3.2818,3.3335,3.3562,3.3269,3.3476,3.3889,3.4601,3.4668,3.4751,3.4952,3.4714,3.4423,3.4311,3.4054,3.3819,3.3591,3.3203,3.2936,3.2819,3.2331,3.1878,3.1602,3.1015,3.0663,3.0334,2.9276,2.8514,2.787,2.7176,2.6882,2.6572,2.5716,2.537,2.513,2.4513,0.0,0.0,0.0,0.0,0.0,0.0,0.0,0.0,0.0,0.0,0.0,0.0,0.0,0.0,0.0,0.0,0.0,0.0,0.0,0.0,0.0,0.0,0.0,0.0,0.157,-0.0953,-0.3527,-0.468,-0.6032,-0.8132,-1.0065,-1.2029,-1.4527,-1.6568,-1.856,-2.0597,-2.267,-2.472,-2.6707,-2.8892,-3.0898,-3.2875,-3.5079,-3.7015,-3.8978,-4.1,-4.2882,-4.4783,-4.6652,-4.849,-5.0146,-5.1584,-5.3045,-5.4594,-5.5747,-5.6823,-5.7786,-5.9192,-5.9825,-6.0048,0.0,0.0,0.0,0.0,-6.0076,-5.9497,0.0,0.0,0.0,0.0,0.0,0.0,2.9292,2.9845,3.0374,3.0903,3.136,3.1865,3.2442,3.2971,3.3313,3.3264,3.3781,3.3889,3.3361,3.3866,3.4578,3.5474,3.5029,3.4952,3.5423,3.4913,3.46,3.46,3.4511,3.4423,3.4423,3.424,3.3953,3.3575,3.3355,3.2774,3.2177,3.182,3.121,3.0567,3.0449,2.9849,2.889,2.8272,2.7803,2.7326,2.6685,2.6222,2.5961,2.5207,0.0,0.0,0.0,0.0,0.0,0.0,0.0,0.0,0.0,0.0,0.0,0.0,0.0,0.0,0.0,0.0,0.0,0.0,0.0,0.0,0.0,0.0,0.0,0.0,0.1591,-0.097,-0.3638,-0.4809,-0.6324,-0.8566,-1.0699,-1.269,-1.5042,-1.727,-1.9121,-2.1029,-2.3115,-2.5235,-2.7413,-2.9801,0.0,0.0,0.0,-3.8554,-4.0684,-4.25,-4.4433,-4.6492,-4.8211,-4.988,-5.1521,-5.3059,-5.4612,-5.6158,-5.7456,-5.8612,-5.945,-6.0637,-6.1257,-6.1375,-6.0675,-6.076,-6.1297,-6.1122,-6.0806,-6.0512,0.0,0.0,0.0,0.0,0.0,0.0,2.9762,3.0374,3.0903,3.1456,3.1601,3.1865,3.2442,3.2971,3.3313,3.3264,3.3781,3.4053,3.3843,3.4716,3.5313,3.552,3.5586,3.553,3.5423,3.5468,3.5307,3.5081,3.5237,3.5125,3.487,3.4623,3.431,3.3953,3.3714,3.3414,3.3214,3.2755,3.2137,3.1624,3.113,3.0405,2.9653,2.8965,2.8547,2.8418,2.7459,2.7086,2.6918,2.6282,2.5821,2.5449,2.477,2.4462,0.0,0.0,0.0,0.0,0.0,0.0,0.0,0.0,0.0,0.0,0.0,0.0,0.0,0.0,0.0,0.0,0.0,0.0,0.0,0.3974,0.1621,-0.0991,-0.3852,-0.5235,-0.6792,-0.8675,-1.1069,-1.3467,-1.5737,-1.781,-2.0085,-2.2532,-2.4846,-2.7068,-2.9071,-3.1495,-3.3584,-3.5521,-3.7634,-3.9793,-4.1934,-4.4057,-4.6176,-4.8401,-5.0426,0.0,-5.3784,-5.5246,-5.6752,-5.8117,-5.91,-6.0041,-6.0835,-6.1557,-6.2198,-6.2612,-6.1957,-6.2198,-6.2817,-6.1737,-6.14,-6.1397,0.0,0.0,0.0,0.0,0.0,0.0,3.0013,3.0543,3.1072,3.1601,3.1673,3.1985,3.2803,3.314,3.3409,3.3714,3.396,3.4148,3.4372,3.5106,3.5634,3.5887,3.5813,3.5733,3.5759,3.5668,3.5685,3.5583,3.5734,3.5715,3.5359,3.5233,3.5118,3.4755,3.437,3.4126,3.3922,3.3457,3.2954,3.2296,3.1701,3.113,3.0543,2.9653,2.9367,2.9194,2.8321,2.7943,2.7773,2.7032,2.6565,2.6303,2.5752,2.5474,2.5184,0.0,0.0,0.0,0.0,0.0,0.0,0.0,0.0,0.0,0.0,0.0,0.0,0.0,0.0,1.1682,1.0022,0.0,0.6036,0.4665,0.2136,-0.067,-0.373,-0.5673,-0.7284,-0.9189,-1.1535,-1.4116,-1.6553,-1.876,-2.1008,-2.3358,-2.5838,-2.8056,-3.0253,-3.252,-3.4827,-3.7064,-3.9263,-4.1545,-4.3687,-4.5697,-4.7571,-4.9472,-5.1339,-5.3195,-5.4695,-5.6182,-5.777,-5.928,-6.0346,-6.137,-6.2068,-6.2715,-6.3445,-6.39,-6.335,-6.3234,-6.3312,-6.2964,-6.2394,-6.1748,0.0,0.0,0.0,0.0,0.0,0.0,3.0158,3.0687,3.1192,3.1601,3.1745,3.2202,3.3188,3.338,3.3624,3.4091,3.4225,3.4429,3.4785,3.5336,3.5841,3.6254,3.6059,3.5957,3.6117,3.6003,3.5949,3.6107,3.6351,3.6209,3.5969,3.5987,3.5809,3.5418,3.517,3.4841,3.4513,3.4146,3.3658,3.2974,3.2495,3.2018,3.1484,3.0642,3.0233,2.9884,2.931,2.883,2.8523,2.7791,2.7319,2.7071,2.6637,2.6273,2.6059,2.5678,2.5227,0.0,0.0,0.0,0.0,0.0,0.0,0.0,0.0,1.8132,1.6767,1.5696,1.4032,1.2285,1.0762,0.8655,0.6752,0.5535,0.266,-0.0508,-0.3771,-0.5929,-0.7765,-0.974,-1.2208,-1.459,-1.7339,-1.9701,-2.1944,-2.413,-2.6631,-2.8881,-3.1113,-3.3558,-3.5913,-3.846,-4.0668,-4.2863,-4.5169,-4.6951,-4.8684,-5.0588,-5.2283,-5.3948,-5.5435,-5.704,-5.8612,-6.0012,-6.1654,-6.2783,-6.3388,-6.4097,-6.4597,-6.4873,-6.4666,-6.4168,-6.3807,-6.412,-6.3485,-6.2285,0.0,0.0,0.0,0.0,0.0,0.0,0.0,0.0,3.1601,3.1649,3.2106,3.2635,3.3212,3.3693,3.4007,3.4115,3.4676,3.4947,3.4785,3.568,3.6208,3.6277,3.6277,3.6177,3.6117,3.6451,3.6689,3.661,3.7068,3.7067,3.6724,3.6524,3.6178,3.5788,3.5541,3.5273,3.5211,3.4984,3.4472,3.4065,3.3781,3.2914,3.1979,3.1821,3.1191,3.0255,2.9865,2.9611,2.9319,2.8774,2.8297,2.7661,2.7089,2.6619,2.6342,2.5982,2.5727,2.5316,2.5035,2.4237,2.3247,2.2295,2.1806,2.1264,0.0,1.8798,1.7704,1.6174,1.4572,1.2747,1.0898,0.8921,0.7321,0.643,0.3029,-0.0514,-0.3812,-0.5955,-0.781,-0.9941,-1.2663,-1.5363,-1.789,-2.0008,-2.2358,-2.4924,-2.7256,-2.9866,-3.2308,-3.4766,-3.7052,-3.9519,-4.136,-4.3507,-4.6144,-4.789,-4.992,-5.2283,-5.3948,-5.5582,-5.704,-5.8612,-6.0012,-6.1166,-6.3282,-6.4364,-6.4852,-6.5469,-6.544,-6.4904,-6.5185,-6.5126,-6.4703,-6.4414,-6.4181,-6.3871,0.0,0.0,0.0,0.0,0.0,0.0,0.0,0.0,3.1673,3.1673,3.2154,3.2707,3.3236,3.3815,3.4195,3.4162,3.4722,3.5121,3.4808,3.5726,3.6277,3.6277,3.6553,3.6744,3.6793,3.7151,3.7317,3.7352,3.7407,3.7275,3.6932,3.681,3.6423,3.5911,3.5788,3.5541,3.5418,3.5294,3.4943,3.4636,3.4248,3.3518,3.2575,3.2197,3.1604,3.0859,3.0392,3.0157,0.0,2.9362,2.9071,2.87,2.8066,2.7659,2.7322,2.7004,2.6335,2.5692,2.5186,2.465,2.4054,2.3332,2.2511,2.17,2.0641,1.9476,1.8124,1.6783,1.5119,1.337,1.1348,0.9507,0.7733,0.6673,0.3403,-0.0173,-0.3853,-0.6013,-0.787,-0.9978,-1.3132,-1.6122,-1.8199,-2.0639,-2.2945,-2.5727,-2.8258,-3.0807,-3.3058,-3.5352,-3.7774,-4.0331,-4.2178,-4.4494,-4.6951,-4.8684,-5.0565,-5.2588,-5.4248,-5.5876,-5.7328,-5.8894,-6.0701,-6.262,-6.4325,-6.5202,-6.5689,-6.6252,-6.6126,-6.548,-6.5687,-6.5472,-6.5156,-6.4987,-6.4506,-6.3904,0.0,0.0,0.0,0.0,0.0,0.0,0.0,0.0,0.0,0.0,3.2274,3.2971,3.3645,3.4198,3.4433,3.4162,3.4926,3.5225,3.4912,3.5833,3.6277,3.6277,3.6759,3.704,3.7337,3.7466,3.7725,3.7878,3.7495,3.7275,3.7032,3.6911,3.6667,3.6178,3.5932,3.5788,3.5541,3.5418,3.5294,3.5025,3.4698,3.4187,3.3357,3.2674,3.2018,3.1386,3.0782,3.0509,3.0274,2.9804,2.9568,2.9331,2.8755,2.8277,2.79,2.7642,2.6864,2.6052,2.5549,2.5129,2.4669,2.4098,2.3213,2.2232,2.1377,2.0163,1.8923,1.7485,1.5937,1.4152,1.1956,1.0082,0.8127,0.6405,0.3432,-0.0,-0.3351,-0.5889,-0.7945,-1.0025,-1.3418,-1.6491,-1.8685,-2.1086,-2.37,-2.6435,-2.9156,-3.1465,-3.3601,-3.6047,-3.846,-4.1173,-4.301,-4.5311,-4.7752,-4.9494,-5.1208,-5.2916,-5.4546,-5.6168,-5.7641,-5.9595,-6.1519,-6.3675,-6.4967,-6.5727,-6.6103,-6.6914,-6.6816,-6.6118,-6.62,-6.5861,-6.5466,-6.528,-6.4768,-6.4135,0.0,0.0,0.0,0.0,0.0,0.0,0.0,0.0,0.0,0.0,3.2611,3.3645,3.4679,3.4799,3.4628,3.4433,3.5105,3.5512,3.5225,3.594,3.6277,3.6277,3.6759,3.704,3.7337,3.7466,3.7725,3.7878,3.7495,3.7374,3.7374,3.7032,3.6932,3.681,3.6178,3.5911,3.5911,3.5541,3.5418,3.5418,3.5397,3.4882,3.4207,3.3738,3.2933,3.1919,3.1152,3.0645,3.0392,3.0039,2.9686,2.9331,2.8755,2.8277,2.79,2.7642,2.7051,2.6553,2.6296,2.5872,2.5348,2.4289,2.3938,2.3413,2.1885,2.1018,2.0047,1.813,1.6653,1.4955,1.2582,1.046,0.8305,0.5778,0.3101,0.0349,-0.2468,-0.5388,-0.8031,-1.0311,-1.3548,-1.6657,-1.9242,-2.1859,-2.4441,-2.7365,-2.9515,-3.182,-3.4653,-3.6896,-3.9313,-4.1528,-4.3837,-4.5961,-4.823,-4.9786,-5.1647,-5.3822,-5.546,-5.6921,-5.8523,-6.1138,-6.2914,-6.4095,-6.5094,-6.5727,-6.6132,-6.7457,-6.7514,-6.6816,-6.6905,-6.6457,-6.578,-6.5134,-6.5077,-6.5173,0.0,0.0,0.0,0.0,0.0,0.0,0.0,0.0,0.0,0.0,0.0,0.0,0.0,0.0,0.0,0.0,3.5307,3.5718,3.5225,3.6047,3.6495,3.6277,3.7081,3.7609,3.7679,3.792,3.8201,3.8261,3.7637,3.7374,3.7374,3.7253,3.7154,3.6932,3.6423,3.6055,3.5911,3.5541,3.5418,3.5418,3.5418,3.5026,3.4613,3.4227,3.3335,3.2313,0.0,3.1231,3.0645,3.0392,3.0039,2.9686,2.9331,2.8799,2.8341,2.7723,2.7437,2.7243,2.6987,2.6362,2.5889,2.5426,2.4673,2.3687,2.278,2.1558,2.0114,1.8632,1.7007,1.5264,1.3089,1.0857,0.8399,0.5845,0.3116,0.035,-0.2492,-0.5414,-0.8035,-1.0316,-1.3929,-1.7042,-1.9436,-2.2228,-2.4978,-2.7546,-3.0052,-3.2543,-3.5177,-3.743,-3.9992,-4.2512,-4.4658,-4.693,-4.9022,-5.103,-5.2869,-5.4546,-5.7065,-5.8947,-6.048,-6.1951,-6.3178,-6.4095,-6.5251,-6.5882,-6.6132,-6.7487,-6.7545,-6.6847,-6.6936,-6.6488,-6.5842,-6.5165,-6.4998,-6.4906,0.0,0.0,0.0,0.0,0.0,0.0,0.0,0.0,0.0,0.0,0.0,0.0,0.0,0.0,0.0,0.0,0.0,3.5797,3.5409,3.6154,3.6603,3.6277,3.7081,3.7609,3.7793,3.8037,3.8201,3.838,3.7758,3.7374,3.7374,3.7374,3.7275,3.7032,3.6667,3.6423,3.6055,3.5665,3.5541,3.5418,3.5418,3.5252,3.4983,3.4574,3.3901,0.0,3.2515,3.2038,3.1407,3.0605,3.0252,3.003,2.9792,2.9349,2.8783,2.8398,2.8034,2.7734,2.7622,2.6988,2.6223,2.6177,2.5279,2.414,2.3365,2.2203,2.0717,1.9302,1.7474,1.5671,1.3486,1.1083,0.8618,0.6222,0.3297,0.0525,-0.1967,-0.5261,-0.8247,-1.0504,-1.4158,-1.7474,-1.9816,-2.277,-2.5525,-2.7727,-3.0588,-3.3249,-3.57,-3.8118,-4.0668,-4.3156,-4.5311,-4.7571,-4.9651,-5.167,-5.3648,-5.5876,-5.8186,-6.0065,-6.1302,-6.2487,-6.3413,-6.4224,-6.5504,-6.6007,-6.6257,-6.7487,-6.7697,-6.7329,-6.7028,-6.6642,-6.615,-6.5226,-6.4777,-6.4685,0.0,0.0,0.0,0.0,0.0,0.0,0.0,0.0,0.0,0.0,0.0,0.0,0.0,0.0,0.0,0.0,0.0,0.0,3.5615,3.626,3.6603,3.6277,3.6759,3.7265,3.777,3.7698,3.7865,3.838,3.7758,3.7374,3.7374,3.7374,3.7374,3.7374,3.7032,3.6667,3.6423,3.6055,3.5685,3.5418,3.5418,3.5418,3.5376,3.4962,3.4654,3.4207,3.3417,3.2894,3.2514,3.0955,3.0481,3.0445,3.026,2.9665,2.9297,2.9322,2.851,2.7817,2.8196,2.7455,2.6634,2.6268,2.5751,2.5049,2.3918,2.2965,2.1719,1.9828,1.8026,1.6015,1.4099,1.147,0.8959,0.7087,0.3644,0.0701,-0.1073,-0.4924,-0.8489,-1.0876,-1.4421,-1.7779,-2.0751,-2.3687,-2.6253,-2.8256,-3.1109,-3.3777,-3.6047,-3.8785,-4.1341,-4.3652,-4.5799,-4.8049,-5.0121,-5.1824,-5.4373,-5.7354,-5.8894,-6.0177,-6.1302,-6.2753,-6.3834,-6.4512,-6.5504,-6.6132,-6.6629,-6.7608,-6.797,-6.7938,-6.7212,-6.6919,-6.6735,-6.538,-6.4635,-6.4382,0.0,0.0,0.0,0.0,0.0,0.0,0.0,0.0,0.0,0.0,0.0,0.0,0.0,0.0,0.0,0.0,0.0,0.0,3.5615,3.6473,3.6796,3.6277,3.6759,3.7265,3.777,3.7698,3.7865,3.838,3.7758,3.7374,3.7374,3.7374,3.7374,3.7374,3.7032,3.6667,3.6423,3.6055,3.5685,3.5418,3.5418,3.5418,3.5418,3.5293,3.48,3.4248,3.376,3.3154,3.2613,3.1914,3.1411,3.0936,3.0387,2.9924,2.9687,2.969,2.9162,2.8608,2.8576,2.8067,2.7442,2.7244,2.6511,2.5538,2.4596,2.3239,2.1719,2.0288,1.8505,1.6501,1.4592,1.221,0.9719,0.7266,0.4016,0.1059,-0.1074,-0.4924,-0.8489,-1.0876,-1.4421,-1.7779,-2.0751,-2.3687,-2.6616,-2.9335,-3.1834,-3.4303,-3.6584,-3.9296,-4.1825,-4.4001,-4.6608,-4.8684,-5.0565,-5.3624,-5.634,-5.8212,-5.9482,-6.0591,-6.1681,-6.2886,-6.3834,-6.4512,-6.5504,-6.6132,-6.6506,-6.7365,-6.7729,-6.7818,-6.6717,-6.6314,-6.6361,-6.4819,-6.4218,-6.4075,0.0,0.0,0.0,0.0,0.0,0.0,0.0,0.0,0.0,0.0,0.0,0.0,0.0,0.0,0.0,0.0,0.0,0.0,0.0,3.6555,3.6904,3.6472,3.6662,3.7035,3.777,3.7494,3.7641,3.838,3.7758,3.7374,3.7374,3.7374,3.7374,3.7374,3.7154,3.6911,3.6423,3.6178,3.5809,0.0,0.0,3.5418,3.5418,3.5418,3.5149,3.4677,3.4431,3.3777,3.3208,3.2715,3.2104,3.1407,3.1064,3.0683,3.0206,3.016,2.9699,2.9209,2.8892,2.8494,2.8142,2.7676,2.6875,2.588,2.4864,2.3426,2.1905,2.0583,1.873,1.6686,1.4845,1.2612,0.9918,0.727,0.4199,0.1239,-0.1074,-0.4924,-0.8489,-1.1237,-1.46,-1.7957,-2.149,-2.4064,-2.6797,-3.0052,-3.2366,-3.489,-3.7665,-4.0243,-4.2778,-4.5122,-4.7385,-4.9671,-5.2107,-5.4843,-5.6921,-5.8523,-5.9761,-6.1002,-6.2086,-6.315,-6.4095,-6.474,-6.563,-6.6132,-6.6506,-6.7243,-6.7427,-6.7304,-6.6391,-6.59,-6.562,-6.4471,-6.3849,-6.3448,0.0,0.0,0.0,0.0,0.0,0.0,0.0,0.0,0.0,0.0,0.0,0.0,0.0,0.0,0.0,0.0,0.0,0.0,0.0,0.0,3.7036,3.6688,3.6495,3.6714,3.7655,3.7063,3.7327,3.8268,3.7714,3.7374,3.7374,3.7374,3.7374,3.7374,3.7374,3.7011,3.6423,3.6423,3.6055,3.5418,3.5418,3.5418,3.5418,0.0,3.5418,3.5294,3.5046,3.4423,3.3796,3.3165,3.2555,3.1948,3.1944,3.1525,3.0879,3.049,3.0232,2.9881,2.9143,2.8972,2.8773,2.7971,2.7197,2.6239,2.4904,2.3426,2.194,2.0769,1.8976,1.688,1.4959,1.2675,1.0109,0.727,0.4205,0.1419,-0.1074,-0.4924,-0.8668,-1.1598,-1.4785,-1.8338,-2.2238,-2.443,-2.6966,-3.0396,-3.2925,-3.5541,-3.8646,-4.1097,-4.3813,-4.6804,-4.8349,-5.0816,-5.3972,-5.546,-5.7065,-5.8664,-6.0039,-6.1275,-6.2381,-6.3573,-6.4354,-6.4996,-6.5756,-6.6132,-6.6506,-6.7243,-6.7095,-6.6432,-6.6005,-6.5456,-6.4904,-6.4122,-6.3394,-6.2814,0.0,0.0,0.0,0.0,0.0,0.0,0.0,0.0,0.0,0.0,3.5605,3.5812,0.0,0.0,0.0,0.0,0.0,0.0,0.0,0.0,0.0,3.6688,3.6495,3.6553,3.715,3.6883,3.7148,3.773,3.7537,3.7374,3.7374,3.7374,3.7374,3.7374,3.7374,3.7011,3.6423,3.6423,3.6055,3.5418,3.5418,3.5418,3.5418,3.5418,3.5418,0.0,3.5046,3.4423,3.3922,3.3796,3.3253,3.2581,3.2019,3.1653,3.1249,3.062,3.0382,3.0217,2.9851,2.9705,2.9542,2.8679,2.7939,2.6969,2.5492,2.4153,2.283,2.1223,1.9604,1.7517,1.5123,1.3263,1.0881,0.7454,0.4584,0.1788,-0.1076,-0.4924,-0.8668,-1.1598,-1.4785,-1.8338,-2.2238,-2.443,-2.7148,-3.0931,-3.3294,-3.5779,-3.8837,-4.1421,-4.4945,-4.9402,-5.0748,-5.2483,-5.4695,-5.6047,-5.7523,-5.8947,-6.0177,-6.1275,-6.2381,-6.3573,-6.4354,-6.4996,-6.5756,-6.6132,-6.6506,-6.6876,-6.6853,-6.6432,-6.5532,-6.4958,-6.4412,-6.3318,-6.2731,-6.2496,0.0,0.0,0.0,0.0,0.0,0.0,0.0,3.4641,3.5108,3.5638,3.6031,3.6098,3.5812,3.5716,3.5524,0.0,0.0,0.0,0.0,0.0,0.0,3.6928,3.6712,3.6616,3.7012,3.7088,3.7241,3.7596,0.0,3.7616,3.7374,3.7374,3.7374,3.7374,3.7374,3.7132,3.6667,3.6423,3.6178,3.5665,3.5418,3.5418,3.5418,3.5418,3.5418,0.0,3.5046,3.4673,3.4423,3.4047,3.367,3.3292,3.2422,3.191,3.1561,3.115,3.0946,3.0933,3.0497,3.0316,2.9928,2.925,2.8274,2.726,2.5786,2.4449,2.298,2.1688,1.9918,1.7836,1.5787,1.362,1.1251,0.7799,0.4767,0.1971,-0.1076,-0.4924,-0.8668,-1.1598,-1.4785,-1.8338,-2.2238,-2.4613,-2.7316,-3.1109,-3.3886,-3.6804,-3.9809,-4.3575,-4.7134,-5.044,-5.1753,-5.3195,-5.4992,-5.634,-5.7784,-5.9114,-6.0342,-6.1546,-6.2648,-6.3573,-6.4354,-6.4996,-6.5756,-6.6132,-6.6257,-6.6753,-6.6522,-6.5712,-6.5024,-6.4307,-6.3351,-6.2587,-6.2145,-6.1644,0.0,0.0,0.0,0.0,0.0,0.0,0.0,3.4984,3.5429,3.6065,3.6362,3.6358,3.6193,3.6098,3.5812,0.0,0.0,0.0,0.0,0.0,0.0,0.0,0.0,0.0,3.6874,0.0,0.0,3.7439,3.771,0.0,0.0,0.0,0.0,0.0,3.7374,3.7275,3.6932,3.6667,3.63,0.0,0.0,3.5418,3.5418,0.0,0.0,0.0,0.0,3.4922,3.4797,3.4298,3.4047,3.3796,3.2931,3.2294,3.2003,3.1629,3.163,3.1484,3.1185,3.0865,3.0442,2.9585,2.8563,2.755,2.6239,2.4757,2.3279,2.2152,2.0064,1.8154,1.6286,1.3964,1.1251,0.7972,0.4943,0.1973,-0.1079,-0.493,-0.8676,-1.1635,-1.4805,-1.8338,-2.2238,-2.4785,-2.7677,-3.1109,-3.4994,-3.8359,-4.1467,-4.5748,-4.9075,-5.0777,-5.1977,-5.3497,-5.5287,-5.675,-5.807,-5.9228,-6.0618,-6.1844,-6.2753,-6.3704,-6.4354,-6.4996,-6.563,-6.5882,-6.5882,-6.6506,-6.5978,-6.4785,-6.4575,-6.3654,-6.2498,-6.1998,-6.1642,-6.1019,0.0,0.0,0.0,0.0,0.0,0.0,0.0,3.5328,3.5737,3.6903,3.6777,3.6615,3.6615,3.6288,3.5908,0.0,0.0,0.0,0.0,0.0,0.0,0.0,0.0,0.0,0.0,0.0,0.0,3.6809,3.7532,0.0,0.0,0.0,0.0,0.0,0.0,3.7275,3.6932,3.6932,0.0,0.0,0.0,0.0,0.0,0.0,0.0,0.0,0.0,3.517,3.4922,3.4797,3.4423,3.3796,3.3418,3.2931,3.2241,3.2022,3.1878,3.1872,3.1598,3.1565,3.1277,3.014,2.9282,2.8274,2.6677,2.5345,2.4026,2.2603,2.0533,1.8461,1.645,1.3964,1.1251,0.7972,0.4943,0.1798,-0.109,-0.4951,-0.87,-1.1748,-1.4865,-1.8338,-2.2238,-2.4785,-2.7677,-3.1109,-3.6964,-4.1449,-4.3938,-4.6629,-4.8926,-5.0746,-5.2387,-5.4098,-5.6072,-5.721,-5.8355,-5.9508,-6.0755,-6.1709,-6.2515,-6.3573,-6.4224,-6.4612,-6.5222,-6.5601,-6.5601,-6.5882,-6.5365,-6.4213,-6.4213,-6.3266,-6.2116,-6.1552,-6.1193,-6.0899,0.0,0.0,0.0,0.0,0.0,0.0,3.5678,3.5709,3.6032,3.7165,3.7108,3.6922,3.6709,3.6546,3.6263,3.5908,0.0,0.0,0.0,0.0,0.0,0.0,0.0,0.0,0.0,0.0,3.7156,3.7109,3.7574,0.0,0.0,0.0,0.0,0.0,0.0,3.7374,3.7154,3.7032,0.0,0.0,0.0,0.0,0.0,0.0,0.0,0.0,0.0,0.0,3.517,3.4922,3.4673,3.4423,3.3922,3.3418,3.2919,3.2693,3.2459,3.2331,3.2294,3.1878,3.1418,3.0442,2.9425,2.8403,2.71,2.5639,2.4175,2.2923,2.1001,1.8937,1.7104,1.463,1.1589,0.8313,0.5651,0.2698,-0.0909,-0.477,-0.8331,-1.1764,-1.5059,-1.8516,-2.2238,-2.5343,-2.9427,-3.5018,-3.8642,-4.1922,-4.4941,-4.7318,-4.9415,-5.1154,-5.2694,-5.4397,-5.6219,-5.7498,-5.8638,-5.9648,-6.1002,-6.1816,-6.2381,-6.3573,-6.4224,-6.4512,-6.5222,-6.5475,-6.5446,-6.5441,-6.4887,-6.4062,-6.3407,-6.2582,-6.1523,-6.1073,-6.0451,-5.9537,0.0,0.0,0.0,0.0,0.0,3.4999,3.5966,3.6103,3.6508,3.7468,3.7413,3.7108,3.6922,3.6828,3.6546,3.6288,3.6899,0.0,0.0,0.0,0.0,0.0,0.0,0.0,0.0,0.0,3.7063,3.736,3.7488,3.7747,0.0,0.0,3.7374,3.7374,0.0,0.0,0.0,0.0,0.0,0.0,0.0,0.0,0.0,0.0,0.0,0.0,0.0,0.0,0.0,0.0,0.0,3.4797,3.4298,3.3922,3.3594,3.3406,3.3121,3.2771,3.2905,3.2561,3.1718,3.0868,2.9855,2.8691,2.739,2.6078,2.4621,2.3384,2.1468,1.9411,1.7584,1.4959,1.1927,0.8654,0.618,0.3242,-0.0913,-0.4595,-0.8339,-1.1626,-1.5265,-1.8702,-2.2238,-2.6423,-3.1469,-3.7418,-3.9513,-4.2044,-4.5401,-4.761,-4.9524,-5.1108,-5.2929,-5.457,-5.6219,-5.7784,-5.8947,-5.9648,-6.1138,-6.1951,-6.2248,-6.3442,-6.4095,-6.4354,-6.5094,-6.5348,-6.529,-6.4898,-6.4282,-6.3515,-6.2628,-6.1745,-6.0831,-6.0438,-5.955,-5.8438,0.0,0.0,0.0,0.0,0.0,0.0,3.6018,3.6619,3.722,3.7821,3.769,3.7505,3.7505,3.7015,3.6709,3.6709,3.729,0.0,0.0,0.0,0.0,0.0,0.0,0.0,0.0,0.0,3.7063,3.736,3.7488,3.7747,3.7878,3.7517,3.7374,3.7374,0.0,0.0,0.0,0.0,0.0,0.0,0.0,0.0,3.6423,0.0,0.0,0.0,0.0,0.0,0.0,0.0,0.0,0.0,0.0,3.4423,3.3974,3.4192,3.3653,3.3155,3.3716,3.326,3.2421,3.1294,3.0425,2.9425,2.7825,2.6663,2.5376,2.3832,2.1768,1.9717,1.7747,1.4959,1.1927,0.8654,0.618,0.3251,-0.0922,-0.4801,-0.8358,-1.1736,-1.5327,-1.8702,-2.2238,-2.8205,-3.353,-3.725,-3.9721,-4.2292,-4.5483,-4.7296,-4.9025,-5.0565,-5.274,-5.457,-5.6219,-5.7784,-5.8947,-5.9648,-6.1138,-6.1789,-6.1789,-6.3282,-6.3965,-6.4095,-6.474,-6.4996,-6.4938,-6.4299,-6.341,-6.2496,-6.1862,-6.0983,-6.0194,-5.9454,-5.8812,-5.8165,0.0,0.0,0.0,0.0,0.0,0.0,0.0,3.6911,3.74,3.7821,3.7808,3.7716,3.7505,3.7201,3.7075,3.7267,3.7515,0.0,0.0,0.0,0.0,0.0,0.0,0.0,0.0,3.6874,3.7031,3.7679,3.7496,3.7668,3.8261,3.7878,3.7637,3.7374,3.7374,3.7374,0.0,0.0,0.0,0.0,0.0,3.7132,3.7011,0.0,0.0,0.0,0.0,0.0,0.0,0.0,0.0,0.0,0.0,0.0,0.0,3.4487,3.4231,3.3804,3.3539,3.3477,3.3121,3.17,3.0852,2.9838,2.8243,2.6808,2.5376,2.3832,2.209,2.02,1.7756,1.5127,1.2441,0.918,0.6892,0.3973,-0.0553,-0.5359,-0.9305,-1.1741,-1.7375,-2.2402,-2.6253,-2.9847,-3.353,-3.725,-3.963,-4.2312,-4.5463,-4.7328,-4.9175,-5.1053,-5.2892,-5.457,-5.6219,-5.7784,-5.8947,-5.9648,-6.1138,-6.1789,-6.1789,-6.3018,-6.3704,-6.3965,-6.4483,-6.4352,-6.389,-6.3255,-6.2496,-6.149,-6.086,-6.0242,-5.9397,-5.8851,-5.7796,-5.6541,0.0,0.0,0.0,0.0,0.0,0.0,0.0,3.7246,3.7727,3.8031,3.7992,3.7808,3.769,3.7413,3.7339,3.7712,3.7811,0.0,0.0,0.0,0.0,0.0,0.0,0.0,3.7251,3.6928,3.6997,3.7742,3.7474,3.7653,3.8326,3.8171,3.7878,3.7637,3.7637,3.7495,0.0,0.0,0.0,0.0,3.7374,3.7374,3.7374,0.0,0.0,0.0,0.0,0.0,0.0,0.0,0.0,0.0,0.0,0.0,0.0,0.0,3.4527,3.4236,3.3741,3.3532,3.3339,3.2088,3.1277,3.0266,2.8691,2.7245,2.5806,2.4291,2.2567,2.0526,1.8072,1.563,1.279,0.9525,0.742,0.4514,-0.0184,-0.5544,-1.0421,-1.3983,-1.9419,-2.4247,-2.8076,-3.0917,-3.3837,-3.7052,-3.9777,-4.2459,-4.5223,-4.7098,-4.9179,-5.1385,-5.2916,-5.457,-5.6219,-5.7784,-5.8947,-5.9648,-6.1138,-6.1789,-6.1789,-6.2886,-6.3545,-6.3806,-6.3837,-6.375,0.0,-6.2428,-6.1479,-6.0677,-6.0052,-5.9454,-5.8746,-5.7855,-5.6748,-5.5523,0.0,0.0,0.0,0.0,0.0,0.0,0.0,3.7652,3.8213,3.8213,3.8057,3.79,3.79,3.769,3.7645,3.7954,0.0,0.0,0.0,0.0,0.0,0.0,0.0,0.0,3.7596,3.7036,3.6967,3.7502,3.745,3.761,3.8109,3.8371,3.8238,3.7878,3.7878,3.7758,3.7495,3.7495,3.7495,3.7495,3.7495,3.7495,0.0,0.0,0.0,0.0,0.0,0.0,0.0,0.0,0.0,0.0,0.0,0.0,0.0,0.0,0.0,0.0,0.0,3.3853,3.3185,3.2438,3.17,3.071,2.9122,2.7825,0.0,2.5219,2.3174,2.0998,1.856,1.5973,1.3133,0.9525,0.7952,0.5236,-0.0,-0.5734,-1.1541,-1.7343,-2.1093,-2.4602,-2.8076,-3.1451,-3.4447,-3.674,-3.9992,-4.2697,-4.5005,-4.7111,-4.9179,-5.1385,-5.2916,-5.457,-5.6219,-5.7784,-5.8947,-5.9648,-6.1138,-6.1789,-6.1789,-6.2886,-6.3385,-6.3328,-6.3122,-6.2936,-6.2765,-6.1594,-6.058,-5.9964,-5.9304,-5.8676,-5.7933,-5.6668,-5.5817,-5.497,0.0,0.0,0.0,0.0,0.0,0.0,0.0,0.0,0.0,0.0,3.8122,3.8057,3.79,3.769,3.7919,0.0,0.0,0.0,0.0,0.0,0.0,0.0,0.0,0.0,3.7596,3.7489,3.7425,3.7502,3.7765,3.8045,3.8109,3.8467,3.8596,3.8261,3.8261,3.8261,3.8118,3.8118,3.8118,3.8118,3.8118,3.8118,0.0,0.0,0.0,0.0,3.7878,3.7758,0.0,0.0,0.0,0.0,0.0,0.0,0.0,0.0,3.5252,3.5082,3.4348,0.0,3.4003,3.3568,3.2684,3.1542,0.0,2.8691,2.6983,2.5496,2.3328,2.0998,1.8894,1.6141,1.3304,1.0386,0.8301,0.5416,0.0368,-0.6724,-1.3017,-1.7561,-2.1093,-2.4602,-2.8076,-3.1451,-3.4447,-3.7241,-4.0313,-4.3176,-4.5311,-4.7592,-4.9651,-5.1824,-5.3044,-5.457,-5.6219,-5.7784,-5.8947,-5.9648,-6.1138,-6.1789,-6.1789,-6.2648,-6.2925,-6.2705,-6.2664,-6.2068,-6.116,-6.0596,-5.9823,-5.9025,-5.8633,-5.7768,-5.6641,-5.5916,-5.4566,-5.3097,0.0,0.0,0.0,0.0,0.0,0.0,0.0,0.0,0.0,0.0,0.0,0.0,0.0,0.0,0.0,0.0,0.0,0.0,0.0,0.0,0.0,0.0,0.0,3.8315,3.7998,3.7702,3.7631,3.759,3.7985,3.8158,3.8206,3.8706,3.8812,3.8596,3.85,3.838,3.838,3.838,3.838,3.838,3.838,0.0,0.0,0.0,0.0,0.0,3.8238,3.8118,0.0,3.7878,3.7637,3.7275,0.0,0.0,0.0,0.0,3.5665,3.5397,3.5093,3.4681,3.4394,3.3724,3.2977,3.1965,3.0693,2.9107,2.7422,2.5951,2.3778,2.1615,1.9371,1.6801,1.3981,1.0725,0.8828,0.5051,-0.313,-0.8812,-1.3639,-1.7569,-2.1277,-2.4967,-2.8424,-3.1806,-3.4972,-3.7757,-4.065,-4.3322,-4.5474,-4.789,-5.0121,-5.1954,-5.3346,-5.4868,-5.651,-5.7784,-5.8947,-5.9648,-6.1002,-6.1544,-6.1402,-6.1936,-6.2155,-6.1824,-6.1385,-6.075,-6.0104,-5.9542,-5.8729,-5.7916,-5.7514,-5.6677,-5.566,-5.452,-5.3382,-5.2406,0.0,0.0,0.0,0.0,0.0,0.0,0.0,0.0,0.0,0.0,0.0,0.0,0.0,0.0,0.0,0.0,0.0,0.0,0.0,0.0,0.0,0.0,3.8841,3.8526,3.8421,3.7892,3.7702,3.7596,3.7997,3.8152,3.8268,3.8966,3.9098,3.893,3.8596,3.85,3.85,3.85,3.85,3.85,3.85,0.0,0.0,0.0,0.0,0.0,0.0,0.0,0.0,3.838,3.8261,3.7878,3.7616,0.0,0.0,0.0,0.0,0.0,3.5894,3.5369,3.458,3.3662,3.3092,3.2386,3.0977,2.9393,2.786,2.6418,2.4406,2.2241,1.9856,1.7469,1.4493,1.0897,0.8673,0.3437,-0.7562,-1.089,-1.3639,-1.7569,-2.1646,-2.532,-2.8771,-3.216,-3.5336,-3.8118,-4.0819,-4.3322,-4.5637,-4.8049,-5.0254,-5.2107,-5.3648,-5.514,-5.6946,-5.7953,-5.8947,-5.9648,-6.0647,-6.1026,-6.0905,-6.1059,-6.1091,-6.079,-5.9846,-5.944,-5.9173,-5.8419,-5.7633,-5.6984,-5.634,-5.5633,-5.4724,-5.2979,-5.2305,-5.1895,0.0,0.0,0.0,0.0,0.0,0.0,0.0,0.0,0.0,0.0,0.0,0.0,0.0,0.0,0.0,0.0,0.0,0.0,0.0,0.0,0.0,3.9697,3.9362,3.8945,3.8421,3.8315,3.7998,3.7596,3.8082,3.8248,3.8245,3.8735,3.9128,3.919,3.919,3.919,3.919,3.919,3.919,3.919,3.919,0.0,0.0,0.0,0.0,0.0,0.0,0.0,0.0,3.85,3.838,3.8261,3.7878,0.0,0.0,0.0,0.0,0.0,3.5645,3.5509,3.5329,3.472,3.3779,3.2824,3.17,2.9981,2.8297,2.7187,2.4866,2.2397,2.0653,1.7794,1.4664,1.1412,0.5368,-0.1288,-0.8136,-1.089,-1.3639,-1.7569,-2.1646,-2.532,-2.8771,-3.216,-3.5336,-3.8597,-4.0987,-4.3487,-4.5961,-4.8367,-5.041,-5.2389,-5.3798,-5.5287,-5.7235,-5.8096,-5.8947,-5.9648,-6.0213,-6.0453,-6.0478,-6.0248,-5.993,-5.9377,-5.9266,-5.8677,-5.7953,-5.7486,-5.6875,-5.6003,-5.5279,-5.4126,-5.2848,-5.2282,-5.1408,-5.0359,0.0,0.0,0.0,0.0,0.0,0.0,0.0,0.0,0.0,0.0,0.0,0.0,0.0,0.0,0.0,0.0,0.0,0.0,0.0,0.0,4.0083,3.9878,3.9672,3.9362,3.8945,3.8526,3.8315,3.7998,3.8203,3.8256,3.8272,3.8981,3.9406,3.9567,3.9567,3.9426,3.9308,3.9308,3.9308,3.9308,0.0,0.0,0.0,0.0,0.0,0.0,0.0,0.0,0.0,0.0,3.8716,3.8596,3.8455,0.0,0.0,0.0,0.0,0.0,3.6055,3.6101,3.6071,3.5225,3.4429,3.3539,3.2403,3.0843,2.9112,2.7817,2.5598,2.3236,2.1167,1.8199,1.4714,1.0379,0.4161,-0.2217,-0.8324,-1.089,-1.3639,-1.7569,-2.1646,-2.5503,-2.913,-3.2337,-3.551,-3.9125,-4.1155,-4.3487,-4.6144,-4.8504,-5.0565,-5.226,-5.3798,-5.5311,-5.6632,-5.732,-5.8166,-5.9142,-5.921,-5.9315,-5.9385,-5.9243,-5.8934,-5.8356,-5.8099,-5.7677,-5.699,-5.6176,-5.5492,-5.4784,-5.3763,-5.2698,-5.182,-5.0972,-5.0074,-4.9227,0.0,0.0,0.0,0.0,0.0,0.0,0.0,0.0,0.0,0.0,0.0,0.0,0.0,0.0,0.0,0.0,0.0,0.0,0.0,4.0491,4.0287,4.0083,3.9878,3.9672,3.9258,3.8841,3.8526,3.8421,3.8383,3.8323,3.8357,3.8972,3.9473,3.9733,3.9733,3.9686,3.9544,3.9544,3.9544,3.9544,0.0,0.0,0.0,0.0,0.0,0.0,0.0,0.0,0.0,0.0,0.0,0.0,0.0,0.0,0.0,3.7998,3.7517,3.6911,3.6667,3.6603,3.6547,3.5601,3.495,3.4214,3.2945,3.1548,3.0032,2.8282,2.6167,2.4049,2.1491,1.8121,1.3939,0.9286,0.3825,-0.2216,-0.8324,-1.089,-1.3639,-1.7569,-2.1646,-2.5503,-2.9475,-3.2337,-3.5684,-3.9466,-4.1323,-4.3487,-4.6144,-4.8662,-5.0565,-5.1954,-5.3678,-5.5063,-5.5796,-5.6252,-5.7155,-5.8392,-5.8214,-5.8078,-5.8173,-5.8037,-5.7738,-5.7303,-5.7044,-5.6574,-5.5996,-5.5049,-5.4184,-5.3452,-5.2182,-5.1254,-5.0713,-4.9766,-4.8967,-4.8445,0.0,0.0,0.0,0.0,0.0,0.0,0.0,0.0,0.0,0.0,0.0,0.0,0.0,0.0,0.0,0.0,0.0,0.0,0.0,4.087,4.0567,4.0083,4.0083,3.9878,3.9258,3.9258,3.8945,3.8421,3.8445,3.8393,3.8357,3.8618,3.9047,3.9403,3.9541,3.98,4.0106,4.0106,4.0106,4.0106,4.0106,0.0,0.0,0.0,0.0,0.0,0.0,0.0,0.0,0.0,0.0,0.0,0.0,0.0,3.8574,3.8118,3.7637,3.7275,3.6911,3.6854,3.6676,3.6269,3.5465,3.4452,3.3085,3.1691,3.0324,2.8746,2.6613,2.451,2.247,1.7027,1.1975,0.9113,0.4005,-0.1846,-0.8139,-1.089,-1.3639,-1.7569,-2.1646,-2.5503,-2.9475,-3.2337,-3.5668,-3.9296,-4.1323,-4.3487,-4.6144,-4.8367,-5.0254,-5.1977,-5.3168,-5.4254,-5.539,-5.5064,-5.5779,-5.7425,-5.7223,-5.7171,-5.7091,-5.6556,-5.6289,-5.6236,-5.6263,-5.555,-5.4394,-5.421,-5.3192,-5.1588,-5.0836,-4.9856,-4.878,-4.8731,-4.8445,-4.8026,0.0,0.0,0.0,0.0,0.0,0.0,0.0,0.0,0.0,0.0,0.0,0.0,0.0,0.0,0.0,0.0,0.0,0.0,0.0,4.0997,4.0795,4.0593,4.0287,3.9981,3.9775,3.9465,3.9154,3.8945,3.8631,3.8476,3.8598,3.868,3.8951,3.9202,3.9202,3.9207,3.9306,3.9635,3.9776,3.98,4.0105,4.0223,0.0,0.0,0.0,0.0,0.0,0.0,0.0,0.0,3.9896,3.9567,3.9426,3.9167,3.8812,3.8574,3.8096,3.7703,3.7645,3.7588,3.7273,3.6746,3.6196,3.5412,3.3798,3.2451,3.1023,2.9225,2.7241,2.4589,2.0196,1.5676,1.1726,0.8583,0.4007,-0.1107,-0.7019,-1.0128,-1.3257,-1.7569,-2.1646,-2.532,-2.895,-3.216,-3.5336,-3.8614,-4.0987,-4.3322,-4.5799,-4.8208,-4.9964,-5.1056,-5.2655,-5.3716,-5.3911,-5.4353,-5.4765,-5.532,-5.5893,-5.6187,-5.6451,-5.6211,-5.5656,-5.4919,-5.4919,-5.4184,-5.2956,-5.2097,-5.1452,-5.0655,-4.9651,-4.8879,-4.8182,-4.8182,-4.8026,-4.763,0.0,0.0,0.0,0.0,0.0,0.0,0.0,0.0,0.0,0.0,0.0,0.0,0.0,0.0,0.0,0.0,0.0,0.0,4.0958,4.0993,4.0997,4.0896,4.0593,4.0287,4.0083,3.9775,3.9465,3.9258,3.8736,3.8615,3.8658,3.8658,3.8839,3.899,3.899,3.8999,3.8966,3.9433,3.9575,3.951,4.003,4.0219,0.0,0.0,0.0,0.0,0.0,0.0,0.0,0.0,4.013,3.9919,3.9802,3.9426,3.9049,3.8812,3.8455,3.8208,3.8231,3.8217,3.7954,3.7363,3.7003,3.6287,3.4658,3.3358,3.1776,2.9853,2.7311,2.3968,1.8838,1.5436,1.2137,0.8587,0.4371,-0.0369,-0.6089,-0.9373,-1.2693,-1.7196,-2.1093,-2.4956,-2.8591,-3.1983,-3.5162,-3.8118,-4.065,-4.3176,-4.5474,-4.774,-4.9252,-5.0323,-5.1929,-5.2743,-5.2607,-5.3418,-5.3833,-5.37,-5.4671,-5.5206,-5.5445,-5.5261,-5.4708,-5.3921,-5.3607,-5.2799,-5.158,-5.0701,-4.9925,-4.9331,-4.846,-4.7894,-4.7497,-4.7497,-4.7497,-4.7364,0.0,0.0,0.0,0.0,0.0,0.0,0.0,0.0,0.0,0.0,3.9292,0.0,0.0,0.0,0.0,0.0,0.0,0.0,4.0383,4.0984,4.1198,4.0896,4.0896,4.0694,4.0083,4.0083,3.9878,3.9258,3.8945,3.8631,3.8421,3.8421,3.85,3.8815,3.8815,3.9104,3.9585,3.9609,3.9609,3.9657,4.0186,4.0379,4.0451,0.0,0.0,0.0,0.0,0.0,0.0,0.0,4.0479,4.0106,3.9919,3.9802,3.9684,3.9049,3.8812,3.8806,3.8598,3.8715,3.8695,3.8164,3.7554,3.6793,3.5711,3.4251,3.2492,3.0595,2.6833,2.2754,1.9072,1.6136,1.3022,0.9299,0.4914,0.0185,-0.5354,-0.8629,-1.2134,-1.6076,-2.0168,-2.4043,-2.8038,-3.1423,-3.4781,-3.8118,-4.0331,-4.2844,-4.5474,-4.6807,-4.8277,-4.9995,-5.0507,-5.1009,-5.1489,-5.2461,-5.2879,-5.2879,-5.3563,-5.3971,-5.3971,-5.3407,-5.3151,-5.31,-5.2139,-5.1185,-5.0419,-4.9999,-4.891,-4.7497,-4.7098,-4.6697,-4.6405,-4.6405,-4.6697,-4.6965,0.0,0.0,0.0,0.0,0.0,0.0,0.0,0.0,0.0,3.938,3.9292,0.0,0.0,0.0,0.0,0.0,0.0,0.0,4.0383,4.0984,4.1224,4.1198,4.0997,4.0795,4.0694,4.0287,3.9878,3.9258,3.9154,3.8945,3.8631,3.8631,3.8599,3.8558,3.8558,3.8524,3.8503,3.8888,3.9056,3.9104,3.9633,4.0066,4.0403,0.0,0.0,0.0,0.0,0.0,0.0,0.0,0.0,0.0,4.0503,4.0153,3.9802,3.9544,3.919,3.8874,3.9388,3.9103,3.8781,3.8544,3.7914,3.7199,3.6128,3.4697,3.2809,2.9854,2.668,2.343,2.0417,1.7337,1.4075,1.0184,0.6737,0.277,-0.2768,-0.6936,-1.1182,-1.5507,-1.9613,-2.3494,-2.7148,-3.0369,-3.3571,-3.6221,-3.9049,-4.1744,-4.3692,-4.5512,-4.7158,-4.8501,-4.9545,-5.0265,-5.0912,-5.1449,-5.1771,-5.2074,-5.1955,-5.2302,-5.2953,-5.28,-5.2051,-5.0896,-5.0588,-4.9818,-4.8665,-4.8137,-4.7375,-4.6697,-4.6563,-4.6563,-4.6405,-4.6405,-4.6405,-4.6563,0.0,0.0,0.0,0.0,0.0,0.0,4.0083,3.9996,3.9821,3.938,3.9292,3.9292,0.0,0.0,0.0,3.9055,3.948,3.9826,4.0069,4.0853,4.1324,4.1324,4.1097,4.0997,4.0896,4.0389,3.9981,3.9672,3.9465,3.9258,3.905,3.905,3.8841,3.8526,3.8526,3.8526,3.8315,3.8679,3.8693,3.8634,3.9274,3.9575,3.9801,0.0,0.0,0.0,0.0,0.0,0.0,0.0,0.0,0.0,4.0735,4.0503,4.0153,3.9919,3.9544,3.9277,3.9791,3.9588,3.9182,3.9085,3.8528,3.7644,3.634,3.4648,3.2456,2.9513,2.6961,2.4258,2.1254,1.8198,1.4956,1.1245,0.7982,0.4226,-0.1107,-0.5605,-1.0005,-1.4377,-1.8499,-2.2392,-2.5878,-2.9296,-3.2455,-3.4799,-3.7827,-4.0474,-4.243,-4.4249,-4.5762,-4.7153,-4.8316,-4.9259,-4.9818,-5.0364,-5.0833,-5.0756,-5.0718,-5.0602,-5.0702,-5.113,-5.0647,-4.947,-4.8984,-4.8185,-4.7364,-4.6831,-4.6429,-4.616,-4.6025,-4.6025,-4.6025,-4.6025,-4.616,-4.6294,0.0,0.0,4.1311,4.1085,0.0,4.0516,4.0083,3.9996,3.9821,3.938,3.9292,3.9292,0.0,0.0,0.0,3.8602,3.9336,3.9807,3.9599,4.0644,4.1272,4.1324,4.1324,4.1198,4.0896,4.0389,4.0185,4.0185,3.9878,3.9594,3.9362,3.9362,3.9154,3.8841,3.8841,3.8841,3.8841,3.8841,3.8631,3.8469,3.8956,3.9067,3.902,3.9985,0.0,0.0,0.0,0.0,0.0,0.0,0.0,0.0,4.085,4.0735,4.0619,4.0036,3.9802,3.9893,4.0281,4.0062,3.9811,3.9736,3.9252,3.8212,3.6509,3.443,3.2159,2.9559,2.7748,2.5388,2.1922,1.9057,1.6011,1.2131,0.8836,0.4924,-0.0,-0.4459,-0.8622,-1.2847,-1.6964,-2.0677,-2.4354,-2.7963,-3.124,-3.3751,-3.6592,-3.9116,-4.1361,-4.2683,-4.4194,-4.5748,-4.6988,-4.7772,-4.8186,-4.9318,-4.9606,-4.906,-4.9456,-4.8929,-4.7614,-4.8804,-4.9047,-4.8463,-4.7313,-4.6697,-4.6271,-4.589,-4.5754,-4.5754,-4.5483,-4.537,-4.5347,-4.537,-4.5619,-4.589,0.0,0.0,4.1311,4.1085,0.0,0.0,4.0083,3.9996,3.9821,3.938,3.9292,3.9292,3.9292,3.9087,0.0,3.8602,3.8965,3.9386,3.9573,4.0226,4.0827,4.1298,4.1324,4.1198,4.0896,4.0795,4.0593,4.0389,3.9903,3.9697,3.9594,3.9594,3.9465,3.9154,3.9154,3.905,3.8841,3.8841,3.8736,3.8736,3.8859,3.9047,3.9462,3.9682,4.0318,0.0,0.0,0.0,0.0,0.0,0.0,0.0,4.1081,4.0966,4.0735,4.0503,4.0153,3.9916,4.0548,4.0208,3.9811,4.0146,3.9206,3.7986,3.6521,3.5248,3.3833,3.1315,2.8719,2.607,2.3253,2.0255,1.6888,1.3192,0.9554,0.582,0.146,-0.3679,-0.8147,-1.1299,-1.516,-1.8992,-2.2778,-2.5973,-2.895,-3.2028,-3.447,-3.6929,-3.9157,-4.0679,-4.247,-4.4023,-4.5299,-4.6271,-4.6915,-4.747,-4.7647,-4.7399,-4.7144,-4.6704,-4.6495,-4.759,-4.7647,-4.6839,-4.6048,-4.5595,-4.546,-4.4937,-4.4663,-4.4663,-4.48,-4.4937,-4.4937,-4.521,-4.5483,-4.5619,0.0,0.0,0.0,0.0,0.0,0.0,0.0,0.0,3.9821,3.938,3.9292,3.9292,3.9292,3.9203,0.0,0.0,3.9043,3.9348,3.9573,4.0122,4.0697,4.1298,4.1324,4.1198,4.1097,4.0997,4.0795,4.0694,4.0287,3.9981,3.9878,3.98,3.9594,3.949,3.949,3.9362,3.9258,3.9258,3.9154,3.905,3.905,3.9118,3.9283,3.9554,4.0168,4.0955,4.0954,0.0,0.0,0.0,0.0,0.0,0.0,0.0,4.0966,4.0735,4.0363,4.0129,4.0912,4.0432,3.9811,3.9758,3.9239,3.8247,3.6984,3.5906,3.4689,3.2571,3.0039,2.723,2.4234,2.1536,1.8356,1.4773,1.0936,0.7224,0.3451,-0.2008,-0.6605,-0.9574,-1.3418,-1.7238,-2.0657,-2.4041,-2.7159,-2.9968,-3.251,-3.5015,-3.7147,-3.9012,-4.0627,-4.233,-4.3497,-4.4634,-4.5281,-4.5911,-4.5984,-4.5749,-4.564,-4.5413,-4.5324,-4.6011,-4.6122,-4.5595,-4.5074,-4.48,-4.48,-4.4388,-4.4273,-4.4273,-4.4663,-4.48,-4.48,-4.521,-4.537,-4.5483,0.0,0.0,0.0,0.0,0.0,0.0,0.0,0.0,0.0,3.938,3.9319,3.9292,3.9292,3.9292,3.9114,0.0,0.0,0.0,3.9642,4.02,4.0801,4.1298,4.1324,4.1324,4.1324,4.1097,4.0997,4.0997,4.0694,4.0491,4.0287,3.9878,3.98,3.98,3.9697,3.9697,3.9697,3.9697,3.9594,3.9362,3.9362,3.9154,3.8995,3.9537,4.0104,4.0671,4.1213,4.1755,4.2086,4.1859,0.0,0.0,0.0,0.0,4.1172,4.085,4.0595,4.0434,4.1038,4.0555,3.9796,3.9519,3.9176,3.8722,3.7667,3.6576,3.5366,3.3785,3.1307,2.8485,2.5375,2.2788,1.9952,1.6514,1.2479,0.8778,0.5429,0.0181,-0.4365,-0.7513,-1.1523,-1.5153,-1.8228,-2.1975,-2.5243,-2.7932,-3.0465,-3.3052,-3.5399,-3.7152,-3.8882,-4.053,-4.1867,-4.2807,-4.3405,-4.4337,-4.4475,-4.385,-4.4273,-4.4213,-4.3836,-4.425,-4.4526,-4.4663,-4.4388,-4.4273,-4.4135,-4.4135,-4.4135,-4.4135,-4.4526,-4.4663,-4.48,-4.521,-4.5347,-4.5483,0.0,0.0,0.0,0.0,0.0,0.0,0.0,0.0,0.0,0.0,3.9407,3.9292,3.9292,3.9292,3.9203,3.8908,3.8746,3.907,3.9781,0.0,0.0,4.1324,4.1324,4.1324,4.1324,4.1224,4.1224,4.1224,4.0997,4.0795,4.0769,4.0287,4.0083,4.0083,3.98,3.9697,3.9697,3.9697,3.9697,3.9697,3.9697,3.9594,3.9644,4.0195,4.0746,4.1189,4.1519,4.1954,4.24,4.2086,4.1859,0.0,0.0,0.0,4.1196,4.1172,4.0966,4.0737,4.0952,4.0778,4.0323,4.0256,3.9747,3.8999,3.8286,3.7332,3.6054,3.4619,3.1911,2.9109,2.6659,2.3781,2.0808,1.7389,1.3716,1.0002,0.6627,0.2868,-0.0897,-0.4489,-0.8607,-1.2349,-1.5712,-1.9232,-2.2524,-2.6078,-2.846,-3.0969,-3.3592,-3.5383,-3.7011,-3.842,-4.0048,-4.0873,-4.0853,-4.196,-4.2285,-4.182,-4.2244,-4.2364,-4.23,-4.2278,-4.3141,-4.4411,-4.3997,-4.3858,-4.3697,-4.3441,-4.3324,-4.3324,-4.3719,-4.4112,-4.4411,-4.48,-4.5074,-4.5483,0.0,0.0,0.0,0.0,0.0,0.0,0.0,0.0,0.0,0.0,0.0,3.9292,3.9292,3.9292,3.9203,3.8908,3.8756,3.8925,3.9685,4.0671,4.1324,4.1324,4.1324,4.1324,4.1324,4.1324,4.1324,4.1324,4.1198,4.1097,4.1097,4.0694,4.0389,4.0083,3.9981,3.9878,3.9697,3.9697,3.9697,3.9697,3.9697,3.9873,4.0174,4.0425,4.1053,4.1831,4.1948,4.2288,4.2762,4.2425,4.2199,4.2061,4.172,0.0,0.0,0.0,4.0966,4.0785,4.0875,4.0738,4.0539,4.0278,3.9815,3.9052,3.8404,3.7436,3.6271,3.5068,3.2992,3.0575,2.7859,2.4894,2.1969,1.8949,1.5593,1.2125,0.8753,0.5184,0.1431,-0.2504,-0.6252,-0.9992,-1.3362,-1.688,-2.0366,-2.347,-2.6381,-2.8923,-3.1422,-3.3222,-3.4996,-3.6587,-3.7865,-3.867,-3.9051,-4.0282,-4.1069,-4.1452,-4.1594,-4.1735,-4.2018,-4.2018,-4.2441,-4.3001,-4.3001,-4.3141,-4.3141,-4.3163,-4.3184,-4.3184,-4.358,-4.3997,-4.4411,-4.4663,-4.5074,-4.5483,0.0,0.0,0.0,0.0,0.0,0.0,0.0,0.0,0.0,0.0,0.0,3.9292,3.9292,0.0,0.0,0.0,3.8889,3.9229,3.9852,4.0848,4.1424,4.1324,4.1324,4.1324,4.1324,4.1324,4.1324,4.1324,4.1324,4.1324,4.1324,4.1097,4.0795,4.0287,4.0287,4.0083,3.9903,3.98,3.98,3.98,3.9848,4.0149,4.0551,4.0827,4.143,4.2183,4.2308,4.2635,4.2986,4.2737,4.2513,4.24,4.1948,4.172,0.0,0.0,0.0,4.0598,4.0912,4.0705,4.0509,4.0515,3.9994,3.929,3.8657,3.7704,3.6702,3.5649,3.4186,3.2195,2.9306,2.6397,2.3419,2.0517,1.7594,1.438,1.0885,0.7324,0.3755,-0.0,-0.3932,-0.7502,-1.089,-1.459,-1.7929,-2.1068,-2.3995,-2.6863,-2.9147,-3.1242,-3.297,-3.4559,-3.5551,-3.66,-3.7409,-3.8711,-3.9858,-4.0882,-4.0882,-4.1167,-4.1431,-4.1594,-4.1594,-4.1594,-4.2159,-4.2581,-4.2581,-4.2883,-4.3163,-4.3184,-4.3441,-4.3858,-4.4273,-4.4526,-4.5074,-4.5619,0.0,0.0,0.0,0.0,0.0,0.0,0.0,0.0,0.0,0.0,0.0,3.9292,3.9292,3.9292,3.9292,3.9292,3.9536,4.0001,4.072,4.1353,4.1597,4.1324,4.1324,0.0,4.1324,4.1324,4.1324,4.1324,4.1324,4.1324,4.1324,4.1324,4.1097,4.0896,4.0593,4.0491,4.0415,4.0185,4.0083,4.0134,4.0354,4.0501,4.0626,4.1681,4.2108,4.2233,4.276,4.2961,4.2986,4.2986,4.2737,4.2513,4.24,4.2061,4.1606,0.0,0.0,0.0,4.1516,4.1068,4.0457,4.1069,4.0388,3.9601,3.9269,3.8519,3.7583,3.6827,3.5316,3.3634,3.1517,2.8318,2.5012,2.236,1.9372,1.6175,1.318,0.9642,0.6436,0.3759,-0.0894,-0.5186,-0.8397,-1.1771,-1.5308,-1.8985,-2.1922,-2.4573,-2.7017,-2.9306,-3.0997,-3.2107,-3.358,-3.4772,-3.579,-3.7696,-3.8865,-3.9156,-3.957,-3.9858,-3.9858,-4.0166,-4.0453,-4.0453,-4.1594,-4.23,-4.2581,-4.2581,-4.2861,-4.3184,-4.3184,-4.3719,-4.4273,-4.4273,-4.4937,-4.589,0.0,0.0,0.0,0.0,0.0,0.0,0.0,0.0,0.0,0.0,0.0,0.0,0.0,3.9292,3.9292,3.9292,3.9914,4.0549,4.1063,4.1648,4.1895,4.1796,4.1796,4.1696,4.1597,4.1597,4.1498,4.1324,4.1324,4.1324,4.1324,4.1324,4.1224,4.1097,4.0896,4.0694,4.0491,4.0389,4.0594,4.0952,4.1052,4.1457,4.2144,4.2334,4.2713,4.3017,4.3022,4.2986,4.2986,4.2986,4.2986,4.2737,4.2513,4.2199,4.1859,4.1516,4.0942,4.0715,4.1539,4.119,4.0682,4.1197,4.0647,3.9996,3.9382,3.8753,3.7806,3.6952,3.5612,3.4255,3.2419,2.9419,2.6344,2.3445,2.094,1.8228,1.4966,1.1828,0.8686,0.5363,0.1253,-0.2863,-0.6439,-0.9824,-1.3154,-1.6562,-1.9647,-2.2288,-2.4579,-2.6862,-2.8787,-3.0317,-3.1649,-3.3297,-3.5157,-3.6497,-3.7383,-3.797,-3.87,-3.9156,-3.9301,-3.9714,-4.0022,-4.031,-4.074,-4.131,-4.1898,-4.2441,-4.2721,-4.2861,-4.3023,-4.358,-4.4273,-4.4273,-4.4937,-4.589,0.0,0.0,0.0,4.1647,0.0,4.1227,4.0859,4.043,4.011,3.9996,0.0,0.0,0.0,0.0,3.9753,4.016,4.0761,4.1274,4.1576,4.1977,4.219,4.2065,4.2065,4.1993,4.1895,4.1796,4.1796,4.1597,4.1498,4.1398,4.1398,4.1324,4.1324,4.1324,4.1097,4.0896,4.0821,4.0926,4.1209,4.1595,4.1851,4.2336,4.3028,4.3041,4.3212,4.3517,4.3184,4.3073,4.3073,4.2986,4.2986,4.2986,4.2762,4.2425,4.1997,4.1516,4.1057,4.0808,4.1424,4.1294,4.1007,4.0972,4.0795,4.0214,3.946,3.8801,3.8007,3.7313,3.6144,3.4847,3.3331,3.0903,2.8072,2.4814,2.2366,1.9716,1.6526,1.3607,1.0513,0.7071,0.3365,-0.0531,-0.4604,-0.7784,-1.0925,-1.4146,-1.7212,-2.0021,-2.2157,-2.4613,-2.6907,-2.9208,-3.0531,-3.225,-3.4406,-3.5306,-3.6201,-3.7089,-3.7696,-3.8282,-3.872,-3.9156,-3.957,-4.0166,-4.0166,-4.076,-4.1473,-4.2159,-4.2441,-4.2581,-4.3023,-4.358,-4.4273,-4.4273,-4.5074,-4.616,4.2769,4.2555,4.2228,4.1785,4.1564,4.1311,4.1001,4.063,4.0312,4.0023,0.0,0.0,0.0,0.0,0.0,4.1896,4.2005,4.2154,4.2457,4.2511,4.2413,4.2164,4.2065,4.2065,4.2065,4.2065,4.2065,4.2065,4.1895,4.1696,4.1696,4.1398,4.1324,4.1324,4.1324,4.135,4.1376,4.1645,4.1776,4.1905,4.2699,4.3028,4.3105,4.3669,4.3899,4.3899,4.3517,4.3381,4.3406,4.3073,4.2986,4.2986,4.2986,4.2538,4.1972,4.172,4.1172,4.0714,0.0,0.0,0.0,4.0671,4.0657,4.0517,3.9473,3.877,3.8275,3.7888,3.6904,3.5724,3.4169,3.2402,3.019,2.6694,2.3516,2.0662,1.8211,1.5175,1.2099,0.9003,0.5721,0.1734,-0.3294,-0.5897,-0.8835,-1.2099,-1.499,-1.7617,-1.9921,-2.2712,-2.568,-2.8744,-3.0423,-3.1807,-3.3196,-3.4406,-3.5306,-3.6052,-3.6516,-3.7255,-3.8009,-3.8428,-3.9011,-3.9714,-4.0166,-4.076,-4.1473,-4.1877,-4.23,-4.2581,-4.3023,-4.358,-4.4273,-4.4273,-4.521,-4.6405,4.3099,4.2769,4.2444,4.2034,4.1647,4.1311,4.1001,4.063,4.0399,0.0,0.0,0.0,4.024,4.0604,4.1164,4.1924,4.2005,4.2249,4.2749,4.2803,4.2803,4.2679,4.2679,4.2582,4.2387,4.2387,4.2289,4.2065,4.2092,4.1895,4.1696,4.1597,4.1498,4.1324,4.1742,4.1925,4.1951,4.2006,4.2319,4.2762,4.336,4.3906,4.4188,4.4152,4.4203,4.4094,4.3874,4.3653,4.3381,4.3295,4.3184,4.2986,4.2737,4.2425,4.1972,4.172,4.1378,4.1062,4.0976,0.0,0.0,0.0,0.0,0.0,3.9844,3.9284,3.8718,3.749,3.6977,3.6051,3.4563,3.2844,3.1055,2.8489,2.534,2.2218,1.9493,1.6676,1.3519,1.0204,0.6928,0.3293,-0.0693,-0.3642,-0.6566,-1.0099,-1.279,-1.5409,-1.7891,-2.2128,-2.5327,-2.7476,-2.9182,-3.0577,-3.184,-3.3044,-3.3954,-3.4556,-3.5754,-3.6516,-3.6664,-3.7696,-3.8428,-3.9011,-3.957,-4.0166,-4.074,-4.1594,-4.2018,-4.23,-4.2883,-4.358,-4.4273,-4.4273,-4.521,-4.6405,4.4146,4.3523,4.3019,4.2607,4.2218,4.1881,4.1597,4.1479,4.1415,0.0,0.0,0.0,4.1223,4.1366,4.1734,4.2331,4.2385,4.2521,4.2873,4.29,4.29,4.29,4.29,4.2803,4.2706,4.2706,4.2582,4.2387,4.2289,4.219,4.1993,4.1895,4.1828,4.1892,4.2233,4.242,4.2526,4.2788,4.3075,4.3415,4.399,4.4434,4.4722,4.4531,4.4531,4.4422,4.4203,4.3984,4.3738,4.3492,4.3184,4.2986,4.2737,4.2538,4.2199,4.1859,4.1631,4.1384,4.1235,4.1518,4.1696,4.1342,0.0,0.0,4.0127,3.9533,3.8719,3.7839,3.7031,3.6055,3.4809,3.3409,3.163,2.9774,2.6819,2.3852,2.06,1.7817,1.4862,1.1757,0.8539,0.5298,0.1711,-0.1712,-0.4949,-0.7957,-1.0975,-1.4275,-1.7983,-2.1545,-2.4295,-2.6201,-2.7776,-2.9353,-3.0917,-3.1993,-3.2892,-3.3802,-3.4857,-3.5754,-3.6201,-3.7255,-3.8009,-3.8574,-3.9425,-3.9878,-4.031,-4.131,-4.1877,-4.2018,-4.2883,-4.358,-4.4273,-4.4273,-4.521,-4.6405,0.0,4.4496,4.3779,4.3529,4.3137,4.2682,4.2424,4.2706,4.2721,0.0,4.2056,4.1966,4.2127,4.2114,4.2304,4.2846,4.29,4.29,4.29,4.29,4.29,4.29,4.29,4.29,4.29,4.29,4.29,4.29,4.2706,4.2511,4.2511,4.2342,4.2366,4.262,4.2726,4.2966,4.3154,4.3834,4.407,4.4016,4.4513,4.4722,4.4722,4.4722,4.4722,4.4613,4.4422,4.4313,4.4203,4.3628,4.3184,4.2986,4.2986,4.2737,4.2425,4.2199,4.1907,4.1686,4.1494,4.1685,4.1888,4.1715,4.1443,0.0,4.0539,3.9473,3.8653,3.8282,3.7173,3.5895,3.5048,3.3613,3.2126,3.033,2.8061,2.5396,2.1878,1.8799,1.5843,1.3197,1.0211,0.7045,0.4029,-0.0,-0.3358,-0.587,-0.954,-1.3851,-1.8799,-2.0758,-2.2694,-2.4786,-2.6531,-2.8261,-2.9819,-3.0763,-3.1993,-3.3651,-3.4105,-3.5007,-3.6052,-3.696,-3.7696,-3.8574,-3.9281,-3.9878,-4.031,-4.1046,-4.1615,-4.2018,-4.2883,-4.358,-4.4273,-4.4273,-4.521,-4.6429,4.5755,4.4965,4.4428,4.4343,4.3833,4.3314,4.3169,4.2991,4.281,4.257,4.2719,4.2906,4.3013,4.3095,4.3054,4.2873,4.29,4.29,4.29,4.29,4.29,4.29,4.29,4.29,4.29,4.29,4.29,4.29,4.29,4.2706,4.2511,4.2995,4.3065,4.2924,4.3854,4.4201,4.4046,4.4651,4.4781,4.4565,4.4696,4.4722,4.4722,4.4722,4.4722,4.4722,4.4613,4.4531,4.4203,4.3628,4.3184,4.2986,4.2986,4.2737,4.2425,4.2199,4.2152,4.2147,4.159,4.1945,4.231,4.2032,4.1696,0.0,4.0777,3.9866,3.8835,3.7872,3.7092,3.6143,3.4747,3.3705,3.2509,3.0463,2.885,2.6662,2.3312,2.0089,1.7164,1.4024,1.1374,0.8373,0.4865,0.1847,-0.1343,-0.4698,-1.0039,-1.4203,-1.7001,-1.946,-2.1728,-2.3496,-2.5251,-2.6833,-2.8559,-2.9819,-3.1055,-3.2299,-3.3348,-3.4406,-3.5306,-3.6052,-3.6812,-3.7696,-3.8428,-3.9156,-3.9858,-4.074,-4.1452,-4.2018,-4.2581,-4.3419,-4.4273,-4.4273,-4.521,-4.6476,4.694,4.6107,4.5361,4.5191,4.4762,4.4327,4.4004,4.3995,4.3925,4.3771,4.3566,4.3499,4.3491,4.3423,4.3423,4.3232,4.3232,4.3259,4.3067,4.3067,4.3067,4.29,4.29,4.29,4.29,4.29,4.29,4.29,4.3172,4.3237,4.3138,4.376,4.4091,4.4082,4.4644,4.4863,4.4944,4.5155,4.5072,4.4964,4.4722,4.4722,4.4722,4.4722,4.4722,4.4722,4.4722,4.4577,4.4506,4.4173,4.3903,4.379,4.379,4.3676,4.3447,4.3012,4.2977,4.2988,4.2544,4.2516,4.2474,4.2631,4.2132,0.0,0.0,4.0257,3.9188,3.8283,3.724,3.623,3.521,3.4001,3.2594,3.0836,2.9336,2.7226,2.4232,2.1147,1.8137,1.5358,1.221,0.9216,0.6208,0.3358,-0.0503,-0.6038,-0.9878,-1.3211,-1.5851,-1.8309,-2.0434,-2.2533,-2.4455,-2.6201,-2.7947,-2.9197,-3.0454,-3.1686,-3.2892,-3.3954,-3.4707,-3.5754,-3.6664,-3.7402,-3.8282,-3.8991,-3.9714,-4.031,-4.1167,-4.2018,-4.2419,-4.328,-4.4273,-4.4273,-4.521,-4.65,4.8133,4.7171,4.6386,4.5957,4.561,4.5347,4.4933,4.5096,4.5046,4.4797,4.4425,4.4021,4.3709,4.3709,4.3709,4.3586,4.3586,4.3519,4.3355,4.3355,4.3259,4.3067,4.3067,4.3067,4.3067,4.3176,4.316,4.316,4.3759,4.4031,4.3959,4.4583,4.5023,4.5146,4.5358,4.5472,4.5715,4.5502,4.5287,4.5206,4.4961,4.4826,4.4748,4.4853,4.4905,4.4905,4.5009,4.4908,4.4873,4.4899,4.4726,4.4618,4.4618,4.4618,4.4502,4.3826,4.3782,4.3835,4.353,4.3113,4.2785,4.3208,4.2546,4.1678,0.0,0.0,0.0,3.8814,3.7595,3.6366,3.5477,3.4189,3.2641,3.1186,2.944,2.752,2.5063,2.2066,1.917,1.65,1.3211,1.0221,0.755,0.4197,-0.0671,-0.7045,-0.9388,-1.1712,-1.4863,-1.7001,-1.9297,-2.1405,-2.3496,-2.5409,-2.7162,-2.8417,-2.9834,-3.1225,-3.2452,-3.35,-3.4255,-3.5456,-3.6497,-3.7255,-3.799,-3.8865,-3.9714,-4.0022,-4.0882,-4.2018,-4.23,-4.328,-4.4273,-4.4273,-4.5279,-4.6641,4.8133,4.7563,4.7103,4.6812,4.6373,4.6018,4.5779,4.5566,4.5321,4.489,4.4518,4.4209,4.4021,4.3926,4.3832,4.3586,4.3586,4.3586,4.3614,4.3614,4.3519,4.3519,4.3519,4.3519,4.3519,4.407,4.4276,4.401,4.4683,4.4884,4.461,4.5207,4.5533,4.5614,4.613,4.6191,4.5901,4.5901,4.5609,4.5233,4.5625,4.5411,4.4774,4.5323,4.5532,4.5584,4.6107,4.5979,4.5463,4.5488,4.5055,4.4618,4.4618,4.4618,4.4502,4.3826,4.4052,4.4326,4.3626,4.3374,4.3232,4.3302,4.2546,4.1678,4.1444,0.0,3.9866,3.8946,0.0,3.6539,3.5215,0.0,0.0,3.1148,2.9548,2.7661,2.5671,2.2758,1.9958,1.6957,1.4533,1.1718,0.8386,0.302,-0.1847,-0.5376,-0.8048,-1.0715,-1.3549,-1.5687,-1.7983,-2.012,-2.1889,-2.3656,-2.5422,-2.7004,-2.8573,-3.0284,-3.1533,-3.274,-3.3954,-3.4707,-3.5754,-3.696,-3.7402,-3.8428,-3.9714,-3.9714,-4.0576,-4.2018,-4.2018,-4.3001,-4.4273,-4.4273,-4.5485,-4.7158,4.8438,4.7964,4.7538,4.7193,4.6756,4.6314,4.6135,4.5776,4.5321,4.489,4.4705,4.4518,4.4209,4.4209,4.4209,4.4115,4.4087,4.416,4.4359,4.4386,4.4525,4.4664,4.4664,4.4664,4.4664,4.494,4.5078,4.498,4.5613,4.5715,4.5438,4.6038,4.631,4.6102,4.6374,4.6455,4.6272,4.649,4.6411,4.6249,4.6425,4.6283,4.5989,4.614,4.6107,4.6159,4.6395,4.6342,4.6052,4.6052,4.5816,4.5598,4.5598,4.5598,4.5479,4.4762,4.4814,4.4865,4.4133,4.3784,4.3576,4.3326,4.2822,4.2189,4.1444,4.0906,4.0257,3.921,0.0,0.0,0.0,0.0,0.0,0.0,2.9774,2.7925,2.5513,2.3359,2.1056,1.7778,1.4985,1.1464,0.7045,0.235,-0.1512,-0.4703,-0.7212,-0.9716,-1.205,-1.4863,-1.7173,-1.9144,-2.1405,-2.3336,-2.5104,-2.6689,-2.8261,-2.9834,-3.1071,-3.2299,-3.35,-3.4255,-3.5306,-3.6516,-3.7107,-3.8136,-3.9425,-3.957,-4.0576,-4.2018,-4.2018,-4.3001,-4.4273,-4.4273,-4.5531,-4.7252,4.8852,4.8385,4.7964,4.7482,4.7019,4.6668,4.6225,4.5776,4.5413,4.5075,4.5125,4.5052,4.4865,4.5007,4.5025,4.5025,4.4931,4.5032,4.5316,4.5344,4.5414,4.5733,4.5761,4.5761,4.5761,4.5928,4.5912,4.5912,4.645,4.6652,4.6346,4.6785,4.6901,4.6587,4.6587,4.6669,4.6754,4.6947,4.711,4.719,4.7229,4.7238,4.7257,4.6874,4.6813,4.6944,4.6944,4.6861,4.6642,4.6642,4.6451,4.6301,4.6301,4.6301,4.618,4.5453,4.5331,4.5208,4.447,4.4075,4.3678,4.3428,4.3075,4.257,4.1572,4.1164,4.0647,3.9473,3.8416,0.0,0.0,0.0,3.3242,3.1401,0.0,2.8026,2.5499,2.3732,2.1608,1.8327,1.4624,1.052,0.5986,0.2829,-0.05,-0.4013,-0.635,-0.8689,-1.1053,-1.3873,-1.6353,-1.8155,-2.0596,-2.2694,-2.4295,-2.6043,-2.7633,-2.9056,-3.0454,-3.1686,-3.2892,-3.3954,-3.5007,-3.6052,-3.696,-3.799,-3.9156,-3.957,-4.0576,-4.2018,-4.2018,-4.3066,-4.4452,-4.4452,-4.5714,-4.7463,4.9372,4.8769,4.8133,4.7624,4.7396,4.7019,4.6314,4.5776,4.5504,4.5504,4.5774,4.6081,4.6081,4.6405,4.6583,4.6583,4.6417,4.6251,4.6251,4.6251,4.6279,4.6279,4.6279,4.6279,4.6279,4.6869,4.6979,4.6779,4.7392,4.7466,4.726,4.7288,4.7081,4.6901,4.6901,4.7097,4.7323,4.7351,4.7595,4.7835,4.8065,4.8197,4.8068,4.7519,4.7649,4.812,4.812,4.7769,4.718,4.718,4.673,4.6301,4.6301,4.6301,4.618,4.5453,4.5331,4.5208,4.447,4.4075,4.3678,4.3428,4.3075,4.257,4.1572,4.1315,4.0906,3.9473,3.866,3.7709,3.6248,3.4765,3.3242,3.1841,2.9997,0.0,0.0,2.3722,2.122,1.8288,1.3568,0.9244,0.6496,0.4388,0.1306,-0.3304,-0.5286,-0.7628,-1.0549,-1.288,-1.5036,-1.7337,-1.9144,-2.0931,-2.2533,-2.4295,-2.6056,-2.7633,-2.9353,-3.0747,-3.2146,-3.3651,-3.4857,-3.5754,-3.6812,-3.799,-3.9156,-3.957,-4.0576,-4.2018,-4.2018,-4.3262,-4.4945,-4.4945,-4.624,-4.8004,5.0963,5.0465,4.9597,4.8116,4.7538,4.7285,4.7169,4.6868,4.677,4.6992,4.6944,4.6899,4.6804,4.6909,4.6928,4.6928,4.686,4.7031,4.7429,4.7458,4.7559,4.7758,4.7787,4.7687,4.7516,4.7712,4.7724,4.7623,4.7819,4.7829,4.7596,4.7596,4.7612,4.7791,4.7581,4.7804,4.8299,4.8464,4.8543,4.8676,4.8792,4.8832,4.8721,4.812,4.8015,4.8224,4.8354,4.8154,4.7846,4.7962,4.7724,4.738,4.738,4.738,4.7257,4.6513,4.6388,4.6263,4.5507,4.5254,4.5,4.4489,4.4232,4.3845,4.2542,4.2032,4.1394,3.9944,3.887,3.7709,3.6248,3.4765,3.326,3.1841,3.014,2.8418,0.0,2.2942,1.9563,1.6816,1.2876,0.9636,0.6967,0.4707,0.1952,-0.1797,-0.4276,-0.678,-0.9123,-1.2001,-1.4541,-1.6353,-1.8818,-2.0769,-2.2533,-2.4295,-2.5898,-2.7633,-2.9056,-3.0454,-3.1993,-3.3348,-3.4406,-3.5306,-3.6812,-3.7843,-3.8865,-3.9425,-4.0576,-4.2018,-4.2278,-4.3425,-4.4967,-4.4967,-4.6469,-4.8709,5.182,5.1403,5.0615,4.9243,4.8434,4.8059,4.8028,4.7815,4.7809,4.7911,4.7956,4.7912,4.7655,4.776,4.7903,4.7903,4.7806,4.7881,4.8281,4.8309,4.8382,4.8681,4.8581,4.861,4.8409,4.8409,4.8308,4.8207,4.8207,4.8106,4.7829,4.8052,4.8256,4.8304,4.8314,4.8541,4.9009,4.9062,4.925,4.9382,4.9408,4.9441,4.9322,4.893,4.8799,4.8852,4.8859,4.8627,4.8435,4.8426,4.8156,4.7908,4.7908,4.7908,4.7783,4.7055,4.6929,4.6675,4.6038,4.5934,4.5806,4.5031,4.4901,4.451,4.3193,4.2548,4.1905,4.0437,3.9248,3.7954,3.6621,3.5135,3.3521,3.1982,3.0425,2.8547,0.0,2.2198,1.8754,1.6177,1.3028,1.015,0.7521,0.5291,0.2571,-0.0646,-0.3901,-0.655,-0.8246,-1.1276,-1.3823,-1.5695,-1.7992,-2.012,-2.205,-2.3816,-2.5409,-2.7162,-2.8588,-3.0144,-3.184,-3.3044,-3.4105,-3.5157,-3.6516,-3.7696,-3.872,-3.9425,-4.0576,-4.2039,-4.2612,-4.3828,-4.54,-4.5518,-4.7141,-4.9511,5.2245,5.1748,5.1243,5.0845,4.9998,4.9284,4.9012,4.883,4.8584,4.8365,4.877,4.9055,4.8769,4.9126,4.9305,4.9305,4.9108,4.8909,4.8909,4.8909,4.8909,4.8909,4.8909,4.8909,4.8909,4.8909,4.881,4.8538,4.8538,4.8465,4.8246,4.8808,4.8882,4.8729,4.8996,4.9362,4.9611,4.928,4.9521,5.0005,5.0024,5.0023,4.9923,4.9923,4.9949,4.9976,4.9611,4.9219,4.8851,4.8604,4.8257,4.7983,4.7983,4.7983,4.7858,4.7153,4.7027,4.6773,4.6135,4.6006,4.5878,4.5102,4.4971,4.458,4.3261,4.2839,4.2415,4.0929,3.9731,3.8582,3.7488,3.5758,3.3974,3.2421,3.0693,2.8228,2.3992,2.1314,1.8905,1.6492,1.3714,1.0779,0.7825,0.5955,0.3625,0.0159,-0.3829,-0.6766,-0.7893,-1.0378,-1.29,-1.5177,-1.7009,-1.8981,-2.1254,-2.2854,-2.4627,-2.6386,-2.8104,-2.9819,-3.1395,-3.2588,-3.3802,-3.5007,-3.6219,-3.7549,-3.872,-3.9425,-4.0576,-4.2061,-4.2956,-4.4453,-4.6081,-4.679,-4.8262,-5.0246,5.3955,5.3481,5.2965,5.2264,5.0903,4.9853,5.0155,4.9972,4.9846,5.007,5.0117,5.014,5.0044,4.9999,4.9892,4.9892,4.9698,4.9473,4.9473,4.9473,4.9404,4.9207,4.9207,4.9108,4.8909,4.8909,4.9138,4.9522,4.9291,4.9416,4.9794,4.9756,4.996,5.0304,5.0122,5.0214,5.0547,5.0241,5.0032,5.005,5.0522,5.0631,5.0551,5.0551,5.0812,5.0976,5.009,4.9589,4.9515,4.9419,4.9291,4.9163,4.9163,4.9035,4.865,4.8287,4.7898,4.7613,4.722,4.7088,4.6957,4.6162,4.6029,4.5629,4.4301,4.3601,4.2904,4.14,4.0351,3.9351,3.7947,3.634,3.4799,3.3233,3.0271,2.7085,2.4301,2.2073,1.9822,1.7398,1.4483,1.1553,0.8292,0.6108,0.3609,0.0158,-0.27,-0.512,-0.724,-0.9637,-1.203,-1.4193,-1.6278,-1.8482,-2.0769,-2.2533,-2.4295,-2.6386,-2.8104,-2.9664,-3.1055,-3.2435,-3.3651,-3.4707,-3.6201,-3.7549,-3.872,-3.9425,-4.0576,-4.2061,-4.324,-4.5505,-4.805,-4.8684,-4.944,-5.0246,5.4832,5.4274,5.3758,5.3144,5.2052,5.1328,5.1274,5.103,5.0873,5.0952,5.0728,5.0685,5.0884,5.0817,5.0808,5.1072,5.1004,5.0807,5.0708,5.0708,5.061,5.034,5.034,5.0241,5.014,5.014,5.0213,5.0485,5.0252,5.0218,5.0379,5.0558,5.0657,5.0888,5.0844,5.0961,5.132,5.1172,5.1034,5.1014,5.1216,5.1361,0.0,5.1152,5.1335,5.1471,5.079,5.0358,5.0078,4.9746,4.959,4.959,4.959,4.9332,4.9072,4.8706,4.8313,4.7894,4.763,4.7497,4.7364,4.654,4.6405,4.6001,4.4686,4.4049,4.3414,4.1893,4.0953,3.9945,3.8688,3.7187,3.5294,3.2984,2.9761,2.6808,2.4596,2.2372,2.0124,1.7702,1.4944,1.2172,0.9226,0.6573,0.3762,0.0784,-0.1894,-0.4287,-0.638,-0.8917,-1.1306,-1.3478,-1.5763,-1.8155,-2.0282,-2.205,-2.3816,-2.5911,-2.7476,-2.9042,-3.0593,-3.1977,-3.3348,-3.4556,-3.5903,-3.7402,-3.872,-3.9425,-4.0699,-4.2522,-4.4354,-4.666,-4.9132,-4.9391,-4.9938,-5.0672,5.5113,5.4613,5.3985,5.3552,5.3383,5.3121,5.2398,5.2001,5.1723,5.1443,5.1314,5.1298,5.1727,5.1689,5.1896,5.2427,5.2387,5.2288,5.2088,5.2088,5.1988,5.1715,5.1715,5.1614,5.1614,5.1614,5.1541,5.1424,5.1321,5.1144,5.0739,5.1173,5.1321,5.1135,5.1456,5.1711,5.1956,5.1898,5.1998,5.2218,5.1937,5.1944,5.2226,5.1852,5.1779,5.1784,5.164,5.1178,5.0589,5.0049,4.9816,4.9816,4.9816,4.9556,4.9165,4.8928,4.8509,4.8112,4.7847,4.7714,4.7556,4.6658,4.65,4.6095,4.4686,4.4273,4.3836,4.23,4.1397,4.0542,3.9435,3.7779,3.5507,3.2244,2.9407,2.7013,2.4958,2.2694,2.0274,1.7854,1.5403,0.0,1.0319,0.7041,0.4231,0.1726,-0.1255,-0.3782,-0.5569,-0.8215,-1.074,-1.2963,-1.5428,-1.7673,-1.9957,-2.1566,-2.3336,-2.5104,-2.6847,-2.8417,-3.0129,-3.1379,-3.2892,-3.4406,-3.5605,-3.7089,-3.872,-3.9425,-4.1028,-4.3178,-4.5512,-4.7751,-4.9509,-4.9509,-5.0222,-5.1376,5.5196,5.4665,5.4242,5.4017,5.4316,5.4429,5.4041,5.3407,5.2947,5.2698,5.2898,5.3098,5.3218,5.283,5.2566,5.2684,5.2487,5.2387,5.2387,5.2387,5.2288,5.2288,5.2088,5.1887,5.1887,5.1715,5.1875,5.2397,5.2087,5.2138,5.2579,5.2238,5.2079,5.2,5.2264,5.2547,5.2591,5.2525,5.2377,5.2245,5.2364,5.2554,5.2833,5.2455,5.2642,5.2957,5.2387,5.1793,5.1228,5.1084,5.0996,5.0996,5.0996,5.0572,5.0037,4.9928,4.9499,4.8932,4.8796,4.8796,4.8564,4.7294,4.704,4.6537,4.4754,4.4273,4.3836,4.23,4.1954,4.1326,3.9881,3.749,3.4903,3.2475,3.0064,2.7792,2.5717,2.3267,2.0725,1.8623,1.6321,1.3714,1.0779,0.7821,0.517,0.3139,0.0157,-0.2668,-0.503,-0.7852,-1.0378,-1.2501,-1.4876,-1.7173,-1.946,-2.1082,-2.3015,-2.5104,-2.6847,-2.8261,-2.9679,-3.1225,-3.274,-3.3954,-3.5605,-3.7089,-3.872,-3.9425,-4.1482,-4.4473,-4.5934,-4.7751,-4.9509,-4.9509,-5.0364,-5.173,5.6459,5.6091,5.5751,5.5611,5.555,5.5506,5.5296,5.5158,5.47,5.3989,5.3857,5.3935,5.4268,5.4104,5.4059,5.4192,5.4122,5.3893,5.3621,5.3621,5.3621,5.336,5.3288,5.3187,5.3187,5.288,5.2952,5.3244,5.2932,5.2895,5.3136,5.2994,5.284,5.2788,5.3276,5.3382,5.3226,5.3389,5.3468,5.3403,5.3209,5.3289,5.3694,5.3211,5.3138,5.3296,5.2928,5.2561,5.2199,5.1538,5.1272,5.1272,5.1272,5.0737,5.0198,5.0198,4.9631,4.9084,4.9084,4.8947,4.8625,4.7813,4.7466,4.6843,4.5337,4.4811,4.4213,4.2664,4.2188,4.1431,3.9425,3.7169,3.492,3.2981,3.0711,2.8505,2.6262,2.3856,2.1325,1.8936,1.6474,1.3868,1.1244,0.8448,0.5952,0.3452,0.0628,-0.2201,-0.4905,-0.7553,-0.991,-1.2081,-1.4415,-1.6681,-1.8971,-2.0758,-2.2533,-2.4455,-2.6215,-2.779,-2.9212,-3.0917,-3.2452,-3.3954,-3.5456,-3.7089,-3.8759,-4.08,-4.2979,-4.5121,-4.6334,-4.798,-4.9509,-4.9509,-5.0674,-5.2238,5.7832,5.7462,5.7206,5.7066,5.6814,5.6588,5.6499,5.6707,5.6435,5.5163,5.4755,5.4805,5.5226,5.5287,5.5304,5.5651,5.5681,5.5481,5.5006,5.5006,5.4875,5.4539,5.4436,5.4406,5.4406,5.4244,5.4228,5.4124,5.406,5.383,5.3617,5.3812,5.377,5.3638,5.3918,5.4041,5.4082,5.4194,5.45,5.4677,5.3931,5.4054,5.4432,5.3815,5.3635,5.3687,5.3443,5.333,5.312,5.2043,5.1624,5.1624,5.1624,5.1085,5.0542,5.0542,4.9996,4.9421,4.9421,4.9145,4.8704,4.8332,4.7866,4.7258,4.6036,4.5415,4.4701,4.3157,4.22,4.0986,3.903,3.6972,3.5265,3.3638,3.1381,2.9106,2.6758,2.4415,2.1849,1.917,1.669,1.4368,1.1869,0.9246,0.6762,0.4095,0.126,-0.1897,-0.5271,-0.7275,-0.947,-1.1685,-1.4124,-1.6353,-1.8491,-2.0444,-2.2211,-2.3816,-2.5581,-2.7333,-2.8886,-3.0608,-3.2299,-3.3954,-3.5456,-3.7293,-3.9354,-4.2439,-4.4349,-4.5618,-4.6713,-4.8209,-4.9509,-4.9509,-5.0818,-5.2583,5.8363,5.7832,5.7579,5.7579,5.7634,5.77,5.7497,5.7797,5.7587,5.6155,5.6241,5.6352,5.625,5.6085,5.5918,5.5979,5.5979,5.588,5.5581,5.5481,5.5381,5.5078,5.4875,5.4803,5.4803,5.5027,5.5008,5.4826,5.5411,5.5459,5.5134,5.4973,5.4877,5.4828,5.4282,5.4512,5.5325,5.5017,5.5033,5.5203,5.4547,5.464,5.5043,5.4393,5.4471,5.4809,5.4164,5.392,5.3784,5.3053,5.2779,5.2779,5.2779,5.2228,5.1673,5.1673,5.1114,5.0551,5.0551,5.0245,4.97,4.8944,4.8403,4.7697,4.6104,4.5684,4.5212,4.3649,4.1814,4.0197,3.8798,3.7217,3.5551,3.4053,3.1772,2.9549,2.7367,2.515,2.2591,1.9881,1.7681,1.5277,1.2649,1.0263,0.7961,0.6214,0.2231,-0.1913,-0.6075,-0.7495,-0.9057,-1.1207,-1.3959,-1.6188,-1.8001,-2.0282,-2.2211,-2.3816,-2.5581,-2.7333,-2.8886,-3.0608,-3.2299,-3.3954,-3.5456,-3.7887,-4.0963,-4.3194,-4.4798,-4.591,-4.686,-4.8209,-4.9509,-4.9509,-5.0818,-5.2656,5.9977,5.9643,5.9272,5.9133,5.8982,5.8912,5.8646,5.86,5.8391,5.7463,5.7308,5.7211,5.7115,5.6827,5.6787,5.7021,5.6953,5.6938,5.7031,5.7061,5.6858,5.6684,5.6582,5.6346,5.6139,5.6169,5.6001,5.5683,5.584,5.5742,5.5416,5.5493,5.5764,5.6131,5.5693,5.5695,5.6044,5.5921,5.5908,5.5826,5.5162,5.5252,5.5655,5.4997,5.4889,5.5099,5.4537,5.4106,5.3861,5.3478,5.3067,5.2929,5.2929,5.2515,5.2099,5.182,5.1376,5.0954,5.0696,5.0246,4.9605,4.9273,4.8798,4.8033,4.6793,4.6379,4.5722,4.412,4.2062,4.0191,3.9131,3.7406,3.5605,3.4105,3.2168,3.0161,2.7956,2.5657,2.3307,2.058,1.8055,1.5665,1.3075,1.0583,0.805,0.5805,0.2418,-0.1456,-0.5547,-0.6902,-0.8765,-1.1317,-1.3672,-1.6016,-1.8001,-2.012,-2.2211,-2.3816,-2.5581,-2.7333,-2.8886,-3.0608,-3.3009,-3.5646,-3.7297,-3.9465,-4.1928,-4.3489,-4.5014,-4.633,-4.6971,-4.8209,-4.9532,-4.9861,-5.1298,-5.3148,6.1169,6.0835,6.0581,6.0325,6.0066,5.9804,5.9508,5.9331,5.9068,5.8772,5.8434,5.8185,5.7902,5.7617,5.78,5.8288,5.8054,5.807,5.8227,5.8156,5.7952,5.7777,5.7674,5.7437,5.7198,5.7199,5.7001,5.6681,5.6643,5.6406,5.6107,5.6301,5.6738,5.7298,5.6823,5.668,5.6651,5.6651,5.6636,5.6549,5.5778,5.5865,5.6239,5.5601,5.5465,5.5595,5.5164,5.4756,5.4509,5.4098,5.3684,5.3356,5.303,5.2754,5.2576,5.2009,5.1516,5.1071,5.0837,5.0246,4.9652,4.9509,4.9101,4.8377,4.7355,4.6917,4.6189,4.442,4.2393,4.0424,3.9563,3.7689,3.5785,3.4277,3.2517,3.0669,2.8269,2.6195,2.3901,2.1144,1.8591,1.6182,1.3568,1.0873,0.8306,0.5709,0.2617,-0.0822,-0.4629,-0.6295,-0.8318,-1.0887,-1.337,-1.5687,-1.7837,-2.011,-2.2211,-2.3816,-2.5581,-2.7374,-2.9189,-3.1478,-3.4111,-3.7141,-3.8763,-4.0654,-4.259,-4.3784,-4.5252,-4.6743,-4.7038,-4.8209,-4.9556,-5.0073,-5.1609,-5.3468,6.1465,6.1252,6.1002,6.0717,6.0548,6.0206,5.9804,5.9716,5.9798,6.0056,6.006,5.9691,5.8652,5.8556,5.8837,5.9461,5.9358,5.9092,5.8793,5.8561,5.8288,5.7982,5.7747,5.757,5.757,5.7888,5.7898,5.7684,5.798,5.8085,5.7781,5.7513,5.7708,5.8308,5.762,5.735,5.7287,5.7287,5.7267,5.7174,5.6367,5.6451,5.6984,5.6153,5.6275,5.6798,5.6383,5.5967,5.5688,5.5242,5.4819,5.4361,5.3281,5.3028,5.3073,5.2108,5.1516,5.1071,5.0837,5.0412,4.9961,4.9652,4.9245,4.8691,4.7502,4.7186,4.6588,4.4484,4.274,4.1243,4.0053,3.8123,3.6334,3.4675,3.2682,3.0608,2.8559,2.6517,2.4197,2.1885,1.9294,1.6808,1.4381,1.1439,0.8734,0.6107,0.3003,-0.0167,-0.3472,-0.551,-0.7722,-1.006,-1.3039,-1.5522,-1.7337,-1.9947,-2.2211,-2.3816,-2.5581,-2.7485,-2.9542,-3.3166,-3.585,-3.7429,-3.951,-4.1363,-4.3061,-4.4292,-4.5704,-4.7186,-4.7186,-4.8209,-4.9556,-5.0073,-5.1609,-5.3468,6.2144,6.1823,6.1417,6.1002,6.0919,6.075,6.0206,6.0631,6.088,6.0573,6.1025,6.1202,6.1059,6.0297,6.0009,6.0505,6.034,6.026,6.0423,6.0352,6.0147,5.9631,5.9527,5.9318,5.8897,5.9001,5.88,5.8367,5.8689,5.8914,5.8783,5.8289,5.8365,5.8845,5.824,5.7964,5.7949,5.8336,5.8255,5.7825,5.7437,5.7437,5.7462,5.6783,5.6641,5.6798,5.6686,5.6271,5.5714,5.5548,5.5381,5.4988,5.4285,5.416,5.3978,5.3094,5.2759,5.2617,5.1922,5.1464,5.1079,5.0265,4.9759,4.9106,4.7569,4.6299,4.5362,4.4763,4.2967,4.1343,4.0445,3.8556,3.6525,3.4744,3.2879,3.1012,2.8915,2.6847,2.4748,2.2419,1.9997,1.7377,1.4868,1.2123,0.9335,0.668,0.4191,0.1006,-0.3345,-0.5533,-0.7722,-1.006,-1.2714,-1.5193,-1.7337,-1.9771,-2.2144,-2.4106,-2.6073,-2.8641,-3.1445,-3.3768,-3.6008,-3.8006,-3.9817,-4.1562,-4.3387,-4.444,-4.5704,-4.7186,-4.7186,-4.8415,-5.0096,-5.0637,-5.2161,-5.4008,6.2459,6.2144,6.1823,6.1417,6.1567,6.1567,6.1146,6.1686,6.2071,6.189,6.2223,6.2593,6.2872,6.2172,6.179,6.1719,6.1456,6.1346,6.1481,6.1308,6.1,6.069,6.0481,6.0289,5.9999,5.9891,5.9825,5.9657,5.9599,5.9563,5.9626,5.8918,5.8994,5.9622,5.9115,5.8829,5.8585,5.9192,5.9051,5.8449,5.8026,5.8023,5.8073,5.7387,5.7268,5.7451,5.7451,5.7032,5.6329,5.6329,5.5989,5.5641,5.529,5.5189,5.4945,5.3685,5.3418,5.3274,5.2574,5.2113,5.1725,5.0807,5.0443,4.9716,4.7885,4.6133,4.4805,4.4805,4.3366,4.1642,4.0876,3.899,3.7095,3.5158,3.3273,3.137,2.9597,2.7237,2.5097,2.2994,2.0475,1.7819,1.502,1.2376,0.9721,0.6885,0.4705,0.1683,-0.2536,-0.4883,-0.7387,-0.9726,-1.2432,-1.4954,-1.7442,-1.996,-2.2234,-2.4395,-2.7118,-2.9865,-3.2618,-3.4484,-3.643,-3.8411,-3.9951,-4.1802,-4.3615,-4.4504,-4.5704,-4.7208,-4.7557,-4.8837,-5.0355,-5.1255,-5.274,-5.4279,6.2707,6.2629,6.2437,6.1958,6.2494,6.2799,6.2414,6.296,6.3484,6.3612,6.3654,6.3767,6.3988,6.4053,6.3675,6.3002,6.258,6.2284,6.2016,6.1512,6.1237,6.1299,6.0751,6.0669,6.0988,6.0693,6.0806,6.1081,6.0487,6.0237,6.0264,5.9606,5.9679,6.0279,6.0159,5.9807,5.9192,5.98,5.9682,5.8939,5.8294,5.8343,5.8658,5.7992,5.8052,5.8523,5.8523,5.8096,5.7379,5.7379,5.6801,5.6219,5.6219,5.6219,5.5872,5.3981,5.3541,5.3397,5.2671,5.2379,5.2233,5.1302,5.0959,5.0374,4.8426,4.6417,4.4848,4.4848,4.3615,4.2062,4.1268,3.9405,3.7584,3.5832,3.3783,3.1806,3.0188,2.7822,2.5549,2.326,2.0926,1.8183,1.5058,1.274,1.008,0.6902,0.4885,0.22,-0.1197,-0.4064,-0.6734,-0.9416,-1.2197,-1.4952,-1.7645,-2.0022,-2.2499,-2.4851,-2.8578,-3.136,-3.3161,-3.5087,-3.701,-3.8761,-4.0315,-4.2042,-4.3615,-4.4504,-4.5726,-4.7298,-4.8214,-4.9306,-5.0642,-5.1929,-5.3201,-5.4328,6.4898,6.4742,6.4472,6.3958,6.4093,6.4065,6.3601,6.4067,6.4308,6.4123,6.4473,6.472,6.4577,6.4333,6.4053,6.377,6.3099,6.258,6.2284,6.1985,6.1863,6.1981,6.1877,6.1871,6.2011,6.1747,6.1528,6.1138,6.0907,6.0911,6.0961,6.0696,6.0737,6.0936,6.0836,6.0449,5.9828,6.0435,6.0313,5.9724,5.9338,5.9302,5.9296,5.8596,5.8392,5.8523,5.8523,5.8096,5.7379,5.7379,5.6801,5.6219,5.6219,5.6219,5.6022,5.4869,5.4647,5.45,5.3611,5.3461,5.3216,5.1915,5.0469,4.9095,4.8681,4.6898,4.5337,4.5337,4.3842,4.2062,4.1268,3.9613,3.7891,3.5867,3.3996,3.2248,3.0218,2.8177,2.6169,2.3515,2.1471,1.8941,1.5417,1.3376,1.0816,0.7056,0.5684,0.3104,-0.1211,-0.4834,-0.7582,-0.9626,-1.188,-1.4791,-1.7847,-2.0069,-2.3146,-2.7252,-2.966,-3.1692,-3.3497,-3.5204,-3.701,-3.8761,-4.0315,-4.2042,-4.3615,-4.4504,-4.5921,-4.779,-4.8349,-4.9743,-5.1656,-5.2214,-5.3442,-5.4844,6.5834,6.5602,6.5333,6.4983,6.5094,6.5169,6.4873,6.5227,6.544,6.5147,6.5282,6.5369,6.5066,6.4793,6.4649,6.4601,6.3773,6.313,6.3087,6.2788,6.2801,6.308,6.2798,6.2823,6.304,6.2634,6.219,6.1585,6.188,6.1879,6.1629,6.1499,6.1565,6.1594,6.1485,6.1091,6.0463,6.1071,6.0917,6.0321,5.9793,5.9648,5.9508,5.8806,5.8679,5.8915,5.8915,5.8641,5.844,5.8294,5.7709,5.7268,5.6972,5.6796,5.6448,5.5856,5.5386,5.4892,5.4272,5.3972,5.36,5.241,5.0756,4.9328,4.9023,4.7553,4.598,4.5847,4.4236,4.2517,4.1563,3.982,3.8054,3.6109,3.4308,3.2623,3.0647,2.8701,2.6465,2.3781,2.184,1.925,1.5539,1.3482,1.0897,0.7108,0.6076,0.3479,-0.1225,-0.5075,-0.8031,-0.9702,-1.1825,-1.4614,-1.8049,-2.131,-2.4731,-2.8136,-2.9983,-3.1813,-3.3608,-3.5237,-3.701,-3.878,-4.0526,-4.2341,-4.4078,-4.5053,-4.6529,-4.8456,-4.9283,-5.0446,-5.2033,-5.2869,-5.388,-5.5041,6.6374,6.6144,6.5989,6.5754,6.6029,6.6194,6.603,6.6323,6.6473,6.6268,6.6042,6.578,6.5514,6.5379,6.5312,6.5531,6.4574,6.4095,6.4215,6.3848,6.3931,6.4318,6.3828,6.3609,6.3964,6.3415,6.2852,6.2381,6.2853,6.2787,6.2389,6.2313,6.2251,6.2251,6.2134,6.1733,6.1071,6.1568,6.1411,6.0782,6.0007,5.9781,5.9641,5.9016,5.9072,5.949,5.949,5.9539,5.9662,5.9219,5.8897,5.845,5.8051,5.7549,5.7024,5.6726,5.5955,5.5089,5.4595,5.3972,5.3521,5.274,5.137,5.0154,4.9692,4.819,4.676,4.6315,4.4691,4.2978,4.2013,4.0084,3.8218,3.6454,3.4621,3.2788,3.0984,2.9091,2.6749,2.4059,2.2011,1.9344,1.5615,1.3548,1.0956,0.7146,0.6106,0.3503,-0.1238,-0.5135,-0.7929,-0.975,-1.1754,-1.4597,-1.8759,-2.3232,-2.6261,-2.8136,-3.0026,-3.1873,-3.3688,-3.5551,-3.7186,-3.8964,-4.1067,-4.2801,-4.4535,-4.5729,-4.7334,-4.8973,-5.0292,-5.128,-5.2174,-5.3354,-5.4421,-5.5041,6.8281,6.8127,6.7895,6.766,6.7604,6.7467,6.7223,6.6912,6.6728,6.6728,6.6268,6.5922,6.578,6.6078,6.6238,6.6061,6.6053,6.5901,6.5413,6.4948,6.4831,6.5322,6.4757,6.4675,6.5001,6.4259,6.3689,6.3328,6.3179,6.3143,6.3304,6.3072,6.2879,6.2908,6.2755,6.2375,6.1678,6.1761,6.1411,6.081,6.0462,6.0367,6.0279,6.0066,6.0013,6.0091,6.0091,5.9851,5.9662,5.9219,5.8897,5.845,5.8051,5.7851,5.7775,5.7625,5.7098,5.6045,5.4814,5.3648,5.274,5.2588,5.1647,5.052,5.0209,4.8718,4.7276,4.6941,4.5147,4.328,4.2484,4.0678,3.8634,3.6869,3.4801,3.2788,3.0984,2.9272,2.7045,2.4314,2.2396,1.9779,1.5958,1.3852,1.1202,0.7485,0.6246,0.3571,-0.1073,-0.501,-0.8044,-0.9969,-1.1931,-1.5454,-2.0702,-2.3835,-2.6261,-2.8136,-3.024,-3.2388,-3.4568,-3.619,-3.8159,-4.0297,-4.1664,-4.326,-4.5013,-4.6145,-4.7662,-4.9468,-5.0756,-5.1792,-5.2646,-5.3924,-5.457,-5.5041,6.8967,6.8705,6.8474,6.8319,6.8083,6.7879,6.7719,6.7394,6.7146,6.7014,6.6728,6.6522,6.6785,6.6768,6.6941,6.7519,6.732,6.7296,6.7296,6.6245,6.5867,6.6257,6.5659,6.525,6.5126,6.4706,6.4236,6.389,6.4094,6.4053,6.3852,6.3606,6.3536,6.3536,6.2934,6.2549,6.2314,6.2041,6.1959,6.1593,6.1158,6.098,6.0864,6.0408,6.0431,6.0692,6.0692,6.0753,6.0866,6.0118,5.9817,5.9515,5.8907,5.8554,5.8353,5.8353,5.7297,5.5947,5.483,5.3561,5.2588,5.2588,5.1847,5.0944,5.0322,4.9182,4.8086,4.7432,4.5623,4.3739,4.2935,4.0952,3.9051,3.7249,3.5294,3.3286,3.1431,2.955,2.7277,2.4384,2.2481,1.9883,1.6034,1.3918,1.1438,0.7877,0.6454,0.3775,-0.0903,-0.5065,-0.8159,-1.0183,-1.3713,-1.7571,-2.1454,-2.4198,-2.6537,-2.8604,-3.0624,-3.2738,-3.5108,-3.6775,-3.8683,-4.0684,-4.2353,-4.406,-4.5491,-4.7005,-4.8496,-4.9962,-5.1194,-5.2096,-5.2764,-5.3948,-5.4719,-5.5041,6.9153,6.8967,6.8705,6.8551,6.8319,6.8083,6.7925,6.7719,6.7475,6.7346,6.7233,6.7286,6.7603,6.7535,6.7845,6.8699,6.846,6.8307,6.8666,6.7383,6.6812,6.7078,6.6393,6.5713,6.5147,6.5177,6.4928,6.4419,6.4769,6.4846,6.4396,6.4124,6.3965,6.3965,6.3054,6.2585,6.2619,6.2481,6.2392,6.2263,6.1827,6.1593,6.1449,6.0881,6.0927,6.1319,6.1319,6.1607,6.1823,6.0889,6.0584,6.0431,5.9637,5.9232,5.8905,5.8905,5.7595,5.602,5.5138,5.379,5.2776,5.2776,5.194,5.1099,5.0322,4.9359,4.8569,4.7773,4.6037,4.4199,4.3386,4.1386,3.9467,3.7646,3.5721,3.3722,3.1771,2.987,2.7547,2.4569,2.2642,2.0025,1.6156,1.4018,1.152,0.8113,0.6681,0.3986,-0.0731,-0.512,-0.862,-1.0871,-1.5672,-1.9373,-2.1686,-2.4163,-2.6733,-2.9005,-3.1167,-3.3258,-3.5466,-3.7416,-3.9282,-4.0965,-4.3086,-4.4684,-4.5969,-4.7602,-4.9044,-5.0322,-5.1693,-5.2307,-5.274,-5.4122,-5.4719,-5.5065,6.9376,6.9227,6.9078,6.9078,6.8663,6.8397,6.8397,6.8039,6.7799,6.7799,6.8008,6.8116,6.7895,6.8673,6.9219,6.9077,6.9016,6.8928,6.8994,6.8136,6.7529,6.7388,6.6834,6.6425,6.5875,6.5905,6.5769,6.5466,6.5099,6.5176,6.5416,6.4454,6.3965,6.3993,6.3504,6.2973,6.2646,6.292,6.2606,6.1979,6.2111,6.1914,6.1674,6.1782,6.1868,6.1894,6.1894,6.177,6.1344,6.0889,6.0431,6.0125,5.9663,5.9458,5.9433,5.9433,5.839,5.705,5.5791,5.4337,5.3317,5.3317,5.204,5.0789,5.0322,4.9201,4.8071,4.7752,4.6144,4.4658,4.3817,4.1985,3.9884,3.8044,3.5902,3.3816,3.2096,3.0191,2.7921,2.509,2.2956,2.0271,1.6499,1.4322,1.1582,0.7735,0.7197,0.4617,-0.1109,-0.5362,-0.9237,-1.2895,-1.6522,-1.941,-2.1919,-2.4252,-2.6733,-2.9005,-3.1714,-3.4111,-3.6352,-3.8576,-4.0614,-4.2307,-4.3817,-4.5128,-4.6426,-4.8071,-4.9359,-5.0299,-5.2,-5.2588,-5.2764,-5.4421,-5.5041,-5.5115,6.956,6.9487,6.934,6.9153,6.8967,6.874,6.8474,6.8241,6.8256,6.8417,6.848,6.8777,6.9474,6.9613,6.9702,6.9988,6.9727,6.9382,6.8994,6.8823,6.8267,6.7324,6.7339,6.7136,6.6543,6.6573,6.6282,6.5778,6.5624,6.5367,6.4868,6.4626,6.4405,6.4198,6.3688,6.364,6.3749,6.3406,6.3163,6.3081,6.2858,6.2524,6.2281,6.2044,6.1973,6.1973,6.1973,6.1823,6.1344,6.0889,6.0431,5.9971,5.9637,5.9483,5.9353,5.8887,5.8451,5.7761,5.6625,5.5145,5.3881,5.3881,5.2548,5.1086,5.0771,4.9421,4.8071,4.7293,4.6003,4.4718,4.3546,4.1899,4.03,3.8441,3.6428,3.4376,3.2451,3.0322,2.78,2.516,2.2831,2.0138,1.6537,1.4348,1.1792,0.8124,0.6844,0.408,-0.0933,-0.6377,-1.0717,-1.3511,-1.6849,-1.9733,-2.2151,-2.4452,-2.6868,-2.9553,-3.2134,-3.4452,-3.6715,-3.909,-4.0855,-4.2569,-4.406,-4.5352,-4.6467,-4.8251,-4.9359,-5.0299,-5.1977,-5.2588,-5.274,-5.4421,-5.5262,-5.5707,6.967,6.9598,6.9525,6.9227,6.9153,6.9002,6.8663,6.8682,6.8873,6.9072,6.9227,6.9612,7.0463,7.0364,7.0253,7.0482,7.0082,6.9673,6.9321,6.9534,6.9116,6.7935,6.7964,6.7848,6.7241,6.7241,6.6884,6.6007,6.6007,6.5621,6.48,6.4839,6.4861,6.4717,6.4055,6.4137,6.441,6.3919,6.3641,6.3433,6.3259,6.2842,6.2422,6.2123,6.1973,6.1973,6.1823,6.1521,6.1041,6.0737,6.0278,5.9817,5.9663,5.9483,5.9353,5.8599,5.831,5.8153,5.718,5.5835,5.4633,5.4469,5.2921,5.1424,5.1106,4.9613,4.7987,4.7343,4.6105,4.4554,4.3214,4.1863,4.0367,3.8666,3.6757,3.475,3.2777,3.0464,2.7902,2.5403,2.2872,2.0152,1.6689,1.4487,1.1906,0.8203,0.6718,0.3369,-0.2638,-0.7767,-1.159,-1.367,-1.704,-1.9957,-2.2374,-2.4718,-2.716,-2.9887,-3.2366,-3.4828,-3.6929,-3.9483,-4.1192,-4.2735,-4.4225,-4.5515,-4.6629,-4.8251,-4.9359,-5.0299,-5.1977,-5.2706,-5.3,-5.4689,-5.5631,-5.6274,6.967,6.9598,6.9525,6.9449,6.9227,6.9078,6.9078,6.9401,6.9609,6.9609,7.032,7.0824,7.0824,7.0893,7.0825,7.0515,7.0082,6.9905,7.0042,7.0421,7.0231,6.9207,6.8901,6.8559,6.8059,6.797,6.7365,6.6037,6.6037,6.5855,6.5433,6.5039,6.5117,6.5205,6.4694,6.4551,6.4465,6.4355,6.3873,6.3111,6.3111,6.2693,6.1973,6.1973,6.1973,6.1973,6.1495,6.1041,6.0584,6.0278,5.9792,5.9483,5.9483,5.9483,5.9353,5.8599,5.831,5.8129,5.718,5.6358,5.5574,5.508,5.3268,5.1622,5.1622,4.9934,4.8153,4.7827,4.6331,4.4554,4.3214,4.1882,4.0367,3.8666,3.6757,3.4828,3.2896,3.0602,2.8269,2.5707,2.3342,2.0575,1.7032,1.4792,1.1962,0.7989,0.6666,0.2093,-0.7055,-0.9513,-1.159,-1.367,-1.704,-2.0028,-2.2616,-2.499,-2.7534,-2.9887,-3.2705,-3.5177,-3.6929,-3.9671,-4.1714,-4.3048,-4.439,-4.5678,-4.7132,-4.8432,-4.9381,-5.0322,-5.2,-5.2917,-5.3672,-5.5224,-5.6196,-5.6737,7.0062,6.992,6.9742,6.956,6.9414,6.9402,6.9777,6.9826,7.0114,7.1065,7.1174,7.1234,7.1575,7.1464,7.1154,7.0515,7.0831,7.125,7.1585,7.097,7.0454,7.0266,6.9734,6.9023,6.797,6.797,6.7576,6.6656,6.6656,6.6341,6.5698,6.6022,6.593,6.5139,6.522,6.5044,6.4758,6.4083,6.358,6.3111,6.2842,6.2422,6.1973,6.1973,6.1823,6.1495,6.1495,6.0889,6.0278,6.0125,5.9792,5.9483,5.9483,5.9353,5.9043,5.8443,5.8129,5.7655,5.6861,5.6197,5.5668,5.5503,5.3796,5.2159,5.2159,5.0458,4.8641,4.7817,4.6532,4.4848,4.2856,4.1634,4.035,3.8186,3.6221,3.4303,3.2543,2.9873,2.7365,2.5172,2.279,2.0205,1.7032,1.4792,1.1962,0.7989,0.3424,-0.1713,-0.7246,-0.9513,-1.1626,-1.3798,-1.7577,-2.0851,-2.3061,-2.5157,-2.7715,-3.041,-3.2881,-3.5177,-3.7447,-3.9841,-4.1714,-4.3048,-4.439,-4.6025,-4.7617,-4.8908,-5.0065,-5.1333,-5.3069,-5.3811,-5.4108,-5.5783,-5.6762,-5.7383,7.0202,7.0062,6.9849,6.9598,6.9734,6.9972,7.0278,7.0566,7.1062,7.192,7.1808,7.173,7.1951,7.1776,7.1435,7.0917,7.1508,7.1887,7.2069,7.1348,7.0836,7.0613,7.0047,6.924,6.809,6.8213,6.7907,6.6921,6.7187,6.6883,6.6222,6.6622,6.636,6.5502,6.5467,6.5347,6.4889,6.4019,6.3433,6.3111,6.272,6.2422,6.1999,6.2057,6.1984,6.1706,6.1633,6.1249,6.0784,6.0629,6.0317,6.0111,5.9885,5.9523,5.916,5.8517,5.7971,5.7497,5.6566,5.606,5.5691,5.5206,5.3838,5.2652,5.2159,5.0631,4.8962,4.7962,4.6622,4.5072,4.2951,4.1714,4.026,3.8107,3.6003,3.415,3.2212,2.9414,2.7003,2.5001,2.2432,1.9648,1.7032,1.4604,1.1605,0.7275,0.1723,-0.3263,-0.7522,-0.9628,-1.175,-1.3939,-1.7947,-2.1044,-2.3263,-2.5611,-2.822,-3.0944,-3.3279,-3.5763,-3.8056,-4.0475,-4.2349,-4.3884,-4.5217,-4.6701,-4.8265,-4.9567,-5.0711,-5.176,-5.3534,-5.4304,-5.465,-5.6342,-5.7302,-5.795,7.0272,7.0062,6.992,6.9776,7.0156,7.0569,7.0675,7.1551,7.222,7.229,7.2306,7.2245,7.1985,7.1844,7.1706,7.1587,7.1986,7.2134,7.1922,7.1692,7.1171,7.0306,6.9995,6.9333,6.8061,6.8638,6.8265,6.7098,6.7717,6.7582,6.6879,6.6879,6.6477,6.589,6.5633,6.5204,6.4745,6.4019,6.3433,6.299,6.2773,6.2351,6.2104,6.2222,6.2276,6.22,6.1936,6.1824,6.1666,6.1349,6.119,6.109,6.0563,6.0072,5.9499,5.8532,5.7887,5.7387,5.6566,5.6037,5.5368,5.4579,5.3596,5.2747,5.1914,5.0752,4.928,4.8079,4.6736,4.5098,4.3173,4.1768,4.0193,3.823,3.6142,3.3978,3.2,2.9417,2.7075,2.5068,2.2307,1.9523,1.7078,1.4071,1.0711,0.6384,0.1354,-0.3498,-0.7655,-0.9794,-1.1932,-1.4085,-1.8128,-2.121,-2.3324,-2.6359,-2.9141,-3.1661,-3.4049,-3.6395,-3.8906,-4.1173,-4.3251,-4.515,-4.6501,-4.7693,-4.9246,-5.0556,-5.1389,-5.1895,-5.3673,-5.461,-5.5351,-5.6902,-5.7843,-5.8467,7.041,7.0272,7.0239,7.0662,7.0764,7.1071,7.2114,7.2215,7.2429,7.3021,7.2818,7.2416,7.2072,7.2498,7.2462,7.1714,7.1986,7.2331,7.2607,7.195,7.1171,7.0306,7.0433,7.0013,6.8729,6.888,6.8715,6.8484,6.8631,6.8223,6.7479,6.7479,6.6873,6.5633,6.549,6.4916,6.3873,6.3433,6.299,6.2773,6.2772,6.25,6.2248,6.2638,6.2405,6.1804,6.1774,6.1666,6.1349,6.119,6.119,6.1165,6.0537,6.0193,5.9613,5.8594,5.7807,5.7066,5.6155,5.5553,5.4905,5.3738,5.2913,5.2415,5.1914,5.0674,4.9425,4.838,4.6769,4.5048,4.331,4.1674,3.9974,3.789,3.5809,3.3764,3.1762,2.932,2.7073,2.5021,2.2387,1.9924,1.7245,1.2042,0.8185,0.6262,0.1368,-0.3523,-0.7854,-0.9989,-1.1968,-1.4226,-1.8309,-2.1486,-2.3779,-2.7245,-3.0084,-3.2028,-3.4034,-3.6574,-3.926,-4.1347,-4.3251,-4.515,-4.6501,-4.8046,-4.9571,-5.1038,-5.2101,-5.2929,-5.4719,-5.5433,-5.5687,-5.7461,-5.8187,-5.8443,7.0514,7.0661,7.0842,7.1053,7.1579,7.2096,7.2676,7.2739,7.2881,7.3264,7.2922,7.2639,7.2585,7.2873,7.2904,7.2496,7.2612,7.2685,7.2517,7.1938,7.133,7.0516,7.0745,7.0539,6.9882,6.9665,6.937,6.8897,6.906,6.8585,6.7679,6.7569,6.6735,6.549,6.549,6.4772,6.3753,6.3579,6.3266,6.3046,6.3145,6.292,6.2664,6.2921,6.268,6.2256,6.2189,6.213,6.1969,6.1969,6.1807,6.1596,6.0974,6.0415,5.9854,5.8969,5.8175,5.7265,5.6395,5.5579,5.4879,5.3476,5.2581,5.1914,5.1244,5.0231,4.9059,4.8027,4.6638,4.5002,4.3188,4.171,4.0027,3.7841,3.5669,3.3553,3.171,2.9365,2.6876,2.4608,2.2135,1.9071,1.5035,1.0565,0.6874,0.4739,0.079,-0.3561,-0.8155,-1.0123,-1.2316,-1.4756,-1.8686,-2.167,-2.392,-2.7611,-3.0518,-3.2645,-3.4875,-3.7446,-3.9984,-4.1922,-4.3834,-4.5758,-4.7297,-4.8796,-5.0207,-5.1708,-5.2854,-5.3596,-5.5044,-5.5876,-5.6197,-5.7813,-5.8599,-5.9043,7.0693,7.1089,7.1482,7.1478,7.2427,7.3082,7.2992,7.3158,7.3334,7.3334,7.2922,7.2777,7.3098,7.314,7.3274,7.3473,7.3335,7.2972,7.2014,7.1817,7.1505,7.0785,7.0949,7.1007,7.0914,7.0658,6.9952,6.9073,6.9177,6.8741,6.7679,6.7293,6.6483,6.549,6.549,6.4826,6.3768,6.398,6.377,6.3449,6.3593,6.3519,6.3103,6.3197,6.3108,6.2704,6.2834,6.2822,6.2659,6.2659,6.2331,6.1928,6.1457,6.0654,6.0063,5.9364,5.854,5.7786,5.6608,5.5808,5.4842,5.3347,5.238,5.152,5.0422,4.9572,4.8544,4.7181,4.6114,4.4883,4.2909,4.1291,3.9657,3.7807,3.5544,3.3515,3.1463,2.9206,2.6805,2.4346,2.1475,1.7611,1.2184,0.9248,0.6519,0.3187,-0.0,-0.3801,-0.8266,-1.0275,-1.2668,-1.5267,-1.8821,-2.1781,-2.3931,-2.7599,-3.0674,-3.3121,-3.5756,-3.8359,-4.0583,-4.2551,-4.4491,-4.6425,-4.8179,-4.9551,-5.0569,-5.2415,-5.3431,-5.3947,-5.5206,-5.6037,-5.6702,-5.7971,-5.8887,-5.9663,7.1406,7.162,7.1979,7.2968,7.3209,7.3446,7.3807,7.3507,7.3334,7.3334,7.2755,7.2519,7.301,7.3418,7.3767,7.3973,7.3529,7.2972,7.2014,7.2298,7.2013,7.0816,7.1733,7.1721,7.0945,7.0855,7.0509,6.9722,6.9144,6.8499,6.7679,6.7014,6.6314,6.549,6.5176,6.4609,6.3911,6.399,6.3884,6.3593,6.3857,6.362,6.3248,6.3465,6.321,6.2722,6.2797,6.2495,6.2331,6.2331,6.2002,6.1506,6.1076,6.0719,6.0456,5.9093,5.8426,5.7831,5.629,5.5649,5.4862,5.302,5.2233,5.1444,4.9655,4.8887,4.8027,4.6638,4.5412,4.3978,4.2353,4.0549,3.8742,3.727,3.5182,3.3281,3.1204,2.9073,2.6749,2.4248,1.9945,1.5803,1.1828,0.9428,0.6428,0.2618,-0.0201,-0.3625,-0.827,-1.0275,-1.2668,-1.5864,-1.9026,-2.1977,-2.4515,-2.8176,-3.1041,-3.3121,-3.6112,-3.8543,-4.0583,-4.2551,-4.4491,-4.6425,-4.8179,-4.9551,-5.0569,-5.2415,-5.3431,-5.3947,-5.5206,-5.6174,-5.7132,-5.8418,-5.9353,-6.0125,7.2156,7.2691,7.3048,7.3393,7.3779,7.4052,7.4018,7.3577,7.3334,7.3334,7.31,7.3136,7.3659,7.4134,7.4272,7.3902,7.3492,7.3063,7.2375,7.2397,7.2262,7.1971,7.2083,7.1998,7.1522,7.0899,7.0397,6.9869,6.8905,6.8227,6.7679,6.6707,6.6226,6.6015,6.5382,6.4856,6.455,6.4539,6.437,6.3883,6.4297,6.4054,6.3465,6.3534,6.3148,6.2822,6.2495,6.2331,6.2167,6.1837,6.1506,6.1008,6.0841,6.0507,5.9931,5.938,5.8634,5.7863,5.6652,5.5836,5.4871,5.3356,5.2003,5.0716,4.93,4.8016,4.6987,4.6114,4.4883,4.3444,4.1814,4.0203,3.8575,3.673,3.4853,3.2786,3.0687,2.8776,2.6067,2.2172,1.8434,1.4862,1.1673,0.9063,0.6047,0.222,-0.0202,-0.363,-0.8062,-1.0271,-1.2868,-1.6467,-1.9224,-2.1977,-2.4709,-2.8368,-3.1041,-3.3121,-3.6127,-3.8726,-4.0583,-4.2551,-4.4491,-4.6425,-4.8179,-4.9721,-5.0907,-5.2415,-5.3596,-5.4579,-5.5368,-5.6494,-5.7789,-5.8575,-5.9353,-6.0125]},{"header":{"parameterUnit":"m.s-1","parameterCategory":1,"la1":30.6,"la2":28.766,"lo1":-90.7593,"lo2":-88.6598,"dy":0.0162,"dx":0.0183,"nx":116,"ny":114,"refTime":"2024-03-21T18:00:00:Z","depth":0,"parameterNumber":3,"parameterNumberName":"V-component_of_WINDS"},"data":[0.0,0.0,0.0,0.0,0.0,0.0,0.0,0.0,0.0,0.0,0.0,0.0,0.0,0.0,0.0,0.0,0.0,0.0,0.0,0.0,0.0,0.0,0.0,0.0,0.0,0.0,0.0,0.0,0.0,0.0,0.0,0.0,0.0,0.0,0.0,0.0,0.0,0.0,0.0,0.0,0.0,0.0,0.0,0.0,0.0,0.0,0.0,0.0,0.0,0.0,0.0,0.0,0.0,0.0,0.0,0.0,0.0,0.0,0.0,0.0,0.0,0.0,0.0,0.0,0.0,0.0,0.0,0.0,0.0,0.0,0.0,0.0,0.0,0.0,0.0,0.0,0.0,0.0,0.0,0.0,0.0,0.0,0.0,0.0,0.0,0.0,0.0,0.0,0.0,0.0,0.0,0.0,0.0,0.0,0.0,0.0,0.0,0.0,0.0,0.0,0.0,0.0,0.0,0.0,0.0,0.0,0.0,0.0,0.0,0.0,0.0,0.0,0.0,0.0,0.0,0.0,0.0,0.0,0.0,0.0,0.0,0.0,0.0,0.0,0.0,0.0,0.0,0.0,0.0,0.0,0.0,0.0,0.0,0.0,0.0,0.0,0.0,0.0,0.0,0.0,0.0,0.0,0.0,0.0,0.0,0.0,0.0,0.0,0.0,0.0,0.0,0.0,0.0,0.0,0.0,0.0,0.0,0.0,0.0,0.0,0.0,0.0,0.0,0.0,0.0,0.0,0.0,0.0,0.0,0.0,0.0,0.0,0.0,0.0,0.0,0.0,0.0,0.0,0.0,0.0,0.0,0.0,0.0,0.0,0.0,0.0,0.0,0.0,0.0,0.0,0.0,0.0,0.0,0.0,0.0,0.0,0.0,0.0,0.0,0.0,0.0,0.0,0.0,0.0,0.0,0.0,0.0,0.0,0.0,0.0,0.0,0.0,0.0,0.0,0.0,0.0,0.0,0.0,0.0,0.0,0.0,0.0,0.0,0.0,0.0,0.0,0.0,0.0,0.0,0.0,0.0,0.0,0.0,0.0,0.0,0.0,0.0,0.0,0.0,0.0,0.0,0.0,0.0,0.0,0.0,0.0,0.0,0.0,0.0,0.0,0.0,0.0,0.0,0.0,0.0,0.0,0.0,0.0,0.0,0.0,0.0,0.0,0.0,0.0,0.0,0.0,0.0,0.0,0.0,0.0,0.0,0.0,0.0,0.0,0.0,0.0,0.0,0.0,0.0,0.0,0.0,0.0,0.0,0.0,0.0,0.0,0.0,0.0,0.0,0.0,0.0,0.0,0.0,0.0,0.0,0.0,0.0,0.0,0.0,0.0,0.0,0.0,0.0,0.0,0.0,0.0,0.0,0.0,0.0,0.0,0.0,0.0,0.0,0.0,0.0,0.0,0.0,0.0,0.0,0.0,0.0,0.0,0.0,0.0,0.0,0.0,0.0,0.0,0.0,0.0,0.0,0.0,0.0,0.0,0.0,0.0,0.0,0.0,0.0,0.0,0.0,0.0,0.0,0.0,0.0,0.0,0.0,0.0,0.0,0.0,0.0,0.0,0.0,0.0,0.0,0.0,0.0,0.0,0.0,0.0,0.0,0.0,0.0,0.0,0.0,0.0,0.0,0.0,0.0,0.0,0.0,0.0,0.0,0.0,0.0,0.0,0.0,0.0,0.0,0.0,0.0,0.0,0.0,0.0,0.0,0.0,0.0,0.0,0.0,0.0,0.0,0.0,0.0,0.0,0.0,0.0,0.0,0.0,0.0,0.0,0.0,0.0,0.0,0.0,0.0,0.0,0.0,0.0,0.0,0.0,0.0,0.0,0.0,0.0,0.0,0.0,0.0,0.0,0.0,0.0,0.0,0.0,0.0,0.0,0.0,0.0,0.0,0.0,0.0,0.0,0.0,0.0,0.0,0.0,0.0,0.0,0.0,0.0,0.0,0.0,0.0,0.0,0.0,0.0,0.0,0.0,0.0,0.0,0.0,0.0,0.0,0.0,0.0,0.0,0.0,0.0,0.0,0.0,0.0,0.0,0.0,0.0,0.0,0.0,0.0,0.0,0.0,0.0,0.0,0.0,0.0,0.0,0.0,0.0,0.0,0.0,0.0,0.0,0.0,0.0,0.0,0.0,0.0,0.0,0.0,0.0,0.0,0.0,0.0,0.0,0.0,0.0,0.0,0.0,0.0,0.0,0.0,0.0,0.0,0.0,0.0,0.0,0.0,0.0,0.0,0.0,0.0,0.0,0.0,0.0,0.0,0.0,0.0,0.0,0.0,0.0,0.0,0.0,0.0,0.0,0.0,0.0,0.0,0.0,0.0,0.0,0.0,0.0,0.0,0.0,0.0,0.0,0.0,0.0,0.0,0.0,0.0,0.0,0.0,0.0,0.0,0.0,0.0,0.0,0.0,0.0,0.0,0.0,0.0,0.0,0.0,0.0,0.0,0.0,0.0,0.0,0.0,0.0,0.0,0.0,0.0,0.0,0.0,0.0,0.0,0.0,0.0,0.0,0.0,0.0,0.0,0.0,0.0,0.0,0.0,0.0,0.0,0.0,0.0,0.0,0.0,0.0,0.0,0.0,0.0,0.0,0.0,0.0,0.0,0.0,0.0,0.0,0.0,0.0,0.0,0.0,0.0,0.0,0.0,0.0,0.0,0.0,0.0,0.0,0.0,0.0,0.0,0.0,0.0,0.0,0.0,0.0,0.0,0.0,0.0,0.0,0.0,0.0,0.0,0.0,0.0,0.0,0.0,0.0,0.0,0.0,0.0,0.0,0.0,0.0,0.0,0.0,0.0,0.0,0.0,0.0,0.0,0.0,0.0,0.0,0.0,0.0,0.0,0.0,0.0,0.0,0.0,0.0,0.0,0.0,0.0,0.0,0.0,0.0,0.0,0.0,0.0,0.0,0.0,0.0,0.0,0.0,0.0,0.0,0.0,0.0,0.0,0.0,0.0,0.0,0.0,0.0,0.0,0.0,0.0,0.0,0.0,0.0,0.0,0.0,0.0,0.0,0.0,0.0,0.0,0.0,0.0,0.0,0.0,0.0,0.0,0.0,0.0,0.0,0.0,0.0,0.0,0.0,0.0,0.0,0.0,0.0,0.0,0.0,0.0,0.0,0.0,0.0,0.0,0.0,0.0,0.0,0.0,0.0,0.0,0.0,0.0,0.0,0.0,0.0,0.0,0.0,0.0,0.0,0.0,0.0,0.0,0.0,0.0,0.0,0.0,0.0,0.0,0.0,0.0,0.0,0.0,0.0,0.0,0.0,0.0,0.0,0.0,0.0,0.0,0.0,0.0,0.0,0.0,0.0,0.0,0.0,0.0,0.0,0.0,0.0,0.0,0.0,0.0,0.0,0.0,0.0,0.0,0.0,0.0,0.0,0.0,0.0,0.0,0.0,0.0,0.0,0.0,0.0,0.0,0.0,0.0,0.0,0.0,0.0,0.0,0.0,0.0,0.0,0.0,0.0,0.0,0.0,0.0,0.0,0.0,0.0,0.0,0.0,0.0,0.0,0.0,0.0,0.0,0.0,0.0,0.0,0.0,0.0,0.0,0.0,0.0,0.0,0.0,0.0,0.0,0.0,0.0,0.0,0.0,0.0,0.0,0.0,0.0,0.0,0.0,0.0,0.0,0.0,0.0,0.0,0.0,0.0,0.0,0.0,0.0,0.0,0.0,0.0,0.0,0.0,0.0,0.0,0.0,0.0,0.0,0.0,0.0,0.0,0.0,0.0,0.0,0.0,0.0,0.0,0.0,0.0,0.0,0.0,0.0,0.0,0.0,0.0,0.0,0.0,0.0,0.0,0.0,0.0,0.0,0.0,0.0,0.0,0.0,0.0,0.0,0.0,0.0,0.0,0.0,0.0,0.0,0.0,0.0,0.0,0.0,0.0,0.0,0.0,0.0,0.0,0.0,0.0,0.0,0.0,0.0,0.0,0.0,0.0,0.0,0.0,0.0,0.0,0.0,0.0,0.0,0.0,0.0,0.0,0.0,0.0,0.0,0.0,0.0,0.0,0.0,0.0,0.0,0.0,0.0,0.0,0.0,0.0,0.0,0.0,0.0,0.0,0.0,0.0,0.0,0.0,0.0,0.0,0.0,0.0,0.0,0.0,0.0,0.0,0.0,0.0,0.0,0.0,0.0,0.0,0.0,0.0,0.0,0.0,0.0,0.0,0.0,0.0,0.0,0.0,0.0,0.0,0.0,0.0,0.0,0.0,0.0,0.0,0.0,0.0,0.0,0.0,0.0,0.0,0.0,0.0,0.0,0.0,0.0,0.0,0.0,0.0,0.0,0.0,0.0,0.0,0.0,0.0,0.0,0.0,0.0,0.0,0.0,0.0,0.0,0.0,0.0,0.0,0.0,0.0,0.0,0.0,0.0,0.0,0.0,0.0,0.0,0.0,0.0,0.0,0.0,0.0,0.0,0.0,0.0,0.0,0.0,0.0,0.0,0.0,0.0,0.0,0.0,0.0,0.0,0.0,0.0,0.0,0.0,0.0,0.0,0.0,0.0,0.0,0.0,0.0,0.0,0.0,0.0,0.0,0.0,0.0,0.0,0.0,0.0,0.0,0.0,0.0,0.0,0.0,0.0,0.0,0.0,0.0,0.0,0.0,0.0,0.0,0.0,0.0,0.0,0.0,0.0,0.0,0.0,0.0,0.0,0.0,0.0,0.0,0.0,0.0,0.0,0.0,0.0,0.0,0.0,0.0,0.0,0.0,0.0,0.0,0.0,0.0,0.0,0.0,0.0,0.0,0.0,0.0,0.0,0.0,0.0,0.0,0.0,0.0,0.0,0.0,0.0,0.0,0.0,0.0,0.0,0.0,0.0,0.0,0.0,0.0,0.0,0.0,0.0,0.0,0.0,0.0,0.0,0.0,0.0,0.0,0.0,0.0,0.0,0.0,0.0,0.0,0.0,0.0,0.0,0.0,0.0,0.0,0.0,0.0,0.0,0.0,0.0,0.0,0.0,0.0,0.0,0.0,0.0,0.0,0.0,0.0,0.0,0.0,0.0,0.0,0.0,0.0,0.0,0.0,0.0,0.0,0.0,0.0,0.0,0.0,0.0,0.0,0.0,0.0,0.0,0.0,0.0,0.0,0.0,0.0,0.0,0.0,0.0,0.0,0.0,0.0,0.0,0.0,0.0,0.0,0.0,0.0,0.0,0.0,0.0,0.0,0.0,0.0,0.0,0.0,0.0,0.0,0.0,0.0,0.0,0.0,0.0,0.0,0.0,0.0,0.0,0.0,0.0,0.0,0.0,0.0,0.0,0.0,0.0,0.0,0.0,0.0,0.0,0.0,0.0,0.0,0.0,0.0,0.0,0.0,0.0,0.0,0.0,0.0,0.0,0.0,0.0,0.0,0.0,0.0,0.0,0.0,0.0,0.0,0.0,0.0,0.0,0.0,0.0,0.0,0.0,0.0,0.0,0.0,0.0,0.0,0.0,0.0,0.0,0.0,0.0,0.0,0.0,0.0,0.0,0.0,0.0,0.0,0.0,0.0,0.0,0.0,0.0,0.0,0.0,0.0,0.0,0.0,0.0,0.0,0.0,0.0,0.0,0.0,0.0,0.0,0.0,0.0,0.0,0.0,0.0,0.0,0.0,0.0,0.0,0.0,0.0,0.0,0.0,0.0,0.0,0.0,0.0,0.0,0.0,0.0,0.0,0.0,0.0,0.0,0.0,0.0,0.0,0.0,0.0,0.0,0.0,0.0,0.0,0.0,0.0,0.0,0.0,0.0,0.0,0.0,0.0,0.0,0.0,0.0,0.0,0.0,0.0,0.0,0.0,0.0,0.0,0.0,0.0,0.0,0.0,0.0,0.0,0.0,0.0,0.0,0.0,0.0,0.0,0.0,0.0,0.0,0.0,0.0,0.0,0.0,0.0,0.0,0.0,0.0,0.0,0.0,0.0,0.0,0.0,0.0,0.0,0.0,0.0,0.0,0.0,0.0,0.0,0.0,0.0,0.0,0.0,0.0,0.0,0.0,0.0,0.0,0.0,0.0,0.0,0.0,0.0,0.0,0.0,0.0,0.0,0.0,0.0,0.0,0.0,0.0,0.0,0.0,0.0,0.0,0.0,0.0,-6.3825,-6.3159,0.0,0.0,0.0,0.0,0.0,0.0,0.0,0.0,0.0,0.0,0.0,0.0,0.0,0.0,0.0,0.0,0.0,0.0,0.0,0.0,0.0,0.0,0.0,0.0,0.0,0.0,-4.1686,-4.2103,-4.3001,-4.3904,-4.4812,-4.5656,-4.664,-4.7267,-4.7335,-4.7571,-4.777,-4.7968,-4.8098,-4.842,-4.8769,-4.8267,-4.7875,-4.7477,0.0,0.0,0.0,0.0,0.0,0.0,0.0,0.0,0.0,0.0,0.0,0.0,0.0,0.0,0.0,0.0,0.0,0.0,0.0,0.0,0.0,0.0,0.0,0.0,0.0,0.0,0.0,0.0,0.0,0.0,0.0,0.0,0.0,0.0,0.0,0.0,0.0,0.0,0.0,0.0,0.0,0.0,0.0,0.0,0.0,0.0,0.0,0.0,0.0,0.0,0.0,0.0,0.0,0.0,0.0,0.0,0.0,0.0,0.0,0.0,0.0,0.0,0.0,0.0,0.0,0.0,0.0,0.0,0.0,0.0,-6.4158,-6.3243,0.0,0.0,0.0,0.0,0.0,0.0,0.0,0.0,0.0,0.0,0.0,0.0,0.0,0.0,0.0,0.0,0.0,0.0,0.0,0.0,0.0,0.0,0.0,-4.1055,-4.1256,-4.1323,-4.1582,-4.2129,-4.3027,-4.3962,-4.4802,-4.5713,-4.6669,-4.7098,-4.7167,-4.7437,-4.7638,-4.7704,-4.8033,-4.8356,-4.8769,-4.8984,-4.8643,-4.7832,-4.7864,0.0,0.0,0.0,0.0,0.0,0.0,0.0,0.0,0.0,0.0,0.0,0.0,0.0,0.0,0.0,0.0,0.0,0.0,0.0,0.0,0.0,0.0,0.0,0.0,0.0,0.0,0.0,0.0,0.0,0.0,0.0,0.0,0.0,0.0,0.0,0.0,0.0,0.0,0.0,0.0,0.0,0.0,0.0,0.0,0.0,0.0,0.0,0.0,0.0,0.0,0.0,0.0,0.0,0.0,0.0,0.0,0.0,0.0,0.0,0.0,0.0,0.0,0.0,-7.0735,-7.0163,-6.9514,-6.8114,-6.7075,-6.6309,-6.4427,-6.3105,-6.2223,-6.1043,0.0,0.0,0.0,0.0,0.0,0.0,0.0,0.0,0.0,0.0,0.0,0.0,0.0,0.0,0.0,0.0,0.0,0.0,0.0,-3.9098,-4.0659,-4.1018,-4.1153,-4.1323,-4.2023,-4.2889,-4.379,-4.4559,-4.5368,-4.6421,-4.662,-4.6823,-4.7167,-4.7235,-4.737,-4.7704,-4.8033,-4.8292,-4.8547,-4.8769,-4.8917,-4.8984,-4.8747,-4.8722,-4.882,0.0,0.0,0.0,0.0,0.0,0.0,0.0,0.0,0.0,0.0,0.0,0.0,0.0,0.0,0.0,0.0,0.0,0.0,0.0,0.0,0.0,0.0,0.0,0.0,0.0,0.0,0.0,0.0,0.0,0.0,0.0,0.0,0.0,0.0,0.0,0.0,0.0,0.0,0.0,0.0,0.0,-6.5807,-6.7535,0.0,0.0,0.0,0.0,0.0,0.0,0.0,0.0,0.0,0.0,0.0,0.0,0.0,-7.1937,-7.1761,-7.1329,-7.0944,-7.0428,-6.987,-6.9332,-6.8625,-6.7807,-6.6919,-6.5947,-6.4804,0.0,-6.1718,-6.0173,0.0,0.0,0.0,0.0,0.0,0.0,0.0,0.0,0.0,0.0,0.0,0.0,0.0,0.0,0.0,0.0,0.0,0.0,0.0,0.0,0.0,-4.0882,-4.1117,-4.1153,-4.2149,-4.3047,-4.3781,-4.4548,-4.5387,-4.6262,-4.6545,-4.6652,-4.6892,-4.7098,-4.737,-4.7704,-4.8033,-4.8227,-4.8356,-4.8644,-4.8894,-4.9107,-4.9129,-4.9344,-4.9504,-4.902,0.0,0.0,0.0,0.0,0.0,0.0,0.0,0.0,0.0,0.0,0.0,0.0,0.0,0.0,0.0,0.0,0.0,0.0,0.0,0.0,0.0,0.0,0.0,0.0,0.0,0.0,0.0,0.0,0.0,0.0,0.0,0.0,0.0,0.0,0.0,0.0,0.0,0.0,0.0,-6.5849,-6.7225,-6.7991,-6.8483,-6.907,0.0,0.0,0.0,0.0,0.0,0.0,0.0,0.0,0.0,-7.2241,-7.1874,-7.1704,-7.1813,-7.1272,-7.1011,-7.0975,-7.0211,-6.9435,-6.8682,-6.7326,-6.6213,-6.5264,-6.3869,-6.2543,-6.1212,-6.0096,-5.8885,-5.756,0.0,0.0,0.0,0.0,-5.1116,-5.0026,0.0,0.0,0.0,0.0,0.0,0.0,0.0,0.0,0.0,0.0,0.0,0.0,-4.0385,-4.0814,-4.1112,-4.1336,-4.2265,-4.3163,-4.3895,-4.4732,-4.5469,-4.608,-4.6333,-4.6512,-4.6582,-4.7123,-4.7564,-4.7901,-4.8365,-4.8663,-4.8794,-4.915,-4.9342,-4.9531,-4.9869,-4.9966,-4.9849,-4.9639,-4.9707,-4.9853,0.0,0.0,0.0,0.0,0.0,0.0,0.0,0.0,0.0,0.0,0.0,0.0,0.0,0.0,0.0,0.0,0.0,0.0,0.0,0.0,0.0,0.0,0.0,0.0,0.0,0.0,0.0,0.0,0.0,0.0,0.0,0.0,0.0,0.0,0.0,0.0,0.0,-6.7148,-6.8261,-6.8703,-6.9226,-6.998,0.0,0.0,0.0,0.0,0.0,0.0,-7.3101,-7.2738,-7.2528,-7.2598,-7.2134,-7.2043,-7.2392,-7.1824,-7.1547,-7.1621,-7.0734,-6.9836,-6.9003,-6.7386,-6.612,-6.5171,-6.3498,-6.207,-6.1025,-6.017,-5.8877,-5.7294,-5.5584,-5.4182,-5.2834,-5.1494,-5.0549,-4.9967,0.0,0.0,0.0,0.0,0.0,0.0,0.0,0.0,0.0,0.0,0.0,-3.9031,-4.0385,-4.0677,-4.1131,-4.1991,-4.2887,-4.3717,-4.4622,-4.5349,-4.5832,-4.6112,-4.6223,-4.6404,-4.6582,-4.7577,-4.8213,-4.8453,-4.9381,-4.9986,-5.0292,-5.0526,-5.0725,-5.0921,-5.1244,-5.0741,-4.9708,-5.0022,-5.025,-5.0349,-4.9853,0.0,0.0,0.0,0.0,0.0,0.0,0.0,0.0,0.0,0.0,0.0,0.0,0.0,0.0,0.0,0.0,0.0,0.0,0.0,0.0,0.0,0.0,0.0,0.0,0.0,0.0,0.0,0.0,0.0,0.0,0.0,0.0,0.0,0.0,0.0,0.0,0.0,0.0,-7.0279,-7.0395,0.0,0.0,0.0,0.0,-7.3311,-7.3022,-7.3069,-7.3456,-7.3037,-7.3297,-7.4509,-7.3979,-7.3839,-7.4066,-7.3428,-7.2758,-7.2044,-7.1147,-7.0326,-6.9457,-6.8479,-6.7372,-6.6157,-6.435,-6.2871,-6.1483,-6.0042,-5.8807,-5.7607,-5.5887,-5.4709,-5.3604,-5.1304,-5.0129,-4.9419,0.0,0.0,0.0,0.0,0.0,0.0,0.0,0.0,-3.7461,-3.8385,-3.8877,-3.9493,-4.0416,-4.0646,-4.1131,-4.2022,-4.2918,-4.3749,-4.4654,-4.5412,-4.5823,-4.5896,-4.608,-4.6518,-4.7291,-4.8356,-4.8996,-4.9206,-4.971,-5.005,-5.0255,-5.0593,-5.0727,-5.0859,-5.1282,-5.123,-5.0844,-5.0789,-5.0876,-5.0945,-5.046,-5.0363,0.0,0.0,0.0,0.0,0.0,0.0,0.0,0.0,0.0,0.0,0.0,0.0,0.0,0.0,0.0,0.0,0.0,0.0,0.0,0.0,0.0,0.0,0.0,0.0,0.0,0.0,0.0,0.0,0.0,0.0,0.0,0.0,0.0,0.0,0.0,0.0,0.0,-7.1159,-7.1675,0.0,-7.3351,-7.32,-7.3283,-7.3789,-7.3987,-7.4212,-7.4658,-7.4672,-7.4673,-7.4772,-7.4129,-7.3715,-7.3416,-7.2691,-7.1968,-7.1252,-7.0222,-6.9306,-6.8383,-6.7295,-6.616,-6.5012,-6.3609,-6.2364,-6.1146,-5.9737,-5.8258,-5.6643,-5.4777,-5.3666,-5.2882,-5.1304,-5.0236,-4.9576,0.0,0.0,0.0,0.0,0.0,0.0,0.0,-3.7061,-3.7738,-3.8415,-3.9093,-3.977,-4.0447,-4.0793,-4.1434,-4.2396,-4.3224,-4.4055,-4.5033,-4.5539,-4.5823,-4.5823,-4.6262,-4.6997,-4.8031,-4.903,-4.9675,-4.9889,-5.0293,-5.0636,-5.0879,-5.1192,-5.1396,-5.1463,-5.1896,-5.2126,-5.2187,-5.1754,-5.158,-5.1568,-5.1372,-5.1158,-5.099,0.0,0.0,0.0,0.0,0.0,0.0,0.0,0.0,0.0,0.0,0.0,0.0,0.0,0.0,0.0,0.0,0.0,0.0,0.0,0.0,0.0,0.0,0.0,0.0,0.0,0.0,0.0,0.0,0.0,0.0,0.0,0.0,0.0,0.0,-7.0153,-7.1327,-7.2056,-7.2763,-7.3452,-7.4108,-7.4175,-7.435,-7.4857,-7.5281,-7.5501,-7.5593,-7.5612,-7.542,-7.5068,-7.4377,-7.382,-7.3404,-7.2554,-7.1778,-7.0898,-6.9916,-6.8884,-6.7866,-6.6711,-6.5543,-6.4507,-6.3087,-6.176,-6.055,-5.9044,-5.7508,-5.5935,-5.4282,-5.3171,-5.2162,-5.091,-5.0115,-4.9456,0.0,0.0,0.0,0.0,0.0,0.0,-3.6507,-3.7092,-3.7769,-3.8446,-3.9123,-3.9801,-4.0447,-4.1186,-4.2005,-4.3114,-4.38,-4.4632,-4.576,-4.5823,-4.5823,-4.5855,-4.6884,-4.7846,-4.8739,-4.9669,-5.0204,-5.0456,-5.1361,-5.1941,-5.2119,-5.2412,-5.2694,-5.2903,-5.311,-5.3382,-5.3649,-5.2935,-5.2477,-5.2287,-5.2433,-5.2101,-5.1546,0.0,0.0,0.0,0.0,0.0,0.0,0.0,0.0,0.0,0.0,0.0,0.0,0.0,0.0,0.0,0.0,0.0,0.0,0.0,0.0,0.0,0.0,0.0,0.0,0.0,0.0,0.0,0.0,0.0,0.0,0.0,0.0,0.0,-7.0725,-7.1425,-7.2211,-7.3002,-7.3661,-7.4298,-7.4887,-7.5426,-7.5948,-7.6389,-7.6776,-7.6818,-7.6243,-7.5661,-7.5441,-7.5571,-7.4916,-7.444,-7.4252,-7.338,-7.2382,-7.1278,-7.0236,-6.9221,-6.8165,-6.6974,-6.5884,-6.4654,-6.2755,-6.1315,-5.9972,-5.8058,-5.6621,-5.5647,-5.4418,-5.2998,-5.1588,-5.0427,-4.9707,-4.9116,0.0,0.0,0.0,0.0,0.0,0.0,-3.7153,-3.78,-3.8477,-3.9154,-3.9831,-4.0324,-4.0509,-4.1186,-4.2005,-4.3114,-4.38,-4.4632,-4.576,-4.5823,-4.6013,-4.6518,-4.8031,-4.9064,-4.9256,-5.0338,-5.0983,-5.1206,-5.1623,-5.1941,-5.2119,-5.2412,-5.2624,-5.2694,-5.3041,-5.3247,-5.3382,-5.3347,-5.3341,-5.3263,-5.2544,-5.2295,-5.2136,0.0,0.0,0.0,0.0,0.0,0.0,0.0,0.0,0.0,0.0,0.0,0.0,0.0,0.0,0.0,0.0,0.0,0.0,0.0,0.0,0.0,0.0,0.0,0.0,0.0,0.0,0.0,0.0,0.0,0.0,0.0,-7.092,-7.1636,-7.1579,-7.2248,-7.325,-7.46,-7.5333,-7.5939,-7.6399,-7.6897,-7.7113,-7.6852,-7.7109,-7.7013,-7.6477,-7.6397,-7.6154,-7.5711,-7.5513,-7.5006,-7.4345,-7.3981,-7.3288,-7.2277,-7.0996,-6.9793,-6.8754,-6.6823,-6.5391,-6.4141,-6.2175,-6.0696,-5.9729,-5.823,-5.6641,-5.5263,-5.4287,-5.327,-5.2114,-5.0819,-4.9341,-4.8081,0.0,0.0,0.0,0.0,0.0,0.0,-3.74,-3.8077,-3.8754,-3.9431,-4.0108,-4.0632,-4.094,-4.1586,-4.2438,-4.355,-4.4237,-4.4945,-4.5792,-4.6076,-4.6645,-4.7624,-4.8827,-4.9629,-4.9917,-5.0747,-5.1275,-5.135,-5.1941,-5.2327,-5.2474,-5.3135,-5.3485,-5.3556,-5.3807,-5.385,-5.365,-5.3991,-5.3922,-5.3615,-5.3088,-5.2791,-5.2693,-5.2483,-5.2195,-5.1871,-5.1298,-5.1164,-5.124,-5.1105,0.0,0.0,0.0,0.0,0.0,0.0,0.0,0.0,0.0,0.0,0.0,0.0,0.0,0.0,0.0,0.0,0.0,0.0,0.0,0.0,0.0,0.0,0.0,0.0,-7.1975,-7.2767,-7.3431,-7.3875,-7.4561,-7.5776,-7.645,-7.7035,-7.7438,-7.7946,-7.8058,-7.7545,-7.7779,-7.7808,-7.7562,-7.7275,-7.6958,-7.6518,-7.6092,-7.5474,-7.4479,-7.3967,-7.3164,-7.2016,-7.0819,-6.9574,-6.839,-6.6622,-6.5213,-6.3921,-6.2186,-6.067,-5.9319,-5.7915,-5.6524,-5.5024,0.0,0.0,0.0,0.0,-4.9084,-4.7751,0.0,0.0,0.0,0.0,0.0,0.0,-3.7492,-3.82,-3.8877,-3.9554,-4.0139,-4.0786,-4.1524,-4.2202,-4.3025,-4.4143,-4.483,-4.5383,-4.5918,-4.6613,-4.7593,-4.8825,-4.9337,-4.9917,-5.0589,-5.1037,-5.1297,-5.1297,-5.2389,-5.3006,-5.3006,-5.4006,-5.4601,-5.4789,-5.4968,-5.4816,-5.4354,-5.4563,-5.433,-5.3753,-5.3819,-5.3574,-5.321,-5.3452,-5.3125,-5.2493,-5.1813,-5.1743,-5.1787,-5.1115,0.0,0.0,0.0,0.0,0.0,0.0,0.0,0.0,0.0,0.0,0.0,0.0,0.0,0.0,0.0,0.0,0.0,0.0,0.0,0.0,0.0,0.0,0.0,0.0,-7.2912,-7.4134,-7.5733,-7.5902,-7.6105,-7.6671,-7.7349,-7.7919,-7.8295,-7.8713,-7.8887,-7.8481,-7.8666,-7.8833,-7.9054,-7.8143,0.0,0.0,0.0,-7.5666,-7.4542,-7.3612,-7.2508,-7.1251,-7.0147,-6.897,-6.7753,-6.6406,-6.5084,-6.3754,-6.2428,-6.0694,-5.8934,-5.7542,-5.6132,-5.4779,-5.4155,-5.2818,-5.098,-4.9717,-4.8802,-4.7918,0.0,0.0,0.0,0.0,0.0,0.0,-3.8265,-3.8877,-3.9554,-4.0262,-4.0447,-4.0786,-4.1524,-4.2202,-4.3025,-4.4143,-4.483,-4.5603,-4.6582,-4.7782,-4.8604,-4.8889,-4.966,-5.0274,-5.0589,-5.1366,-5.1855,-5.2009,-5.2986,-5.3574,-5.3694,-5.4086,-5.4378,-5.4601,-5.4749,-5.4795,-5.4734,-5.5056,-5.4831,-5.4226,-5.4466,-5.4292,-5.3772,-5.3347,-5.3129,-5.2888,-5.2468,-5.231,-5.2264,-5.1581,-5.1507,-5.1605,-5.1068,-5.0999,0.0,0.0,0.0,0.0,0.0,0.0,0.0,0.0,0.0,0.0,0.0,0.0,0.0,0.0,0.0,0.0,0.0,0.0,0.0,-7.2782,-7.4279,-7.5696,-7.67,-7.7284,-7.7633,-7.7642,-7.8757,-7.9413,-7.9114,-7.9514,-7.9816,-7.9891,-7.9406,-7.9172,-7.9333,-7.8445,-7.7701,-7.705,-7.6737,-7.6037,-7.4878,-7.4421,-7.354,-7.2096,-7.0694,0.0,-6.8224,-6.6132,-6.4429,-6.3147,-6.12,-5.978,-5.8747,-5.6902,-5.5028,-5.324,-5.2683,-5.1729,-5.0416,-4.9328,-4.8622,-4.8184,0.0,0.0,0.0,0.0,0.0,0.0,-3.8415,-3.9093,-3.977,-4.0447,-4.0539,-4.094,-4.1986,-4.2417,-4.3148,-4.4538,-4.5477,-4.6359,-4.7308,-4.832,-4.9047,-4.9394,-4.9977,-5.0561,-5.1069,-5.1655,-5.2165,-5.2754,-5.3734,-5.4215,-5.4448,-5.504,-5.5391,-5.562,-5.5813,-5.5688,-5.5355,-5.5682,-5.5391,-5.4828,-5.4633,-5.4466,-5.426,-5.3772,-5.3528,-5.3489,-5.2984,-5.2831,-5.2788,-5.2206,-5.2138,-5.2183,-5.1934,-5.1941,-5.2212,0.0,0.0,0.0,0.0,0.0,0.0,0.0,0.0,0.0,0.0,0.0,0.0,0.0,0.0,-6.7988,-6.9121,0.0,-7.264,-7.3641,-7.5282,-7.6755,-7.7645,-7.8663,-7.9275,-7.9116,-7.9559,-8.0054,-8.0463,-8.0459,-8.0507,-8.0793,-8.0116,-7.9781,-7.9852,-7.8998,-7.8222,-7.7707,-7.7058,-7.6119,-7.4911,-7.4207,-7.3252,-7.1982,-7.0662,-6.9325,-6.8148,-6.6365,-6.4726,-6.3293,-6.1677,-6.0046,-5.8644,-5.5976,-5.3948,-5.2675,-5.199,-5.1206,-5.036,-4.9414,-4.8748,-4.8243,0.0,0.0,0.0,0.0,0.0,0.0,-3.86,-3.9277,-3.9924,-4.0447,-4.0632,-4.1217,-4.2479,-4.2725,-4.3426,-4.5036,-4.6253,-4.717,-4.7877,-4.8636,-4.9331,-4.99,-5.0089,-5.0643,-5.1581,-5.1898,-5.2552,-5.3531,-5.4403,-5.4966,-5.5123,-5.5949,-5.648,-5.668,-5.6834,-5.6578,-5.6046,-5.627,-5.6017,-5.5425,-5.4892,-5.4628,-5.4532,-5.4159,-5.3986,-5.3912,-5.3425,-5.3376,-5.3363,-5.2823,-5.2761,-5.2844,-5.2846,-5.2984,-5.3134,-5.3535,-5.3792,0.0,0.0,0.0,0.0,0.0,0.0,0.0,0.0,-6.3233,-6.4254,-6.6011,-6.7462,-6.8794,-6.9919,-7.1785,-7.3479,-7.4482,-7.6164,-7.7654,-7.8503,-7.978,-8.0642,-8.0782,-8.0485,-8.0683,-8.1576,-8.1279,-8.1188,-8.1462,-8.0761,-8.0441,-8.0526,-7.9539,-7.8804,-7.842,-7.7298,-7.6148,-7.4803,-7.3698,-7.2517,-7.125,-7.0016,-6.8741,-6.7548,-6.6198,-6.481,-6.3516,-6.1923,-6.0102,-5.8085,-5.5229,-5.3487,-5.2533,-5.1669,-5.1041,-5.0301,-4.9647,-4.8935,-4.8444,0.0,0.0,0.0,0.0,0.0,0.0,0.0,0.0,-4.0447,-4.0509,-4.1093,-4.1771,-4.2509,-4.3125,-4.392,-4.5067,-4.6649,-4.7662,-4.7877,-4.911,-4.9837,-4.9931,-4.9931,-5.0485,-5.1581,-5.23,-5.3134,-5.4276,-5.4956,-5.5474,-5.5749,-5.5974,-5.6244,-5.6447,-5.6603,-5.6724,-5.6624,-5.6811,-5.6529,-5.5862,-5.5944,-5.5324,-5.4289,-5.4291,-5.4025,-5.3749,-5.3878,-5.3973,-5.3999,-5.3272,-5.3218,-5.342,-5.2879,-5.2811,-5.3124,-5.4169,-5.455,-5.4914,-5.59,-5.71,-5.8268,-5.8848,-6.032,-6.1754,0.0,-6.3975,-6.5501,-6.6097,-6.7827,-6.9624,-7.0807,-7.2657,-7.4328,-7.539,-7.7089,-7.8553,-7.9361,-8.013,-8.1109,-8.245,-8.2273,-8.1892,-8.1537,-8.1767,-8.2007,-8.2162,-8.1459,-8.0955,-8.098,-7.9956,-7.9009,-7.798,-7.6975,-7.5737,-7.4206,-7.3044,-7.1625,-7.0016,-6.8741,-6.7427,-6.6198,-6.481,-6.3516,-6.2515,-6.0315,-5.8464,-5.6624,-5.5669,-5.4185,-5.2558,-5.2083,-5.1341,-5.0551,-4.965,-4.9248,-4.901,0.0,0.0,0.0,0.0,0.0,0.0,0.0,0.0,-4.0539,-4.0539,-4.1155,-4.1863,-4.254,-4.3673,-4.4564,-4.5129,-4.6711,-4.768,-4.7909,-4.9173,-4.9931,-4.9931,-5.0311,-5.104,-5.2061,-5.2812,-5.3792,-5.4858,-5.5198,-5.5523,-5.5799,-5.5879,-5.6086,-5.6369,-5.6447,-5.6603,-5.668,-5.6757,-5.6744,-5.6521,-5.6162,-5.5509,-5.4753,-5.4387,-5.3921,-5.345,-5.3717,-5.3849,0.0,-5.3798,-5.3822,-5.3977,-5.3914,-5.3992,-5.4206,-5.4758,-5.5213,-5.573,-5.6902,-5.8071,-5.9164,-5.9998,-6.1019,-6.214,-6.3527,-6.4711,-6.5913,-6.7314,-6.8908,-7.0422,-7.1646,-7.345,-7.515,-7.6271,-7.7933,-7.9375,-8.022,-8.091,-8.1731,-8.276,-8.2912,-8.294,-8.2949,-8.2778,-8.2737,-8.2855,-8.2068,-8.1313,-8.0804,-7.987,-7.8753,-7.7475,-7.6485,-7.5161,-7.3698,-7.2517,-7.1218,-6.9787,-6.8505,-6.7183,-6.5948,-6.4554,-6.2858,-6.1002,-5.9202,-5.794,-5.6852,-5.5346,-5.4027,-5.3025,-5.2017,-5.1153,-5.0222,-4.9866,-4.9722,-4.9479,0.0,0.0,0.0,0.0,0.0,0.0,0.0,0.0,0.0,0.0,-4.1309,-4.2202,-4.3063,-4.4167,-4.4874,-4.5129,-4.6559,-4.7603,-4.7833,-4.9095,-4.9931,-4.9931,-5.0595,-5.1452,-5.2345,-5.3259,-5.4127,-5.5113,-5.5328,-5.5523,-5.5685,-5.5766,-5.5927,-5.6244,-5.6402,-5.6447,-5.6603,-5.668,-5.6757,-5.6877,-5.6345,-5.5788,-5.5241,-5.4649,-5.4085,-5.355,-5.3585,-5.3651,-5.3783,-5.4045,-5.4175,-5.4303,-5.4655,-5.4904,-5.5053,-5.5139,-5.5695,-5.651,-5.7723,-5.8843,-5.9926,-6.0788,-6.1675,-6.2781,-6.4355,-6.544,-6.6541,-6.8224,-6.9725,-7.1145,-7.2418,-7.4083,-7.5737,-7.7078,-7.8597,-7.9883,-8.079,-8.1663,-8.2509,-8.3148,-8.3538,-8.3862,-8.4282,-8.3794,-8.3336,-8.3206,-8.2334,-8.1437,-8.0622,-7.9558,-7.842,-7.703,-7.602,-7.4671,-7.3181,-7.2014,-7.0806,-6.9588,-6.8268,-6.6939,-6.5727,-6.3908,-6.2058,-5.99,-5.8497,-5.7641,-5.721,-5.516,-5.4107,-5.3541,-5.2188,-5.1226,-5.0461,-5.0318,-5.0149,-4.9883,0.0,0.0,0.0,0.0,0.0,0.0,0.0,0.0,0.0,0.0,-4.174,-4.3063,-4.4387,-4.4541,-4.4723,-4.4874,-4.6375,-4.734,-4.7603,-4.9017,-4.9931,-4.9931,-5.0595,-5.1452,-5.2345,-5.3259,-5.4127,-5.5113,-5.5328,-5.5409,-5.5409,-5.5685,-5.5799,-5.5879,-5.6244,-5.6369,-5.6369,-5.6603,-5.668,-5.668,-5.6647,-5.6369,-5.5821,-5.5055,-5.4539,-5.4188,-5.3687,-5.3618,-5.3717,-5.3915,-5.411,-5.4303,-5.4655,-5.4904,-5.5053,-5.5139,-5.6082,-5.7269,-5.8374,-5.9501,-6.0447,-6.088,-6.236,-6.3892,-6.4472,-6.6156,-6.7679,-6.8258,-7.0039,-7.1898,-7.3224,-7.4425,-7.5835,-7.7754,-7.8923,-7.9882,-8.0782,-8.2206,-8.3403,-8.3979,-8.4348,-8.4706,-8.5037,-8.4524,-8.3854,-8.2987,-8.2206,-8.1299,-8.0175,-7.9125,-7.7996,-7.6884,-7.5546,-7.4273,-7.2867,-7.1766,-7.0438,-6.8889,-6.7578,-6.6352,-6.4996,-6.2487,-6.0755,-5.9508,-5.8355,-5.7641,-5.7235,-5.5607,-5.4672,-5.4107,-5.2744,-5.1922,-5.1393,-5.0888,-5.0388,-5.0009,0.0,0.0,0.0,0.0,0.0,0.0,0.0,0.0,0.0,0.0,0.0,0.0,0.0,0.0,0.0,0.0,-4.6222,-4.7185,-4.7603,-4.8938,-4.9773,-4.9931,-5.1037,-5.1764,-5.2099,-5.3656,-5.4557,-5.4896,-5.5278,-5.5409,-5.5409,-5.5491,-5.5604,-5.5799,-5.6086,-5.6323,-5.6369,-5.6603,-5.668,-5.668,-5.668,-5.6326,-5.5662,-5.558,-5.4935,-5.4045,0.0,-5.3822,-5.3618,-5.3717,-5.3915,-5.411,-5.4303,-5.5029,-5.5924,-5.6842,-5.7846,-5.8757,-5.9218,-6.0268,-6.1364,-6.2148,-6.3039,-6.4207,-6.5693,-6.6844,-6.7904,-6.8932,-7.0839,-7.2592,-7.3293,-7.4881,-7.669,-7.865,-7.9314,-8.0116,-8.1563,-8.2596,-8.3442,-8.4017,-8.4366,-8.4709,-8.5033,-8.4427,-8.3655,-8.2927,-8.2011,-8.1055,-7.9947,-7.8917,-7.765,-7.63,-7.5064,-7.3665,-7.2337,-7.0886,-6.9526,-6.8268,-6.6228,-6.4612,-6.3178,-6.1681,-6.048,-5.9508,-5.8239,-5.7523,-5.7235,-5.5632,-5.4697,-5.4131,-5.2768,-5.1946,-5.1441,-5.0912,-5.0554,-5.0482,0.0,0.0,0.0,0.0,0.0,0.0,0.0,0.0,0.0,0.0,0.0,0.0,0.0,0.0,0.0,0.0,0.0,-4.7076,-4.7418,-4.8859,-4.9693,-4.9931,-5.1037,-5.1764,-5.2017,-5.3573,-5.4557,-5.4813,-5.5196,-5.5409,-5.5409,-5.5409,-5.5523,-5.5685,-5.5927,-5.6086,-5.6323,-5.6525,-5.6603,-5.668,-5.668,-5.6415,-5.5984,-5.5871,-5.5322,0.0,-5.4653,-5.439,-5.4126,-5.382,-5.402,-5.4456,-5.4586,-5.549,-5.6795,-5.7903,-5.8774,-5.9476,-5.9916,-6.0974,-6.2155,-6.281,-6.3766,-6.4998,-6.6441,-6.7332,-6.8294,-6.96,-7.1409,-7.2945,-7.3658,-7.5282,-7.7137,-7.9052,-7.9502,-8.0193,-8.1968,-8.3036,-8.3735,-8.4033,-8.4605,-8.494,-8.4986,-8.4242,-8.349,-8.2867,-8.1812,-8.0768,-7.9715,-7.8587,-7.7298,-7.5892,-7.4671,-7.3252,-7.1906,-7.0469,-6.8976,-6.7183,-6.5192,-6.3573,-6.2381,-6.1138,-6.0177,-5.9368,-5.7953,-5.7379,-5.7091,-5.5632,-5.482,-5.4279,-5.2841,-5.2067,-5.1682,-5.096,-5.0837,-5.0765,0.0,0.0,0.0,0.0,0.0,0.0,0.0,0.0,0.0,0.0,0.0,0.0,0.0,0.0,0.0,0.0,0.0,0.0,-4.7263,-4.878,-4.9693,-4.9931,-5.0595,-5.129,-5.1986,-5.3095,-5.4077,-5.4813,-5.5196,-5.5409,-5.5409,-5.5409,-5.5409,-5.5409,-5.5685,-5.5927,-5.6086,-5.6323,-5.6558,-5.668,-5.668,-5.668,-5.6614,-5.5951,-5.5729,-5.5821,-5.5342,-5.5291,-5.5198,-5.4161,-5.4429,-5.5208,-5.5444,-5.6383,-5.7498,-5.8491,-5.9108,-5.9653,-6.0468,-6.1664,-6.2745,-6.3026,-6.4545,-6.6117,-6.6617,-6.7654,-6.8884,-7.0304,-7.1634,-7.299,-7.4259,-7.5619,-7.7138,-7.9019,-7.9487,-8.027,-8.1946,-8.3488,-8.43,-8.4025,-8.5036,-8.5475,-8.4803,-8.3989,-8.3264,-8.2647,-8.1574,-8.0548,-7.9558,-7.8217,-7.694,-7.5608,-7.4373,-7.294,-7.158,-7.0356,-6.8356,-6.5978,-6.4554,-6.3413,-6.2381,-6.0865,-5.9787,-5.9114,-5.7953,-5.7235,-5.6656,-5.5485,-5.5041,-5.477,-5.2986,-5.2283,-5.2139,-5.1081,-5.0954,-5.1211,0.0,0.0,0.0,0.0,0.0,0.0,0.0,0.0,0.0,0.0,0.0,0.0,0.0,0.0,0.0,0.0,0.0,0.0,-4.7263,-4.8622,-4.9501,-4.9931,-5.0595,-5.129,-5.1986,-5.3095,-5.4077,-5.4813,-5.5196,-5.5409,-5.5409,-5.5409,-5.5409,-5.5409,-5.5685,-5.5927,-5.6086,-5.6323,-5.6558,-5.668,-5.668,-5.668,-5.668,-5.6481,-5.6236,-5.5888,-5.591,-5.5727,-5.5366,-5.5277,-5.5519,-5.6098,-5.715,-5.779,-5.8263,-5.9225,-5.9791,-6.0317,-6.1282,-6.1946,-6.2737,-6.4183,-6.5207,-6.6097,-6.712,-6.7973,-6.8884,-7.0173,-7.1552,-7.2922,-7.4204,-7.6018,-7.7754,-7.9081,-7.9977,-8.0891,-8.2024,-8.3488,-8.43,-8.4025,-8.5036,-8.5475,-8.4803,-8.3989,-8.3148,-8.227,-8.1336,-8.0326,-7.9356,-7.7961,-7.6634,-7.545,-7.3869,-7.2517,-7.1218,-6.8945,-6.6846,-6.5222,-6.4066,-6.3018,-6.1951,-6.0728,-5.9787,-5.9114,-5.7953,-5.7235,-5.6801,-5.5779,-5.5337,-5.4918,-5.3546,-5.2985,-5.255,-5.1791,-5.1541,-5.1656,0.0,0.0,0.0,0.0,0.0,0.0,0.0,0.0,0.0,0.0,0.0,0.0,0.0,0.0,0.0,0.0,0.0,0.0,0.0,-4.8511,-4.9421,-4.9741,-5.0231,-5.0974,-5.1986,-5.2809,-5.3757,-5.4813,-5.5196,-5.5409,-5.5409,-5.5409,-5.5409,-5.5409,-5.5604,-5.5766,-5.6086,-5.6244,-5.648,0.0,0.0,-5.668,-5.668,-5.668,-5.6525,-5.6312,-5.6463,-5.6493,-5.6376,-5.6664,-5.6743,-5.6953,-5.8117,-5.8628,-5.8963,-5.9513,-6.0223,-6.0896,-6.1608,-6.2524,-6.3581,-6.4806,-6.5692,-6.6551,-6.7396,-6.8033,-6.8948,-7.0616,-7.1776,-7.3,-7.4631,-7.6388,-7.7965,-7.912,-8.0124,-8.1123,-8.2063,-8.3488,-8.43,-8.3938,-8.4966,-8.5398,-8.4618,-8.3922,-8.309,-8.2011,-8.1126,-8.0243,-7.9411,-7.8136,-7.6778,-7.5469,-7.4023,-7.2272,-7.0098,-6.8029,-6.6352,-6.4996,-6.3806,-6.262,-6.1546,-6.0453,-5.9508,-5.8806,-5.781,-5.7235,-5.6801,-5.5926,-5.5336,-5.4745,-5.3763,-5.3127,-5.2665,-5.1975,-5.1935,-5.2302,0.0,0.0,0.0,0.0,0.0,0.0,0.0,0.0,0.0,0.0,0.0,0.0,0.0,0.0,0.0,0.0,0.0,0.0,0.0,0.0,-4.9372,-4.9582,-4.9773,-5.0532,-5.1828,-5.2444,-5.3309,-5.4653,-5.5131,-5.5409,-5.5409,-5.5409,-5.5409,-5.5409,-5.5409,-5.5653,-5.6086,-5.6086,-5.6323,-5.668,-5.668,-5.668,-5.668,0.0,-5.668,-5.6757,-5.6911,-5.7289,-5.7662,-5.8027,-5.7834,-5.7636,-5.853,-5.8978,-5.9319,-5.952,-6.0307,-6.1265,-6.1793,-6.3208,-6.4626,-6.5105,-6.6066,-6.704,-6.7506,-6.8033,-6.9059,-7.1254,-7.2075,-7.3116,-7.5206,-7.6773,-7.8098,-7.912,-8.0241,-8.1276,-8.2063,-8.3488,-8.4242,-8.385,-8.4933,-8.5357,-8.4465,-8.3817,-8.2994,-8.1842,-8.0984,-8.0298,-7.9677,-7.8529,-7.7046,-7.5267,-7.4097,-7.1903,-6.8772,-6.7578,-6.6228,-6.4868,-6.3545,-6.2354,-6.1302,-6.0065,-5.9228,-5.8523,-5.7667,-5.7235,-5.6801,-5.5926,-5.5309,-5.4762,-5.3928,-5.3242,-5.2558,-5.2157,-5.2491,-5.2941,0.0,0.0,0.0,0.0,0.0,0.0,0.0,0.0,0.0,0.0,-4.3193,-4.3832,0.0,0.0,0.0,0.0,0.0,0.0,0.0,0.0,0.0,-4.9582,-4.9773,-5.0311,-5.1132,-5.2188,-5.3053,-5.3885,-5.4873,-5.5409,-5.5409,-5.5409,-5.5409,-5.5409,-5.5409,-5.5653,-5.6086,-5.6086,-5.6323,-5.668,-5.668,-5.668,-5.668,-5.668,-5.668,0.0,-5.6911,-5.7289,-5.7588,-5.7662,-5.7887,-5.8178,-5.8667,-5.8909,-5.9081,-5.9453,-6.0276,-6.1274,-6.2234,-6.3341,-6.445,-6.5565,-6.6222,-6.675,-6.7286,-6.7736,-6.8729,-7.1079,-7.1907,-7.2966,-7.5173,-7.7189,-7.8665,-7.922,-8.0729,-8.1933,-8.218,-8.3488,-8.4242,-8.385,-8.4933,-8.5357,-8.4465,-8.3817,-8.2935,-8.1641,-8.1382,-8.0834,-7.9627,-7.8314,-7.6301,-7.3588,-7.1807,-6.9964,-6.8148,-6.7091,-6.5882,-6.4612,-6.3413,-6.2354,-6.1302,-6.0065,-5.9228,-5.8523,-5.7667,-5.7235,-5.6801,-5.6365,-5.5601,-5.4762,-5.4502,-5.3786,-5.3097,-5.313,-5.3341,-5.3376,0.0,0.0,0.0,0.0,0.0,0.0,0.0,-4.0739,-4.1471,-4.2097,-4.294,-4.3596,-4.3832,-4.391,-4.4065,0.0,0.0,0.0,0.0,0.0,0.0,-4.9452,-4.9613,-5.0168,-5.0943,-5.1995,-5.294,-5.3693,0.0,-5.5246,-5.5409,-5.5409,-5.5409,-5.5409,-5.5409,-5.5572,-5.5927,-5.6086,-5.6244,-5.6525,-5.668,-5.668,-5.668,-5.668,-5.668,0.0,-5.6911,-5.7139,-5.7289,-5.7514,-5.7735,-5.7954,-5.849,-5.8771,-5.9047,-5.9838,-6.0734,-6.1704,-6.2877,-6.3917,-6.4918,-6.5697,-6.6207,-6.6632,-6.7174,-6.763,-6.8679,-7.0938,-7.182,-7.2888,-7.5077,-7.7246,-7.881,-7.9187,-8.0836,-8.2125,-8.218,-8.3488,-8.4242,-8.385,-8.4933,-8.5357,-8.4465,-8.3763,-8.2839,-8.1574,-8.1307,-8.0759,-7.9845,-7.7809,-7.5798,-7.3734,-7.1231,-6.9325,-6.7909,-6.6846,-6.5601,-6.4512,-6.331,-6.2086,-6.1029,-6.0065,-5.9228,-5.8523,-5.7667,-5.7235,-5.7091,-5.651,-5.5572,-5.4652,-5.4804,-5.42,-5.3394,-5.3691,-5.4022,-5.4299,0.0,0.0,0.0,0.0,0.0,0.0,0.0,-4.0601,-4.1299,-4.2041,-4.2763,-4.3329,-4.3518,-4.3596,-4.3832,0.0,0.0,0.0,0.0,0.0,0.0,0.0,0.0,0.0,-5.0753,0.0,0.0,-5.3469,-5.4613,0.0,0.0,0.0,0.0,0.0,-5.5409,-5.5523,-5.5799,-5.5927,-5.6165,0.0,0.0,-5.668,-5.668,0.0,0.0,0.0,0.0,-5.6987,-5.7063,-5.7364,-5.7514,-5.7662,-5.8205,-5.8561,-5.8942,-6.0117,-6.1086,-6.2126,-6.3236,-6.4348,-6.5282,-6.5675,-6.6083,-6.6512,-6.704,-6.756,-6.8578,-7.0795,-7.1739,-7.281,-7.501,-7.7224,-7.881,-7.917,-8.0825,-8.2203,-8.2454,-8.3605,-8.432,-8.4121,-8.5049,-8.5357,-8.4465,-8.3672,-8.2719,-8.1574,-8.0964,-8.0422,-7.9658,-7.7279,-7.5209,-7.3881,-7.1213,-6.9093,-6.7668,-6.6446,-6.5348,-6.4354,-6.3046,-6.1844,-6.0865,-5.9927,-5.9228,-5.8523,-5.781,-5.7523,-5.7523,-5.6801,-5.5854,-5.4845,-5.5152,-5.4606,-5.3614,-5.4132,-5.4537,-5.4942,0.0,0.0,0.0,0.0,0.0,0.0,0.0,-4.082,-4.1292,-4.2452,-4.2871,-4.3061,-4.3061,-4.3438,-4.3754,0.0,0.0,0.0,0.0,0.0,0.0,0.0,0.0,0.0,0.0,0.0,0.0,-5.2813,-5.4356,0.0,0.0,0.0,0.0,0.0,0.0,-5.5523,-5.5799,-5.5799,0.0,0.0,0.0,0.0,0.0,0.0,0.0,0.0,0.0,-5.6834,-5.6987,-5.7063,-5.7289,-5.7662,-5.7881,-5.8205,-5.8768,-5.9908,-6.0912,-6.1884,-6.3031,-6.4007,-6.4843,-6.5379,-6.5768,-6.6207,-6.6867,-6.7341,-6.832,-7.0611,-7.1606,-7.2692,-7.4974,-7.7224,-7.881,-7.917,-8.0825,-8.2402,-8.3274,-8.3956,-8.4553,-8.4933,-8.5395,-8.5357,-8.4465,-8.3672,-8.2719,-8.1574,-8.0643,-7.9623,-7.8456,-7.6842,-7.498,-7.281,-7.0474,-6.8623,-6.7121,-6.6103,-6.5094,-6.4095,-6.2914,-6.1979,-6.1166,-6.0065,-5.9368,-5.8947,-5.8212,-5.7784,-5.7784,-5.7523,-5.6571,-5.5574,-5.5574,-5.4996,-5.3997,-5.4697,-5.5099,-5.5075,0.0,0.0,0.0,0.0,0.0,0.0,-4.0149,-4.0539,-4.1087,-4.2379,-4.2688,-4.285,-4.2981,-4.317,-4.3409,-4.3754,0.0,0.0,0.0,0.0,0.0,0.0,0.0,0.0,0.0,0.0,-5.1851,-5.2507,-5.3661,0.0,0.0,0.0,0.0,0.0,0.0,-5.5409,-5.5604,-5.5685,0.0,0.0,0.0,0.0,0.0,0.0,0.0,0.0,0.0,0.0,-5.6834,-5.6987,-5.7139,-5.7289,-5.7588,-5.7881,-5.8481,-6.0213,-6.1047,-6.1778,-6.338,-6.4288,-6.4775,-6.5282,-6.5704,-6.611,-6.6655,-6.723,-6.8268,-7.0549,-7.147,-7.257,-7.4828,-7.7061,-7.8722,-7.9095,-8.0818,-8.2417,-8.3354,-8.4005,-8.4591,-8.5049,-8.5401,-8.5278,-8.4465,-8.3545,-8.2527,-8.1507,-8.0113,-7.8844,-7.7841,-7.6465,-7.4659,-7.2381,-7.0245,-6.8386,-6.6999,-6.5853,-6.4839,-6.3965,-6.262,-6.1816,-6.1302,-6.0065,-5.9368,-5.9114,-5.8212,-5.7927,-5.7901,-5.7138,-5.6406,-5.5688,-5.5606,-5.5125,-5.4671,-5.5232,-5.5393,-5.5519,0.0,0.0,0.0,0.0,0.0,-3.887,-3.9944,-4.045,-4.1084,-4.2164,-4.2474,-4.2688,-4.285,-4.293,-4.317,-4.3438,-4.4961,0.0,0.0,0.0,0.0,0.0,0.0,0.0,0.0,0.0,-5.1484,-5.2377,-5.3291,-5.4159,0.0,0.0,-5.5409,-5.5409,0.0,0.0,0.0,0.0,0.0,0.0,0.0,0.0,0.0,0.0,0.0,0.0,0.0,0.0,0.0,0.0,0.0,-5.7063,-5.7364,-5.7588,-5.8186,-6.0267,-6.1002,-6.1634,-6.3549,-6.4251,-6.4672,-6.5082,-6.551,-6.5985,-6.6536,-6.7061,-6.8108,-7.0397,-7.1331,-7.2444,-7.4676,-7.6958,-7.8632,-7.902,-8.0779,-8.2514,-8.3706,-8.4171,-8.4668,-8.5423,-8.5483,-8.5238,-8.4465,-8.3169,-8.198,-8.1165,-7.9686,-7.8248,-7.7075,-7.5823,-7.4118,-7.1983,-6.9921,-6.8298,-6.6999,-6.5601,-6.4612,-6.3965,-6.2487,-6.1681,-6.1438,-6.0204,-5.9508,-5.9228,-5.8355,-5.807,-5.8018,-5.7165,-5.6622,-5.6193,-5.5898,-5.5595,-5.5498,-5.5868,-5.6019,-5.5942,0.0,0.0,0.0,0.0,0.0,0.0,-4.0002,-4.067,-4.1337,-4.2005,-4.2228,-4.2392,-4.2392,-4.2769,-4.2981,-4.2981,-4.4638,0.0,0.0,0.0,0.0,0.0,0.0,0.0,0.0,0.0,-5.1484,-5.2377,-5.3291,-5.4159,-5.5113,-5.536,-5.5409,-5.5409,0.0,0.0,0.0,0.0,0.0,0.0,0.0,0.0,-5.6086,0.0,0.0,0.0,0.0,0.0,0.0,0.0,0.0,0.0,0.0,-5.7289,-5.7965,-5.9824,-6.0711,-6.1384,-6.3078,-6.3892,-6.4322,-6.4878,-6.5247,-6.5704,-6.6355,-6.6831,-6.7872,-7.0206,-7.12,-7.2321,-7.4638,-7.6958,-7.8632,-7.902,-8.0779,-8.2748,-8.4526,-8.4551,-8.4863,-8.6236,-8.5829,-8.5238,-8.4465,-8.2499,-8.0948,-8.0339,-7.9234,-7.7892,-7.6072,-7.4959,-7.3371,-7.1218,-6.9672,-6.8298,-6.6999,-6.5601,-6.4612,-6.3965,-6.2487,-6.1789,-6.1789,-6.0315,-5.9648,-5.9508,-5.8806,-5.8523,-5.847,-5.7895,-5.7598,-5.7267,-5.6686,-5.6372,-5.6132,-5.6915,-5.6794,-5.617,0.0,0.0,0.0,0.0,0.0,0.0,0.0,-4.0458,-4.1175,-4.2005,-4.2175,-4.2257,-4.2392,-4.2607,-4.3027,-4.3634,-4.4907,0.0,0.0,0.0,0.0,0.0,0.0,0.0,0.0,-4.9833,-5.0736,-5.2099,-5.2568,-5.3547,-5.4896,-5.5113,-5.5278,-5.5409,-5.5409,-5.5409,0.0,0.0,0.0,0.0,0.0,-5.5572,-5.5653,0.0,0.0,0.0,0.0,0.0,0.0,0.0,0.0,0.0,0.0,0.0,0.0,-5.8841,-5.9892,-6.0984,-6.2419,-6.3293,-6.3965,-6.4637,-6.5046,-6.5474,-6.6136,-6.6772,-6.7872,-7.0206,-7.1141,-7.2228,-7.4676,-7.6925,-7.8552,-7.9039,-8.08,-8.2717,-8.449,-8.4596,-8.4961,-8.6275,-8.5399,-8.4341,-8.3264,-8.2003,-8.0948,-8.0339,-7.8624,-7.7124,-7.6039,-7.4291,-7.2563,-7.0917,-6.9557,-6.8298,-6.6999,-6.5601,-6.4612,-6.3965,-6.2487,-6.1789,-6.1789,-6.0591,-5.9927,-5.9648,-5.9088,-5.871,-5.8289,-5.7709,-5.7267,-5.709,-5.6505,-5.6423,-5.6861,-5.6584,-5.6549,-5.6541,0.0,0.0,0.0,0.0,0.0,0.0,0.0,-4.0469,-4.1353,-4.1868,-4.2009,-4.2175,-4.2228,-4.2474,-4.2953,-4.3767,-4.4863,0.0,0.0,0.0,0.0,0.0,0.0,0.0,-4.921,-4.9452,-5.0228,-5.1474,-5.2055,-5.3031,-5.423,-5.4768,-5.5113,-5.5278,-5.5278,-5.5328,0.0,0.0,0.0,0.0,-5.5409,-5.5409,-5.5409,0.0,0.0,0.0,0.0,0.0,0.0,0.0,0.0,0.0,0.0,0.0,0.0,0.0,-5.8908,-6.0204,-6.1821,-6.2733,-6.3366,-6.4358,-6.4843,-6.5278,-6.5985,-6.6595,-6.7668,-7.0048,-7.1032,-7.2177,-7.456,-7.6824,-7.8535,-7.8998,-8.0753,-8.2689,-8.4453,-8.4584,-8.487,-8.5861,-8.4957,-8.387,-8.2708,-8.1605,-8.0692,-7.9914,-7.8067,-7.6597,-7.5637,-7.3928,-7.223,-7.0726,-6.9588,-6.8298,-6.6999,-6.5601,-6.4612,-6.3965,-6.2487,-6.1789,-6.1789,-6.0728,-6.0039,-5.9761,-5.9269,-5.8673,0.0,-5.7456,-5.733,-5.7329,-5.6739,-5.6915,-5.7478,-5.7102,-5.6996,-5.6996,0.0,0.0,0.0,0.0,0.0,0.0,0.0,-4.0732,-4.1702,-4.1702,-4.1897,-4.2092,-4.2092,-4.2228,-4.2737,-4.3661,0.0,0.0,0.0,0.0,0.0,0.0,0.0,0.0,-4.8996,-4.9372,-4.9958,-5.0681,-5.1783,-5.2727,-5.3426,-5.4294,-5.4864,-5.5113,-5.5113,-5.5196,-5.5328,-5.5328,-5.5328,-5.5328,-5.5328,-5.5328,0.0,0.0,0.0,0.0,0.0,0.0,0.0,0.0,0.0,0.0,0.0,0.0,0.0,0.0,0.0,0.0,0.0,-6.2027,-6.2741,-6.4007,-6.4637,-6.5114,-6.5796,-6.6355,0.0,-6.9761,-7.0796,-7.2041,-7.444,-7.6794,-7.8479,-7.8998,-8.0742,-8.2647,-8.4453,-8.465,-8.4804,-8.5246,-8.4597,-8.3726,-8.2708,-8.1401,-8.0179,-7.924,-7.765,-7.6241,-7.4902,-7.3595,-7.223,-7.0726,-6.9588,-6.8298,-6.6999,-6.5601,-6.4612,-6.3965,-6.2487,-6.1789,-6.1789,-6.0728,-6.015,-6.0096,-5.912,-5.8689,-5.8529,-5.7437,-5.7488,-5.7906,-5.752,-5.7661,-5.8186,-5.8171,-5.78,-5.7422,0.0,0.0,0.0,0.0,0.0,0.0,0.0,0.0,0.0,0.0,-4.1785,-4.1897,-4.2092,-4.2228,-4.286,0.0,0.0,0.0,0.0,0.0,0.0,0.0,0.0,0.0,-4.8996,-4.9078,-4.9665,-5.0681,-5.1505,-5.2365,-5.3426,-5.4178,-5.4613,-5.4896,-5.4896,-5.4896,-5.4948,-5.4948,-5.4948,-5.4948,-5.4948,-5.4948,0.0,0.0,0.0,0.0,-5.5113,-5.5196,0.0,0.0,0.0,0.0,0.0,0.0,0.0,0.0,-5.6967,-5.753,-5.9194,0.0,-6.2301,-6.3466,-6.4145,-6.4671,0.0,-6.5985,-6.7207,-6.9577,-7.0745,-7.2041,-7.4396,-7.6759,-7.845,-7.8889,-8.0668,-8.2635,-8.4452,-8.5439,-8.5815,-8.5361,-8.4597,-8.3726,-8.2708,-8.1401,-8.0179,-7.8963,-7.744,-7.5926,-7.4671,-7.3285,-7.1906,-7.0356,-6.9441,-6.8298,-6.6999,-6.5601,-6.4612,-6.3965,-6.2487,-6.1789,-6.1789,-6.1029,-6.0237,-5.9505,-5.9207,-5.8644,-5.7785,-5.7755,-5.777,-5.7751,-5.7871,-5.802,-5.8143,-5.765,-5.7752,-5.7945,0.0,0.0,0.0,0.0,0.0,0.0,0.0,0.0,0.0,0.0,0.0,0.0,0.0,0.0,0.0,0.0,0.0,0.0,0.0,0.0,0.0,0.0,0.0,-4.8385,-4.8635,-4.8914,-4.9264,-4.9883,-5.11,-5.2041,-5.2586,-5.3767,-5.4412,-5.4613,-5.4729,-5.4813,-5.4813,-5.4813,-5.4813,-5.4813,-5.4813,0.0,0.0,0.0,0.0,0.0,-5.4864,-5.4948,0.0,-5.5113,-5.5278,-5.5523,0.0,0.0,0.0,0.0,-5.6525,-5.6923,-5.8117,-5.9768,-6.1415,-6.2763,-6.3687,-6.4463,-6.5078,-6.576,-6.7029,-6.9409,-7.0554,-7.1818,-7.4233,-7.6577,-7.8292,-7.8805,-8.0612,-8.258,-8.4356,-8.5641,-8.6114,-8.5399,-8.4551,-8.3618,-8.2548,-8.1263,-7.9952,-7.8718,-7.7263,-7.5798,-7.4572,-7.3044,-7.158,-7.0212,-6.9209,-6.8059,-6.6753,-6.5601,-6.4612,-6.3965,-6.262,-6.1813,-6.1402,-6.0864,-6.0023,-5.9184,-5.9021,-5.8666,-5.8042,-5.8004,-5.8219,-5.8424,-5.8272,-5.8435,-5.8653,-5.7957,-5.8002,-5.8203,0.0,0.0,0.0,0.0,0.0,0.0,0.0,0.0,0.0,0.0,0.0,0.0,0.0,0.0,0.0,0.0,0.0,0.0,0.0,0.0,0.0,0.0,-4.7964,-4.8218,-4.8301,-4.8718,-4.8914,-4.8996,-5.0653,-5.156,-5.1717,-5.3143,-5.4062,-5.4327,-5.4613,-5.4729,-5.4729,-5.4729,-5.4729,-5.4729,-5.4729,0.0,0.0,0.0,0.0,0.0,0.0,0.0,0.0,-5.4813,-5.4896,-5.5113,-5.5246,0.0,0.0,0.0,0.0,0.0,-5.7442,-5.8863,-6.0502,-6.1998,-6.3231,-6.4252,-6.4944,-6.5633,-6.6848,-6.9274,-7.0381,-7.1626,-7.4104,-7.6427,-7.8199,-7.8781,-8.0825,-8.2858,-8.431,-8.5599,-8.6114,-8.5399,-8.4458,-8.347,-8.2386,-8.1123,-7.9834,-7.8587,-7.7175,-7.5798,-7.4473,-7.294,-7.1438,-7.0098,-6.8976,-6.7789,-6.6382,-6.5504,-6.4612,-6.3965,-6.2802,-6.183,-6.0905,-6.0529,-5.9773,-5.8962,-5.8811,-5.8667,-5.8659,-5.8419,-5.8648,-5.9008,-5.8597,-5.8625,-5.8942,-5.8581,-5.8346,-5.8399,0.0,0.0,0.0,0.0,0.0,0.0,0.0,0.0,0.0,0.0,0.0,0.0,0.0,0.0,0.0,0.0,0.0,0.0,0.0,0.0,0.0,-4.7309,-4.7538,-4.788,-4.8301,-4.8385,-4.8635,-4.8996,-4.9854,-5.0757,-5.1685,-5.2586,-5.3364,-5.4189,-5.4189,-5.4189,-5.4189,-5.4189,-5.4189,-5.4189,-5.4189,0.0,0.0,0.0,0.0,0.0,0.0,0.0,0.0,-5.4729,-5.4813,-5.4896,-5.5113,0.0,0.0,0.0,0.0,0.0,-5.6768,-5.823,-5.9977,-6.1367,-6.2867,-6.4074,-6.4637,-6.5409,-6.6665,-6.9018,-7.0219,-7.1578,-7.3846,-7.6312,-7.8168,-7.8708,-8.1894,-8.4326,-8.4492,-8.5599,-8.6114,-8.5399,-8.4458,-8.347,-8.2386,-8.1123,-7.9834,-7.8266,-7.7085,-7.5703,-7.4273,-7.2729,-7.1328,-6.9839,-6.8858,-6.7668,-6.6132,-6.5378,-6.4612,-6.3965,-6.2352,-6.1518,-6.1274,-6.0512,-5.9669,-5.9118,-5.9008,-5.8934,-5.8717,-5.9011,-5.8896,-5.8758,-5.928,-5.9068,-5.8436,-5.8577,-5.862,-5.8703,0.0,0.0,0.0,0.0,0.0,0.0,0.0,0.0,0.0,0.0,0.0,0.0,0.0,0.0,0.0,0.0,0.0,0.0,0.0,0.0,-4.6931,-4.7106,-4.7279,-4.7538,-4.788,-4.8218,-4.8385,-4.8635,-4.9563,-5.031,-5.0788,-5.1965,-5.3013,-5.3962,-5.3962,-5.4017,-5.4103,-5.4103,-5.4103,-5.4103,0.0,0.0,0.0,0.0,0.0,0.0,0.0,0.0,0.0,0.0,-5.4528,-5.4613,-5.4665,0.0,0.0,0.0,0.0,0.0,-5.6323,-5.7773,-5.9443,-6.0401,-6.2112,-6.3747,-6.4287,-6.5396,-6.6952,-6.885,-7.033,-7.2049,-7.4431,-7.6538,-7.8436,-8.019,-8.2864,-8.4658,-8.4513,-8.5599,-8.6114,-8.5399,-8.4458,-8.3415,-8.226,-8.1053,-7.9757,-7.8047,-7.6996,-7.5703,-7.4206,-7.2591,-7.1218,-6.9984,-6.8858,-6.7397,-6.5725,-6.5074,-6.4318,-6.3422,-6.2123,-6.1155,-6.0431,-6.0023,-5.945,-5.8868,-5.9122,-5.9207,-5.9273,-5.9456,-5.9508,-5.9525,-5.9188,-5.9043,-5.883,-5.8896,-5.915,-5.9452,0.0,0.0,0.0,0.0,0.0,0.0,0.0,0.0,0.0,0.0,0.0,0.0,0.0,0.0,0.0,0.0,0.0,0.0,0.0,-4.658,-4.6756,-4.6931,-4.7106,-4.7279,-4.7624,-4.7964,-4.8218,-4.8301,-4.9127,-4.9718,-4.9987,-5.1483,-5.2621,-5.3451,-5.3451,-5.3632,-5.3931,-5.3931,-5.3931,-5.3931,0.0,0.0,0.0,0.0,0.0,0.0,0.0,0.0,0.0,0.0,0.0,0.0,0.0,0.0,0.0,-5.5031,-5.536,-5.5766,-5.5927,-5.7456,-5.9059,-5.9544,-6.1461,-6.3343,-6.3967,-6.5406,-6.7059,-6.8703,-7.0454,-7.2399,-7.4948,-7.6958,-7.9054,-8.1504,-8.3428,-8.4619,-8.4513,-8.5599,-8.6114,-8.5399,-8.4458,-8.3415,-8.2095,-8.1053,-7.9679,-7.7875,-7.6906,-7.5703,-7.4206,-7.2485,-7.1218,-7.0212,-6.8705,-6.7095,-6.5618,-6.471,-6.3756,-6.2892,-6.1883,-6.0935,-5.9977,-5.9837,-5.9529,-5.908,-5.9329,-5.9617,-5.9786,-5.9812,-5.9914,-5.9888,-5.924,-5.9221,-5.9377,-5.9308,-5.9667,-6.0092,0.0,0.0,0.0,0.0,0.0,0.0,0.0,0.0,0.0,0.0,0.0,0.0,0.0,0.0,0.0,0.0,0.0,0.0,0.0,-4.6195,-4.6462,-4.6931,-4.6931,-4.7106,-4.7624,-4.7624,-4.788,-4.8301,-4.8332,-4.8921,-4.9987,-5.1016,-5.1818,-5.2528,-5.2473,-5.2816,-5.3465,-5.3465,-5.3465,-5.3465,-5.3465,0.0,0.0,0.0,0.0,0.0,0.0,0.0,0.0,0.0,0.0,0.0,0.0,0.0,-5.4581,-5.4948,-5.5278,-5.5523,-5.5766,-5.7296,-5.898,-5.9185,-6.112,-6.3124,-6.3895,-6.5337,-6.6927,-6.8553,-7.0245,-7.2203,-7.466,-7.7607,-8.0126,-8.1563,-8.338,-8.4589,-8.4531,-8.5599,-8.6114,-8.5399,-8.4458,-8.3415,-8.2095,-8.1053,-7.9643,-7.7961,-7.6906,-7.5703,-7.4206,-7.2729,-7.1438,-7.0243,-6.8359,-6.6998,-6.6011,-6.4188,-6.3047,-6.2668,-6.1633,-6.104,-6.0955,-6.0385,-6.01,-6.0043,-6.0071,-6.0094,-6.0146,-6.0206,-5.9859,-5.9345,-5.9785,-5.9945,-5.9971,-5.991,-6.0092,-6.0377,0.0,0.0,0.0,0.0,0.0,0.0,0.0,0.0,0.0,0.0,0.0,0.0,0.0,0.0,0.0,0.0,0.0,0.0,0.0,-4.6135,-4.6314,-4.6491,-4.6756,-4.7019,-4.7193,-4.7452,-4.7709,-4.788,-4.8133,-4.8806,-4.985,-5.0182,-5.0762,-5.1553,-5.1553,-5.1795,-5.2161,-5.2598,-5.2785,-5.2816,-5.3221,-5.3377,0.0,0.0,0.0,0.0,0.0,0.0,0.0,0.0,-5.3671,-5.3962,-5.4017,-5.4157,-5.4412,-5.4581,-5.4915,-5.5375,-5.6075,-5.7331,-5.8789,-5.9671,-6.1144,-6.2591,-6.3565,-6.5443,-6.7295,-6.8435,-7.0506,-7.296,-7.6035,-7.8807,-8.0873,-8.1659,-8.3419,-8.4602,-8.4474,-8.5574,-8.6134,-8.5399,-8.4458,-8.347,-8.2323,-8.1123,-7.9834,-7.8301,-7.7085,-7.5798,-7.4373,-7.2835,-7.1356,-6.9951,-6.8312,-6.663,-6.5109,-6.3921,-6.3,-6.2253,-6.1264,-6.0782,-6.0537,-6.0279,-6.0209,-6.0196,-6.0196,-6.0177,-6.012,-6.0196,-5.9978,-5.9836,-5.9964,-6.0092,-6.0302,-6.0302,-6.0377,-6.069,0.0,0.0,0.0,0.0,0.0,0.0,0.0,0.0,0.0,0.0,0.0,0.0,0.0,0.0,0.0,0.0,0.0,0.0,-4.5488,-4.5929,-4.6135,-4.6225,-4.6491,-4.6756,-4.6931,-4.7193,-4.7452,-4.7624,-4.8049,-4.8546,-4.9259,-4.9259,-4.9712,-5.0584,-5.0584,-5.0824,-5.1243,-5.1623,-5.1809,-5.1958,-5.2642,-5.289,0.0,0.0,0.0,0.0,0.0,0.0,0.0,0.0,-5.3496,-5.3702,-5.3789,-5.4017,-5.4242,-5.4412,-5.4665,-5.5076,-5.615,-5.7196,-5.8445,-5.9794,-6.0979,-6.2223,-6.3501,-6.5468,-6.7375,-6.8249,-7.1149,-7.4316,-7.6986,-7.9412,-8.1207,-8.1698,-8.3401,-8.4608,-8.4429,-8.5582,-8.6219,-8.5475,-8.4597,-8.358,-8.2449,-8.1193,-7.9911,-7.8587,-7.7263,-7.5926,-7.4572,-7.2816,-7.1328,-6.9903,-6.7982,-6.6308,-6.4964,-6.3944,-6.303,-6.2321,-6.1523,-6.1044,-6.0774,-6.0572,-6.0493,-6.0413,-6.0326,-6.0206,-6.0126,-6.0156,-6.0295,-6.0378,-6.038,-6.0481,-6.0794,-6.0794,-6.0794,-6.0897,0.0,0.0,0.0,0.0,0.0,0.0,0.0,0.0,0.0,0.0,-4.0688,0.0,0.0,0.0,0.0,0.0,0.0,0.0,-4.485,-4.5518,-4.5956,-4.6225,-4.6225,-4.6403,-4.6931,-4.6931,-4.7106,-4.7624,-4.788,-4.8133,-4.8301,-4.8301,-4.8837,-4.9682,-4.9682,-5.0051,-5.0667,-5.0697,-5.0697,-5.0759,-5.1436,-5.1682,-5.1775,0.0,0.0,0.0,0.0,0.0,0.0,0.0,-5.3233,-5.3465,-5.3702,-5.3789,-5.3876,-5.4242,-5.4412,-5.4656,-5.5898,-5.686,-5.791,-5.9333,-6.0687,-6.2152,-6.3767,-6.5446,-6.6989,-6.7919,-7.2248,-7.6206,-7.721,-7.9312,-8.107,-8.162,-8.3332,-8.457,-8.4518,-8.5699,-8.6339,-8.5692,-8.4823,-8.3847,-8.2597,-8.1328,-7.9992,-7.8587,-7.7475,-7.6114,-7.4572,-7.2769,-7.1237,-7.009,-6.7637,-6.6177,-6.5903,-6.3924,-6.3019,-6.3019,-6.2438,-6.2087,-6.2087,-6.1438,-6.1143,-6.1084,-6.0778,-6.0462,-6.0086,-6.0385,-6.0669,-6.0794,-6.1103,-6.141,-6.1582,-6.1582,-6.141,-6.1206,0.0,0.0,0.0,0.0,0.0,0.0,0.0,0.0,0.0,-4.0602,-4.0688,0.0,0.0,0.0,0.0,0.0,0.0,0.0,-4.485,-4.5518,-4.5985,-4.5956,-4.6135,-4.6314,-4.6403,-4.6756,-4.7106,-4.7624,-4.7709,-4.788,-4.8133,-4.8133,-4.8309,-4.8691,-4.8691,-4.8867,-4.9281,-4.9774,-4.9989,-5.0051,-5.0728,-5.1282,-5.1713,0.0,0.0,0.0,0.0,0.0,0.0,0.0,0.0,0.0,-5.3264,-5.3528,-5.3789,-5.3931,-5.4189,-5.4751,-5.6253,-5.7162,-5.804,-5.9924,-6.097,-6.191,-6.3532,-6.5255,-6.7269,-6.9908,-7.3303,-7.6042,-7.6866,-7.9019,-8.0854,-8.1475,-8.3282,-8.4603,-8.4564,-8.5735,-8.6389,-8.5757,-8.4953,-8.4003,-8.2935,-8.1769,-8.055,-7.9479,-7.7473,-7.5698,-7.4545,-7.2482,-7.0577,-6.8946,-6.7571,-6.6402,-6.5165,-6.4392,-6.3932,-6.3736,-6.3026,-6.2331,-6.1727,-6.1549,-6.1213,-6.0655,-6.0556,-6.0434,-6.0365,-6.0788,-6.1186,-6.141,-6.1512,-6.1512,-6.1582,-6.1582,-6.1582,-6.1512,0.0,0.0,0.0,0.0,0.0,0.0,-3.9908,-3.9996,-4.017,-4.0602,-4.0688,-4.0688,0.0,0.0,0.0,-4.1881,-4.3085,-4.4037,-4.4501,-4.5372,-4.5895,-4.5895,-4.6046,-4.6135,-4.6225,-4.6668,-4.7019,-4.7279,-4.7452,-4.7624,-4.7794,-4.7794,-4.7964,-4.8218,-4.8218,-4.8218,-4.8385,-4.8845,-4.9082,-4.9228,-4.9818,-5.0426,-5.0944,0.0,0.0,0.0,0.0,0.0,0.0,0.0,0.0,0.0,-5.3086,-5.3264,-5.3528,-5.3702,-5.3931,-5.4559,-5.6303,-5.7066,-5.7818,-5.9899,-6.0769,-6.1732,-6.3905,-6.5855,-6.8046,-7.0815,-7.3575,-7.5782,-7.6639,-7.8825,-8.0696,-8.1296,-8.2898,-8.4152,-8.4563,-8.5519,-8.6139,-8.5915,-8.5202,-8.4303,-8.334,-8.2159,-8.0837,-7.9558,-7.7556,-7.5721,-7.4238,-7.2208,-7.0468,-6.893,-6.7737,-6.6569,-6.5515,-6.5046,-6.4482,-6.4095,-6.3476,-6.2768,-6.178,-6.1477,-6.1167,-6.0819,-6.0761,-6.0849,-6.0897,-6.1308,-6.1613,-6.1815,-6.1916,-6.1916,-6.1916,-6.1916,-6.1815,-6.1714,0.0,0.0,-3.8692,-3.8819,0.0,-3.9469,-3.9908,-3.9996,-4.017,-4.0602,-4.0688,-4.0688,0.0,0.0,0.0,-4.1396,-4.274,-4.3632,-4.3979,-4.514,-4.5837,-4.5895,-4.5895,-4.5956,-4.6225,-4.6668,-4.6844,-4.6844,-4.7106,-4.7396,-4.7538,-4.7538,-4.7709,-4.7964,-4.7964,-4.7964,-4.7964,-4.7964,-4.8133,-4.8363,-4.8974,-4.9335,-4.972,-5.0949,0.0,0.0,0.0,0.0,0.0,0.0,0.0,0.0,-5.2997,-5.3086,-5.3175,-5.3615,-5.3789,-5.4159,-5.5954,-5.6686,-5.7387,-5.9469,-6.0443,-6.175,-6.4529,-6.685,-6.8964,-7.0923,-7.324,-7.5329,-7.645,-7.8622,-8.0493,-8.1169,-8.234,-8.3488,-8.4375,-8.5078,-8.5621,-8.5959,-8.5282,-8.4499,-8.3554,-8.2375,-8.0854,-7.9032,-7.7585,-7.5948,-7.3855,-7.2102,-7.0726,-6.9777,-6.8049,-6.6974,-6.6628,-6.5745,-6.494,-6.4226,-6.3873,-6.3193,-6.2333,-6.1355,-6.1111,-6.1475,-6.1382,-6.141,-6.1683,-6.2016,-6.2116,-6.2116,-6.2315,-6.2446,-6.2414,-6.2446,-6.2216,-6.2016,0.0,0.0,-3.8692,-3.8819,0.0,0.0,-3.9908,-3.9996,-4.017,-4.0602,-4.0688,-4.0688,-4.0688,-4.083,0.0,-4.1396,-4.2337,-4.3171,-4.395,-4.4676,-4.5343,-4.5866,-4.5895,-4.5956,-4.6225,-4.6314,-4.6491,-4.6668,-4.7135,-4.7309,-4.7396,-4.7396,-4.7452,-4.7709,-4.7709,-4.7794,-4.7964,-4.7964,-4.8049,-4.8049,-4.8201,-4.8651,-4.9169,-4.9443,-5.0235,0.0,0.0,0.0,0.0,0.0,0.0,0.0,-5.2819,-5.2908,-5.3086,-5.3264,-5.3528,-5.419,-5.5809,-5.6631,-5.7387,-5.924,-6.1541,-6.3533,-6.488,-6.6996,-6.8986,-7.0336,-7.2907,-7.5178,-7.6056,-7.8321,-8.0314,-8.1003,-8.2259,-8.3234,-8.362,-8.4255,-8.4608,-8.4403,-8.3835,-8.3091,-8.2134,-8.1139,-8.0084,-7.8777,-7.697,-7.5299,-7.4032,-7.2267,-7.0683,-6.9772,-6.8764,-6.7641,-6.6384,-6.594,-6.5281,-6.4349,-6.3712,-6.3406,-6.3123,-6.2301,-6.1815,-6.1597,-6.1947,-6.2184,-6.2284,-6.271,-6.2905,-6.2905,-6.2808,-6.271,-6.271,-6.2513,-6.2315,-6.2216,0.0,0.0,0.0,0.0,0.0,0.0,0.0,0.0,-4.017,-4.0602,-4.0688,-4.0688,-4.0688,-4.0773,0.0,0.0,-4.2052,-4.2941,-4.395,-4.456,-4.5198,-4.5866,-4.5895,-4.5956,-4.6046,-4.6135,-4.6314,-4.6403,-4.6756,-4.7019,-4.7106,-4.7222,-4.7396,-4.7482,-4.7482,-4.7538,-4.7624,-4.7624,-4.7709,-4.7794,-4.7794,-4.8092,-4.8511,-4.8845,-4.9604,-5.0575,-5.1027,0.0,0.0,0.0,0.0,0.0,0.0,0.0,-5.2908,-5.3086,-5.3321,-5.3984,-5.5543,-5.6423,-5.7387,-5.9502,-6.189,-6.3969,-6.4708,-6.6824,-6.8822,-6.9849,-7.2076,-7.4308,-7.5708,-7.7655,-7.951,-8.069,-8.1693,-8.2575,-8.321,-8.3648,-8.392,-8.4026,-8.3538,-8.2874,-8.2089,-8.1162,-8.0008,-7.8581,-7.7055,-7.5519,-7.4101,-7.2605,-7.1444,-7.0448,-6.9273,-6.8079,-6.7132,-6.6181,-6.5368,-6.4434,-6.3984,-6.3666,-6.3249,-6.2751,-6.233,-6.2184,-6.2612,-6.2808,-6.2808,-6.3099,-6.3228,-6.3228,-6.2905,-6.2808,-6.2808,-6.2513,-6.2446,-6.2315,0.0,0.0,0.0,0.0,0.0,0.0,0.0,0.0,0.0,-4.0602,-4.0716,-4.0688,-4.0688,-4.0688,-4.0859,0.0,0.0,0.0,-4.3835,-4.4647,-4.5314,-4.5866,-4.5895,-4.5895,-4.5895,-4.6046,-4.6135,-4.6135,-4.6403,-4.658,-4.6756,-4.7106,-4.7222,-4.7222,-4.7309,-4.7309,-4.7309,-4.7309,-4.7396,-4.7538,-4.7538,-4.7709,-4.794,-4.8607,-4.9304,-5.0001,-5.0667,-5.1334,-5.1972,-5.2155,0.0,0.0,0.0,0.0,-5.2698,-5.2997,-5.3144,-5.3658,-5.5207,-5.6335,-5.7634,-5.9707,-6.1791,-6.35,-6.4267,-6.6325,-6.8301,-6.927,-7.1151,-7.325,-7.5292,-7.693,-7.8561,-8.0272,-8.1076,-8.1796,-8.283,-8.3046,-8.3284,-8.3765,-8.3308,-8.2765,-8.2222,-8.1301,-8.006,-7.8333,-7.7341,-7.6016,-7.4216,-7.3311,-7.2364,-7.1274,-6.9678,-6.8506,-6.7805,-6.6355,-6.532,-6.4705,-6.4417,-6.4031,-6.3484,-6.3196,-6.3002,-6.2905,-6.3099,-6.3228,-6.3325,-6.3325,-6.3325,-6.3325,-6.3002,-6.2905,-6.2808,-6.2513,-6.2414,-6.2315,0.0,0.0,0.0,0.0,0.0,0.0,0.0,0.0,0.0,0.0,-4.063,-4.0688,-4.0688,-4.0688,-4.0773,-4.1001,-4.1368,-4.2081,-4.3603,0.0,0.0,-4.5895,-4.5895,-4.5895,-4.5895,-4.5985,-4.5985,-4.5985,-4.6135,-4.6314,-4.6284,-4.6756,-4.6931,-4.6931,-4.7222,-4.7309,-4.7309,-4.7309,-4.7309,-4.7309,-4.7309,-4.7396,-4.7456,-4.8115,-4.8775,-4.9524,-5.0366,-5.1121,-5.1665,-5.1972,-5.2155,0.0,0.0,0.0,-5.2729,-5.2698,-5.2908,-5.333,-5.4345,-5.6125,-5.8125,-5.9402,-6.0913,-6.2411,-6.3718,-6.5318,-6.7099,-6.8682,-7.0839,-7.2962,-7.4764,-7.6588,-7.8338,-8.0087,-8.0876,-8.1458,-8.192,-8.2137,-8.2261,-8.2221,-8.1892,-8.1412,-8.0831,-8.0106,-7.9203,-7.794,-7.7144,-7.6172,-7.5009,-7.4181,-7.3032,-7.1503,-7.0425,-6.9043,-6.7324,-6.6502,-6.5739,-6.5016,-6.4741,-6.4616,-6.4518,-6.4485,-6.3959,-6.3131,-6.3421,-6.3517,-6.358,-6.3802,-6.3929,-6.3929,-6.3612,-6.3293,-6.3131,-6.2808,-6.2612,-6.2315,0.0,0.0,0.0,0.0,0.0,0.0,0.0,0.0,0.0,0.0,0.0,-4.0688,-4.0688,-4.0688,-4.0773,-4.1001,-4.1198,-4.2109,-4.369,-4.5169,-4.5895,-4.5895,-4.5895,-4.5895,-4.5895,-4.5895,-4.5895,-4.5895,-4.5956,-4.6046,-4.6046,-4.6403,-4.6668,-4.6931,-4.7019,-4.7106,-4.7309,-4.7309,-4.7309,-4.7309,-4.7309,-4.7519,-4.7878,-4.8177,-4.8925,-4.9853,-5.0214,-5.0846,-5.1416,-5.1695,-5.188,-5.1941,-5.2215,0.0,0.0,0.0,-5.2908,-5.3392,-5.4988,-5.6588,-5.8165,-5.9434,-6.0729,-6.2193,-6.3601,-6.5169,-6.6804,-6.8454,-6.9954,-7.1596,-7.3532,-7.5493,-7.7249,-7.8929,-8.0217,-8.113,-8.1563,-8.1828,-8.198,-8.1954,-8.1714,-8.1381,-8.0935,-8.0276,-7.9463,-7.8602,-7.7715,-7.6846,-7.5859,-7.4618,-7.337,-7.2196,-7.0471,-6.905,-6.798,-6.6711,-6.5724,-6.5066,-6.4976,-6.4885,-6.4702,-6.4702,-6.4426,-6.4053,-6.4053,-6.3959,-6.3959,-6.3991,-6.4024,-6.4024,-6.3707,-6.3421,-6.3131,-6.2905,-6.2612,-6.2315,0.0,0.0,0.0,0.0,0.0,0.0,0.0,0.0,0.0,0.0,0.0,-4.0688,-4.0688,0.0,0.0,0.0,-4.1341,-4.2253,-4.4066,-4.5167,-4.5805,-4.5895,-4.5895,-4.5895,-4.5895,-4.5895,-4.5895,-4.5895,-4.5895,-4.5895,-4.5895,-4.6046,-4.6314,-4.6756,-4.6756,-4.6931,-4.7135,-4.7222,-4.7222,-4.7222,-4.7489,-4.7848,-4.8327,-4.8656,-4.9374,-5.0272,-5.0421,-5.081,-5.1229,-5.1386,-5.1572,-5.1665,-5.2033,-5.2215,0.0,0.0,0.0,-5.3632,-5.5543,-5.6804,-5.7852,-5.9226,-6.0424,-6.1673,-6.3082,-6.4653,-6.6211,-6.7757,-6.8943,-7.0238,-7.2083,-7.4028,-7.6005,-7.793,-7.9362,-8.0523,-8.1306,-8.1664,-8.1906,-8.1992,-8.1859,-8.1648,-8.1344,-8.0683,-8.0048,-7.932,-7.8484,-7.7467,-7.6428,-7.4961,-7.3618,-7.2453,-7.0531,-6.9198,-6.8542,-6.7049,-6.6009,-6.5425,-6.5425,-6.5246,-6.5033,-6.4976,-6.4976,-6.4976,-6.461,-6.4333,-6.4333,-6.4179,-6.3991,-6.4024,-6.3802,-6.3517,-6.3228,-6.3002,-6.2612,-6.2216,0.0,0.0,0.0,0.0,0.0,0.0,0.0,0.0,0.0,0.0,0.0,-4.0688,-4.0688,-4.0688,-4.0688,-4.0688,-4.1481,-4.2708,-4.4438,-4.5129,-4.5595,-4.5895,-4.5895,0.0,-4.5895,-4.5895,-4.5895,-4.5895,-4.5895,-4.5895,-4.5895,-4.5895,-4.6046,-4.6225,-4.6491,-4.658,-4.6697,-4.6844,-4.6931,-4.6991,-4.788,-4.8267,-4.8416,-4.9673,-5.0182,-5.0331,-5.096,-5.1199,-5.1229,-5.1229,-5.1386,-5.1572,-5.1665,-5.1941,-5.2306,0.0,0.0,0.0,-5.5093,-5.601,-5.6981,-5.8652,-5.9596,-6.0402,-6.164,-6.3166,-6.4768,-6.6097,-6.7842,-6.9344,-7.0374,-7.2351,-7.4754,-7.734,-7.8424,-7.9504,-8.0926,-8.1462,-8.1778,-8.1984,-8.1987,-8.1867,-8.16,-8.1182,-8.063,-7.9844,-7.9048,-7.7936,-7.6295,-7.5361,-7.392,-7.1693,-7.0799,-6.9742,-6.8388,-6.7312,-6.6643,-6.6473,-6.6182,-6.6009,-6.6009,-6.5867,-6.5692,-6.5692,-6.4976,-6.4518,-6.4333,-6.4333,-6.4146,-6.4024,-6.4024,-6.3612,-6.3228,-6.3228,-6.271,-6.2016,0.0,0.0,0.0,0.0,0.0,0.0,0.0,0.0,0.0,0.0,0.0,0.0,0.0,-4.0688,-4.0688,-4.0688,-4.1877,-4.3105,-4.4228,-4.4858,-4.5321,-4.5413,-4.5413,-4.5504,-4.5595,-4.5595,-4.5685,-4.5895,-4.5895,-4.5895,-4.5895,-4.5895,-4.5985,-4.6046,-4.6225,-4.6403,-4.658,-4.6668,-4.6904,-4.7318,-4.7644,-4.8326,-4.9127,-4.9786,-5.0232,-5.059,-5.1046,-5.1229,-5.1229,-5.1229,-5.1229,-5.1386,-5.1572,-5.188,-5.2155,-5.2427,-5.2877,-5.3543,-5.5124,-5.592,-5.6772,-5.8563,-5.9419,-6.0141,-6.1521,-6.2931,-6.4503,-6.5982,-6.7688,-6.9083,-6.992,-7.191,-7.3881,-7.5506,-7.6806,-7.8176,-7.978,-8.0345,-8.0941,-8.1816,-8.2021,-8.1981,-8.1817,-8.148,-8.0772,-7.9624,-7.8798,-7.7727,-7.6212,-7.4816,-7.3551,-7.2299,-7.1085,-6.9809,-6.8628,-6.7925,-6.7441,-6.7112,-6.6694,-6.6473,-6.6388,-6.6095,-6.5955,-6.578,-6.5514,-6.5156,-6.4826,-6.4426,-6.424,-6.4146,-6.4085,-6.3707,-6.3228,-6.3228,-6.271,-6.2016,0.0,0.0,0.0,-3.833,0.0,-3.8782,-3.9114,-3.9557,-3.9936,-3.9996,0.0,0.0,0.0,0.0,-4.1165,-4.1587,-4.258,-4.3494,-4.439,-4.4818,-4.5046,-4.511,-4.511,-4.523,-4.5321,-4.5413,-4.5413,-4.5595,-4.5685,-4.5776,-4.5776,-4.5895,-4.5895,-4.5895,-4.6046,-4.6225,-4.6343,-4.6667,-4.699,-4.743,-4.7933,-4.8702,-4.9498,-4.9952,-5.0372,-5.0728,-5.1011,-5.1105,-5.1105,-5.1229,-5.1229,-5.1229,-5.1416,-5.1695,-5.2094,-5.2427,-5.2788,-5.3423,-5.4722,-5.5552,-5.6441,-5.8243,-5.9081,-5.9902,-6.1054,-6.2396,-6.3885,-6.5284,-6.6917,-6.8392,-6.949,-7.1072,-7.2656,-7.4162,-7.5507,-7.6928,-7.8594,-7.9191,-7.9858,-8.0824,-8.1141,-8.117,-8.108,-8.0837,-8.0275,-7.9215,-7.8446,-7.7414,-7.6016,-7.464,-7.3428,-7.2291,-7.1063,-6.9955,-6.9008,-6.8551,-6.8083,-6.7604,-6.7312,-6.698,-6.6728,-6.6473,-6.6182,-6.5867,-6.5867,-6.5548,-6.5099,-6.461,-6.4426,-6.4333,-6.4085,-6.3707,-6.3228,-6.3228,-6.2612,-6.1815,-3.7015,-3.732,-3.769,-3.8122,-3.8421,-3.8692,-3.8908,-3.9407,-3.9788,-4.0023,0.0,0.0,0.0,0.0,0.0,-4.3385,-4.3497,-4.3842,-4.4741,-4.4797,-4.489,-4.5018,-4.511,-4.511,-4.511,-4.511,-4.511,-4.511,-4.5321,-4.5504,-4.5504,-4.5776,-4.5895,-4.5895,-4.5895,-4.5924,-4.5953,-4.6865,-4.7219,-4.7365,-4.8904,-4.9498,-4.9587,-5.0235,-5.0501,-5.0501,-5.0728,-5.0793,-5.0822,-5.1105,-5.1229,-5.1229,-5.1229,-5.1602,-5.2063,-5.2215,-5.2698,-5.3299,0.0,0.0,0.0,-5.7548,-5.8606,-5.9508,-6.0206,-6.1447,-6.2766,-6.4001,-6.5561,-6.7187,-6.8908,-6.9885,-7.1123,-7.334,-7.4583,-7.5788,-7.7338,-7.807,-7.8605,-7.902,-7.9325,-7.9473,-7.9424,-7.9351,-7.9078,-7.8605,-7.8026,-7.7075,-7.5664,-7.4873,-7.3536,-7.1593,-7.0811,-7.02,-6.9598,-6.9008,-6.8551,-6.8162,-6.7959,-6.7557,-6.718,-6.6896,-6.6558,-6.6095,-6.5867,-6.5548,-6.5099,-6.4793,-6.4518,-6.4333,-6.4085,-6.3707,-6.3228,-6.3228,-6.2513,-6.1582,-3.681,-3.7015,-3.7387,-3.7848,-3.833,-3.8692,-3.8908,-3.9407,-3.97,0.0,0.0,0.0,-4.1128,-4.1864,-4.2626,-4.3413,-4.3497,-4.375,-4.4462,-4.4518,-4.4518,-4.4583,-4.4583,-4.4676,-4.4862,-4.4862,-4.4954,-4.511,-4.5138,-4.5321,-4.5504,-4.5595,-4.5685,-4.5895,-4.6359,-4.6563,-4.6592,-4.6858,-4.7207,-4.7701,-4.8581,-4.9193,-4.9727,-5.0124,-5.0183,-5.0279,-5.0471,-5.0662,-5.0793,-5.0917,-5.1011,-5.1229,-5.1386,-5.1695,-5.2063,-5.2215,-5.2487,-5.3032,-5.413,0.0,0.0,0.0,0.0,0.0,-5.9914,-6.1074,-6.2264,-6.3329,-6.5026,-6.6745,-6.7835,-6.9246,-7.0579,-7.1863,-7.3075,-7.441,-7.6057,-7.6804,-7.766,-7.8834,-7.919,-7.9385,-7.945,-7.9448,-7.9024,-7.8021,-7.7467,-7.659,-7.5246,-7.411,-7.3038,-7.2048,-7.1332,-7.0745,-7.0272,-6.967,-6.9231,-6.8932,-6.8319,-6.7959,-6.7879,-6.7312,-6.6896,-6.6558,-6.6182,-6.5867,-6.5514,-6.4976,-6.4702,-6.4518,-6.4179,-6.3707,-6.3228,-6.3228,-6.2513,-6.1582,-3.7207,-3.7337,-3.7561,-3.8028,-3.8517,-3.8884,-3.913,-3.9708,-4.0169,0.0,0.0,0.0,-4.2133,-4.2649,-4.3216,-4.3835,-4.3891,-4.4031,-4.4397,-4.4425,-4.4425,-4.4425,-4.4425,-4.4518,-4.4612,-4.4612,-4.4676,-4.4862,-4.4954,-4.5046,-4.523,-4.5321,-4.5648,-4.6119,-4.6495,-4.6906,-4.723,-4.7521,-4.784,-4.8217,-4.8856,-4.9349,-4.9669,-4.9892,-4.9892,-4.999,-5.0183,-5.0375,-5.0537,-5.0698,-5.1011,-5.1229,-5.1386,-5.1602,-5.188,-5.2155,-5.2337,-5.2731,-5.3982,-5.4847,-5.5837,-5.7164,0.0,0.0,-5.9772,-6.0586,-6.1664,-6.2665,-6.414,-6.572,-6.7225,-6.8498,-6.9809,-7.1002,-7.2212,-7.341,-7.4915,-7.5665,-7.6459,-7.7512,-7.7971,-7.8219,-7.8419,-7.8458,-7.8124,-7.7326,-7.6877,-7.6094,-7.4903,-7.3916,-7.3141,-7.248,-7.1891,-7.1304,-7.0682,-7.0202,-6.9742,-6.9305,-6.8781,-6.8319,-6.8083,-6.7557,-6.718,-6.6812,-6.6268,-6.6042,-6.578,-6.5156,-6.4793,-6.4702,-6.4179,-6.3707,-6.3228,-6.3228,-6.2513,-6.1582,0.0,-3.8003,-3.8056,-3.8342,-3.8841,-3.9283,-3.9561,-4.0174,-4.0896,0.0,-4.1691,-4.2334,-4.3434,-4.361,-4.3807,-4.4369,-4.4425,-4.4425,-4.4425,-4.4425,-4.4425,-4.4425,-4.4425,-4.4425,-4.4425,-4.4425,-4.4425,-4.4425,-4.4612,-4.4797,-4.4797,-4.5011,-4.5631,-4.6512,-4.6627,-4.7095,-4.7927,-4.847,-4.8731,-4.8885,-4.9436,-4.9669,-4.9669,-4.9669,-4.9669,-4.9766,-4.999,-5.0086,-5.0183,-5.0632,-5.1011,-5.1229,-5.1229,-5.1386,-5.1695,-5.188,-5.2216,-5.2642,-5.3833,-5.4818,-5.584,-5.6892,-5.8101,0.0,-5.954,-6.0206,-6.0967,-6.2166,-6.3107,-6.4425,-6.6616,-6.7788,-6.8893,-7.0596,-7.1696,-7.2724,-7.3859,-7.4702,-7.5344,-7.5813,-7.6273,-7.6669,-7.6886,-7.6953,-7.6919,-7.6729,-7.632,-7.5656,-7.4702,-7.4222,-7.3653,-7.3017,-7.2401,-7.1744,-7.111,-7.075,-7.0202,-6.9379,-6.9157,-6.8705,-6.8162,-6.7719,-6.7312,-6.6812,-6.6354,-6.6042,-6.578,-6.5369,-6.5008,-6.4702,-6.4179,-6.3707,-6.3228,-6.3228,-6.2513,-6.1613,-3.7717,-3.8235,-3.862,-3.8717,-3.9294,-3.9865,-4.008,-4.0442,-4.0803,-4.111,-4.1797,-4.272,-4.377,-4.3854,-4.4003,-4.4397,-4.4425,-4.4425,-4.4425,-4.4425,-4.4425,-4.4425,-4.4425,-4.4425,-4.4425,-4.4425,-4.4425,-4.4425,-4.4425,-4.4612,-4.4797,-4.5307,-4.5779,-4.6232,-4.7234,-4.7817,-4.8278,-4.8942,-4.93,-4.9494,-4.964,-4.9669,-4.9669,-4.9669,-4.9669,-4.9669,-4.9766,-4.9892,-5.0183,-5.0632,-5.1011,-5.1229,-5.1229,-5.1386,-5.1695,-5.188,-5.252,-5.3224,-5.3956,-5.516,-5.6402,-5.6804,-5.792,0.0,-5.9331,-5.9946,-6.0666,-6.1501,-6.2656,-6.3883,-6.5007,-6.6869,-6.854,-6.9644,-7.0961,-7.227,-7.3378,-7.4325,-7.5094,-7.5664,-7.6108,-7.6457,-7.6799,-7.6931,-7.6941,-7.6809,-7.6256,-7.571,-7.5132,-7.4573,-7.3944,-7.3401,-7.2816,-7.2248,-7.1583,-7.111,-7.0579,-7.0062,-6.9525,-6.9008,-6.8551,-6.8162,-6.7799,-6.7312,-6.6896,-6.6473,-6.6009,-6.5514,-6.5066,-6.4702,-6.4333,-6.377,-6.3228,-6.3228,-6.2513,-6.1676,-3.8181,-3.8517,-3.8914,-3.9111,-3.9602,-4.0088,-4.0499,-4.1026,-4.1501,-4.1719,-4.244,-4.3121,-4.3681,-4.3804,-4.3804,-4.3993,-4.3993,-4.4021,-4.4209,-4.4209,-4.4209,-4.4425,-4.4425,-4.4425,-4.4425,-4.4425,-4.4425,-4.4425,-4.4706,-4.4969,-4.5063,-4.5712,-4.626,-4.686,-4.7458,-4.8109,-4.862,-4.9063,-4.9404,-4.9502,-4.9669,-4.9669,-4.9669,-4.9669,-4.9669,-4.9669,-4.9669,-5.0165,-5.0749,-5.1039,-5.1631,-5.2187,-5.2187,-5.2282,-5.2472,-5.288,-5.331,-5.3802,-5.47,-5.5658,-5.6621,-5.7089,-5.799,0.0,0.0,-5.9684,-6.0345,-6.0969,-6.1977,-6.3069,-6.4179,-6.5664,-6.72,-6.8453,-6.9957,-7.1391,-7.2421,-7.3747,-7.4825,-7.5485,-7.6018,-7.6438,-7.6741,-7.6919,-7.6912,-7.6716,-7.6316,-7.589,-7.5383,-7.4824,-7.4312,-7.3703,-7.3087,-7.248,-7.1866,-7.1368,-7.0883,-7.0341,-6.9742,-6.9231,-6.8857,-6.8319,-6.7879,-6.7475,-6.698,-6.6525,-6.6095,-6.578,-6.5246,-6.4702,-6.4393,-6.3865,-6.3228,-6.3228,-6.2513,-6.1707,-3.8631,-3.8885,-3.9095,-3.9599,-3.9999,-4.0296,-4.0815,-4.1505,-4.219,-4.2511,-4.29,-4.3259,-4.3519,-4.3519,-4.3519,-4.3586,-4.3586,-4.3709,-4.3926,-4.3926,-4.4021,-4.4209,-4.4209,-4.4209,-4.4209,-4.4321,-4.4499,-4.4499,-4.5116,-4.5397,-4.5521,-4.6167,-4.6827,-4.7574,-4.7589,-4.8127,-4.881,-4.9009,-4.9207,-4.9334,-4.9716,-4.9785,-4.9698,-4.9814,-4.9872,-4.9872,-4.9988,-5.0759,-5.1621,-5.165,-5.2367,-5.3174,-5.3174,-5.3174,-5.3271,-5.388,-5.4066,-5.4374,-5.5466,-5.6185,-5.6778,-5.7339,-5.8026,-5.8701,0.0,0.0,0.0,-6.0633,-6.135,-6.2358,-6.3674,-6.464,-6.5828,-6.7262,-6.8938,-7.0314,-7.1268,-7.2742,-7.4124,-7.5203,-7.589,-7.635,-7.666,-7.6878,-7.6911,-7.6669,-7.6457,-7.6096,-7.5584,-7.5132,-7.4615,-7.4038,-7.3401,-7.2761,-7.2167,-7.1682,-7.1146,-7.0547,-6.9991,-6.9452,-6.9083,-6.8474,-6.7925,-6.7557,-6.7146,-6.6643,-6.6095,-6.5955,-6.5425,-6.4702,-6.4518,-6.3865,-6.3228,-6.3228,-6.2608,-6.1894,-3.8631,-3.9208,-3.9699,-3.9982,-4.049,-4.0893,-4.1219,-4.1571,-4.1895,-4.2413,-4.2803,-4.3067,-4.3259,-4.3355,-4.3451,-4.3586,-4.3586,-4.3586,-4.3614,-4.3614,-4.3709,-4.3709,-4.3709,-4.3709,-4.3709,-4.4263,-4.4664,-4.4981,-4.547,-4.5874,-4.6195,-4.6813,-4.715,-4.7235,-4.7769,-4.8252,-4.8581,-4.8581,-4.8909,-4.9363,-5.001,-4.9994,-4.9727,-5.0336,-5.0569,-5.0627,-5.1207,-5.1741,-5.2299,-5.2328,-5.2753,-5.3174,-5.3174,-5.3174,-5.3271,-5.388,-5.44,-5.4983,-5.5589,-5.6526,-5.7371,-5.7464,-5.8026,-5.8701,-5.8914,0.0,-5.9946,-6.0548,0.0,-6.203,-6.2881,0.0,0.0,-6.6418,-6.7955,-6.9334,-7.0054,-7.1095,-7.2579,-7.4941,-7.5648,-7.6135,-7.6573,-7.6855,-7.697,-7.6882,-7.657,-7.6243,-7.587,-7.5417,-7.4903,-7.4438,-7.3896,-7.335,-7.2798,-7.2226,-7.162,-7.0913,-7.041,-6.9813,-6.9231,-6.8857,-6.8319,-6.7719,-6.7475,-6.6896,-6.6095,-6.6095,-6.557,-6.4702,-6.4702,-6.4053,-6.3228,-6.3228,-6.2893,-6.258,-3.8185,-3.8841,-3.9362,-3.9775,-4.0287,-4.0795,-4.0997,-4.1398,-4.1895,-4.2413,-4.2609,-4.2803,-4.3067,-4.3067,-4.3067,-4.3163,-4.3136,-4.3396,-4.3973,-4.4001,-4.4138,-4.4664,-4.4664,-4.4664,-4.4664,-4.494,-4.5078,-4.5176,-4.5813,-4.6317,-4.6643,-4.7259,-4.7539,-4.774,-4.8021,-4.8106,-4.8336,-4.8776,-4.9121,-4.938,-5.0443,-5.0731,-5.063,-5.102,-5.1207,-5.1265,-5.1527,-5.215,-5.2977,-5.2977,-5.3644,-5.4341,-5.4341,-5.4341,-5.4441,-5.5031,-5.5341,-5.5652,-5.6234,-5.6803,-5.7306,-5.7495,-5.7871,-5.8335,-5.8914,-5.9241,-5.9684,-6.0378,0.0,0.0,0.0,0.0,0.0,0.0,-6.6874,-6.8258,-6.9155,-7.0323,-7.1658,-7.3345,-7.4484,-7.5581,-7.6669,-7.6917,-7.6977,-7.6887,-7.6653,-7.6376,-7.6083,-7.5584,-7.5132,-7.4695,-7.4038,-7.3452,-7.2908,-7.2343,-7.1744,-7.1146,-7.0615,-7.0062,-6.9452,-6.9083,-6.8551,-6.7959,-6.7638,-6.7063,-6.6268,-6.6182,-6.557,-6.4702,-6.4702,-6.4053,-6.3228,-6.3228,-6.2956,-6.2705,-3.7655,-3.8315,-3.8841,-3.949,-3.9981,-4.0389,-4.0896,-4.1398,-4.1796,-4.2217,-4.2449,-4.2753,-4.2949,-4.3084,-4.3291,-4.3291,-4.3389,-4.3677,-4.4338,-4.4365,-4.4628,-4.5139,-4.5166,-4.5166,-4.5166,-4.5331,-4.5513,-4.5513,-4.6247,-4.6652,-4.6957,-4.7402,-4.7726,-4.8032,-4.8032,-4.8116,-4.8415,-4.9042,-4.9427,-4.9728,-5.0869,-5.1552,-5.1799,-5.1831,-5.1991,-5.2136,-5.2136,-5.2734,-5.3655,-5.3655,-5.4387,-5.5179,-5.5179,-5.5179,-5.528,-5.588,-5.5979,-5.6077,-5.6664,-5.6923,-5.718,-5.737,-5.7684,-5.8058,-5.8824,-5.9062,-5.9419,-6.0206,-6.0886,0.0,0.0,0.0,-6.3858,-6.474,0.0,-6.7245,-6.8201,-6.9414,-7.0677,-7.2162,-7.352,-7.485,-7.6054,-7.6236,-7.6365,-7.6574,-7.6416,-7.6264,-7.6234,-7.5772,-7.5315,-7.4901,-7.4267,-7.3653,-7.3141,-7.2537,-7.1988,-7.1467,-7.0883,-7.0341,-6.9742,-6.9231,-6.8705,-6.8162,-6.7719,-6.7146,-6.6473,-6.6182,-6.557,-6.4702,-6.4702,-6.415,-6.3484,-6.3484,-6.3209,-6.2986,-3.7036,-3.7761,-3.8631,-3.9258,-3.9594,-3.9981,-4.0795,-4.1398,-4.1696,-4.1696,-4.2498,-4.2971,-4.2971,-4.3654,-4.4205,-4.4205,-4.4435,-4.4664,-4.4664,-4.4664,-4.4691,-4.4691,-4.4691,-4.4691,-4.4691,-4.5261,-4.5765,-4.597,-4.6572,-4.7053,-4.726,-4.7288,-4.7494,-4.7726,-4.7726,-4.8136,-4.9005,-4.9033,-4.9502,-5.0408,-5.1318,-5.2368,-5.3384,-5.2775,-5.292,-5.3442,-5.3442,-5.3756,-5.4274,-5.4274,-5.4713,-5.5179,-5.5179,-5.5179,-5.528,-5.588,-5.5979,-5.6077,-5.6664,-5.6923,-5.718,-5.737,-5.7684,-5.8058,-5.8824,-5.9004,-5.9241,-6.0206,-6.0685,-6.1235,-6.2156,-6.3042,-6.3858,-6.4568,-6.5445,0.0,0.0,-6.793,-6.9407,-7.2011,-7.3206,-7.3956,-7.4247,-7.4402,-7.4832,-7.567,-7.5596,-7.575,-7.6266,-7.5947,-7.5589,-7.5095,-7.4695,-7.4214,-7.3703,-7.3141,-7.2573,-7.1988,-7.1304,-7.0714,-7.0132,-6.9379,-6.8781,-6.8319,-6.7799,-6.7146,-6.6473,-6.6182,-6.557,-6.4702,-6.4702,-6.4442,-6.4188,-6.4188,-6.3937,-6.3704,-3.7711,-3.8375,-3.8924,-3.8964,-3.9362,-4.0029,-4.1004,-4.1465,-4.1928,-4.2498,-4.3016,-4.3353,-4.3455,-4.3744,-4.3953,-4.3953,-4.4082,-4.4242,-4.4617,-4.4644,-4.4935,-4.5519,-4.5546,-4.5651,-4.5885,-4.6075,-4.6288,-4.6392,-4.6583,-4.6796,-4.6977,-4.6977,-4.7405,-4.8,-4.8208,-4.8646,-4.9364,-4.9967,-5.0488,-5.0848,-5.1868,-5.3058,-5.411,-5.3442,-5.3326,-5.3559,-5.4176,-5.4668,-5.5041,-5.5663,-5.6125,-5.6466,-5.6466,-5.6466,-5.6569,-5.7183,-5.7284,-5.7385,-5.7986,-5.8184,-5.8381,-5.8771,-5.8965,-5.9253,-6.0195,-6.0028,-5.9949,-6.0925,-6.1014,-6.1235,-6.2156,-6.3042,-6.3892,-6.4568,-6.5379,-6.6146,0.0,-6.8074,-6.9364,-7.0723,-7.2101,-7.3196,-7.4048,-7.4304,-7.4545,-7.4861,-7.5308,-7.5595,-7.5663,-7.5774,-7.5686,-7.5315,-7.4778,-7.426,-7.3703,-7.3141,-7.263,-7.1988,-7.1467,-7.0883,-7.0202,-6.9525,-6.9008,-6.8551,-6.7799,-6.7229,-6.6643,-6.6268,-6.557,-6.4702,-6.4485,-6.438,-6.422,-6.422,-6.4254,-6.4346,-3.7996,-3.8559,-3.9014,-3.8994,-3.9749,-4.0505,-4.1384,-4.1749,-4.2112,-4.2762,-4.318,-4.352,-4.3859,-4.4148,-4.4281,-4.4281,-4.4385,-4.4649,-4.5022,-4.5049,-4.5315,-4.5795,-4.5901,-4.5928,-4.6139,-4.6139,-4.6245,-4.635,-4.635,-4.6455,-4.6796,-4.7015,-4.7421,-4.8094,-4.8526,-4.9181,-4.9872,-5.0584,-5.1,-5.1361,-5.2522,-5.3719,-5.4778,-5.4342,-5.4197,-5.4255,-5.4983,-5.5448,-5.5719,-5.645,-5.6885,-5.7094,-5.7094,-5.7094,-5.7198,-5.7849,-5.7952,-5.8156,-5.8662,-5.8793,-5.8893,-5.9487,-5.9586,-5.9878,-6.0835,-6.0764,-6.0688,-6.1676,-6.1607,-6.1634,-6.2481,-6.306,-6.3712,-6.4498,-6.5247,-6.6048,0.0,-6.832,-6.9385,-7.0071,-7.1161,-7.222,-7.309,-7.3364,-7.3627,-7.402,-7.4429,-7.487,-7.5292,-7.5451,-7.5503,-7.5455,-7.4941,-7.4438,-7.3848,-7.3298,-7.2761,-7.2167,-7.1656,-7.1015,-7.0272,-6.967,-6.9157,-6.8628,-6.7959,-6.7312,-6.6728,-6.6268,-6.557,-6.4735,-6.4687,-6.4673,-6.4537,-6.4406,-6.4587,-6.4816,-3.7611,-3.8292,-3.8966,-3.9546,-4.0488,-4.1354,-4.1676,-4.1889,-4.2234,-4.2602,-4.3148,-4.3591,-4.3912,-4.4623,-4.518,-4.518,-4.5395,-4.5609,-4.5609,-4.5609,-4.5609,-4.5609,-4.5609,-4.5609,-4.5609,-4.5609,-4.5715,-4.606,-4.606,-4.6193,-4.6591,-4.7134,-4.7619,-4.7886,-4.8783,-4.9578,-5.0485,-5.0808,-5.1281,-5.2008,-5.3177,-5.4351,-5.5445,-5.5445,-5.5474,-5.5503,-5.5829,-5.6124,-5.6444,-5.6657,-5.7004,-5.7184,-5.7184,-5.7184,-5.7288,-5.7971,-5.8073,-5.8278,-5.8785,-5.8885,-5.8985,-5.9581,-5.9679,-5.9972,-6.093,-6.118,-6.1427,-6.2427,-6.2365,-6.2348,-6.3012,-6.3203,-6.356,-6.4322,-6.5078,-6.61,-6.7752,-6.8642,-6.9344,-7.0038,-7.0554,-7.1062,-7.1448,-7.1667,-7.2174,-7.3086,-7.3064,-7.3635,-7.5094,-7.5028,-7.5071,-7.5441,-7.517,-7.4737,-7.4122,-7.3604,-7.3071,-7.2496,-7.1805,-7.111,-7.0514,-6.9885,-6.9305,-6.8705,-6.8118,-6.7394,-6.6728,-6.6268,-6.557,-6.4767,-6.5208,-6.5288,-6.5204,-6.4697,-6.4925,-6.5187,-3.8308,-3.9034,-3.9731,-4.065,-4.0672,-4.0913,-4.1529,-4.1932,-4.2384,-4.3143,-4.3566,-4.3778,-4.3888,-4.4235,-4.4531,-4.4531,-4.4748,-4.4938,-4.4938,-4.4938,-4.5072,-4.5287,-4.5287,-4.5395,-4.5609,-4.5609,-4.5822,-4.6383,-4.6572,-4.6894,-4.746,-4.7839,-4.8246,-4.879,-4.9255,-4.9996,-5.0768,-5.1125,-5.2036,-5.3205,-5.3941,-5.5013,-5.6142,-5.6142,-5.6432,-5.6863,-5.6866,-5.7045,-5.7212,-5.8118,-5.8483,-5.859,-5.859,-5.8697,-5.9017,-5.9365,-5.9679,-5.9857,-6.0167,-6.027,-6.0373,-6.0982,-6.1083,-6.1383,-6.2396,-6.2268,-6.2134,-6.3146,-6.3035,-6.2974,-6.3784,-6.3905,-6.4092,-6.4874,-6.5663,-6.6618,-6.7684,-6.8442,-6.9128,-6.9778,-7.04,-7.094,-7.1395,-7.1615,-7.1862,-7.2226,-7.2762,-7.3219,-7.3511,-7.4457,-7.4899,-7.4758,-7.4972,-7.4821,-7.426,-7.3703,-7.3141,-7.2496,-7.1805,-7.1175,-7.0579,-6.9956,-6.9379,-6.8857,-6.8083,-6.7394,-6.6728,-6.6268,-6.557,-6.4767,-6.502,-6.4988,-6.4936,-6.5196,-6.5312,-6.5187,-3.8216,-3.9072,-3.9779,-4.0595,-4.0667,-4.0828,-4.1706,-4.2066,-4.2499,-4.3134,-4.3517,-4.3866,-4.4233,-4.4369,-4.4557,-4.4789,-4.4926,-4.5148,-4.5259,-4.5259,-4.537,-4.5726,-4.5726,-4.5836,-4.5945,-4.5945,-4.6213,-4.6667,-4.6861,-4.724,-4.7808,-4.8188,-4.8706,-4.9142,-4.9747,-5.0518,-5.132,-5.2073,-5.3078,-5.4229,-5.4683,-5.5562,0.0,-5.681,-5.7013,-5.7416,-5.7915,-5.793,-5.7862,-5.8763,-5.9099,-5.9099,-5.9099,-5.9315,-5.9529,-5.988,-6.0197,-6.0481,-6.069,-6.0794,-6.0897,-6.1481,-6.1582,-6.1885,-6.2937,-6.2908,-6.2874,-6.3897,-6.3669,-6.3616,-6.4388,-6.441,-6.4667,-6.5438,-6.6067,-6.6772,-6.7577,-6.8346,-6.9041,-6.9701,-7.0304,-7.0837,-7.128,-7.1534,-7.1776,-7.1871,-7.2319,-7.2686,-7.2924,-7.3956,-7.4538,-7.4533,-7.4962,-7.4901,-7.4394,-7.3848,-7.3298,-7.2667,-7.2048,-7.1431,-7.0781,-7.0166,-6.9525,-6.8932,-6.8241,-6.7475,-6.6728,-6.6268,-6.5769,-6.5166,-6.5449,-6.5415,-6.5201,-6.5544,-6.5375,-6.4857,-3.7878,-3.8596,-3.9403,-3.9989,-4.041,-4.0946,-4.1867,-4.2298,-4.2637,-4.2975,-4.3249,-4.3812,-4.4571,-4.4735,-4.4914,-4.5374,-4.554,-4.5654,-4.5882,-4.5882,-4.5995,-4.636,-4.636,-4.6473,-4.6473,-4.6473,-4.6612,-4.6915,-4.7027,-4.7277,-4.794,-4.8561,-4.8915,-4.9166,-5.0126,-5.1038,-5.1956,-5.3275,-5.4318,-5.5026,-5.5452,-5.6193,-5.6995,-5.7335,-5.7507,-5.7765,-5.8884,-5.8873,-5.8453,-5.9121,-5.9368,-5.9368,-5.9368,-5.9585,-5.9908,-6.0152,-6.0441,-6.0757,-6.0966,-6.1071,-6.1144,-6.1636,-6.1707,-6.201,-6.2937,-6.3228,-6.3484,-6.4518,-6.4359,-6.4255,-6.4987,-6.5106,-6.5396,-6.611,-6.6439,-6.6858,-6.7652,-6.8321,-6.8997,-6.9662,-7.0205,0.0,-7.117,-7.149,-7.175,-7.1893,-7.1903,-7.2166,-7.2795,-7.3527,-7.4069,-7.4466,-7.4992,-7.5056,-7.4482,-7.3991,-7.3452,-7.2908,-7.2285,-7.1682,-7.0979,-7.0478,-6.9742,-6.9008,-6.8397,-6.7604,-6.6728,-6.6268,-6.5979,-6.5857,-6.622,-6.6026,-6.57,-6.57,-6.5156,-6.43,-3.7758,-3.8455,-3.9049,-3.9426,-4.0009,-4.0644,-4.1094,-4.1914,-4.2494,-4.2865,-4.3606,-4.4161,-4.4261,-4.4724,-4.5094,-4.5196,-4.5425,-4.554,-4.554,-4.554,-4.5654,-4.5654,-4.5882,-4.6108,-4.6108,-4.636,-4.6708,-4.7179,-4.7521,-4.7986,-4.8603,-4.914,-4.9422,-4.9562,-5.0471,-5.1413,-5.2591,-5.3918,-5.4713,-5.5055,-5.5909,-5.6852,-5.7657,-5.8002,-5.8464,-5.9074,-5.9736,-5.9581,-5.9191,-6.0343,-6.0775,-6.0775,-6.0775,-6.1077,-6.1516,-6.1655,-6.195,-6.2349,-6.2456,-6.2456,-6.2439,-6.2477,-6.2424,-6.2606,-6.3033,-6.3228,-6.3484,-6.4518,-6.4604,-6.4869,-6.5721,-6.6262,-6.6692,-6.6954,-6.713,-6.7511,-6.8328,-6.8541,-6.8863,-6.9501,-6.9997,-7.0554,-7.1062,-7.1409,-7.1689,-7.1884,-7.1914,-7.1903,-7.1934,-7.3173,-7.3844,-7.3713,-7.4785,-7.5132,-7.4573,-7.4131,-7.3553,-7.2908,-7.2285,-7.1744,-7.1211,-7.0547,-6.9813,-6.9231,-6.8397,-6.7604,-6.6728,-6.6268,-6.6064,-6.5934,-6.6213,-6.6026,-6.57,-6.57,-6.5046,-6.4167,-3.8262,-3.8731,-3.9219,-3.9484,-4.0174,-4.0699,-4.0917,-4.1754,-4.2544,-4.2753,-4.3419,-4.4067,-4.4339,-4.46,-4.496,-4.5472,-4.5615,-4.5826,-4.6203,-4.6203,-4.6203,-4.6385,-4.6527,-4.6643,-4.6643,-4.6991,-4.7262,-4.7522,-4.7869,-4.8258,-4.869,-4.9418,-4.9925,-5.0094,-5.1448,-5.2459,-5.3226,-5.433,-5.5126,-5.5786,-5.6562,-5.7396,-5.8086,-5.8581,-5.9016,-5.9452,-6.0353,-6.0465,-6.0314,-6.088,-6.1104,-6.1104,-6.1104,-6.1549,-6.1989,-6.1989,-6.2395,-6.2825,-6.2825,-6.2932,-6.3083,-6.3163,-6.3277,-6.3594,-6.4151,-6.3996,-6.4031,-6.5073,-6.4964,-6.5033,-6.6268,-6.6711,-6.708,-6.762,-6.7781,-6.7976,-6.8414,-6.8794,-6.9211,-6.9457,-6.9961,-7.0524,-7.099,-7.1377,-7.1628,-7.187,-7.1911,-7.2037,-7.2412,-7.3401,-7.4027,-7.4179,-7.5034,-7.5243,-7.4699,-7.4222,-7.3703,-7.3087,-7.2516,-7.1927,-7.1404,-7.0682,-6.9991,-6.9231,-6.8474,-6.7604,-6.6796,-6.6579,-6.6499,-6.6581,-6.6791,-6.6343,-6.57,-6.57,-6.5152,-6.4509,-3.846,-3.8941,-3.9316,-3.9588,-4.0152,-4.0738,-4.0861,-4.1769,-4.2527,-4.2712,-4.3359,-4.3986,-4.4522,-4.4571,-4.4984,-4.5671,-4.5696,-4.5939,-4.6566,-4.6566,-4.6661,-4.6993,-4.7112,-4.7087,-4.7087,-4.7571,-4.7766,-4.7885,-4.825,-4.8682,-4.8916,-4.9743,-5.0361,-5.09,-5.2525,-5.3571,-5.4082,-5.4908,-5.5702,-5.662,-5.7331,-5.7965,-5.8627,-5.9246,-5.9568,-5.9888,-6.094,-6.1349,-6.1377,-6.1476,-6.1523,-6.1523,-6.1523,-6.1971,-6.2414,-6.2414,-6.2853,-6.3256,-6.3256,-6.3471,-6.376,-6.3848,-6.41,-6.4452,-6.514,-6.486,-6.4738,-6.5825,-6.5607,-6.5591,-6.6592,-6.7044,-6.7384,-6.8211,-6.8463,-6.857,-6.8808,-6.9426,-6.9825,-6.9717,-7.0191,-7.0623,-7.0928,-7.1435,-7.187,-7.211,-7.2176,-7.2436,-7.3091,-7.3861,-7.4439,-7.4835,-7.5288,-7.5315,-7.4859,-7.435,-7.38,-7.3298,-7.2742,-7.2144,-7.1494,-7.0817,-7.0062,-6.9231,-6.8474,-6.7625,-6.681,-6.6938,-6.7004,-6.6999,-6.7336,-6.6659,-6.57,-6.57,-6.5337,-6.4934,-3.7721,-3.846,-3.8838,-3.8838,-3.9796,-4.059,-4.1012,-4.18,-4.2418,-4.2895,-4.3743,-4.4425,-4.4743,-4.5013,-4.5281,-4.5331,-4.5331,-4.5453,-4.5817,-4.5939,-4.6059,-4.6421,-4.6661,-4.6806,-4.6806,-4.7624,-4.824,-4.8506,-4.9023,-4.9499,-4.9861,-5.0153,-5.095,-5.203,-5.2879,-5.4039,-5.5325,-5.5742,-5.6493,-5.7415,-5.7985,-5.8594,-5.9285,-5.9882,-6.0496,-6.1139,-6.1762,-6.2028,-6.2145,-6.2668,-6.2899,-6.2899,-6.2899,-6.3357,-6.3811,-6.3811,-6.4259,-6.4703,-6.4703,-6.4892,-6.5064,-6.4658,-6.482,-6.5051,-6.5235,-6.5244,-6.5477,-6.6576,-6.6916,-6.6899,-6.6863,-6.7488,-6.8293,-6.9052,-6.9315,-6.9613,-7.0374,-7.0533,-7.0574,-7.0492,-7.0915,-7.1112,-7.0832,-7.1888,-7.269,-7.286,-7.3013,-7.3061,-7.3107,-7.4428,-7.512,-7.4987,-7.5319,-7.5351,-7.4979,-7.4394,-7.38,-7.3298,-7.2742,-7.2144,-7.1494,-7.0817,-7.0062,-6.9231,-6.8474,-6.7652,-6.6845,-6.7476,-6.7362,-6.6799,-6.7234,-6.6659,-6.57,-6.57,-6.5337,-6.5025,-3.8026,-3.8548,-3.9045,-3.9325,-3.9971,-4.0489,-4.0874,-4.1415,-4.1843,-4.252,-4.3185,-4.3701,-4.3826,-4.4199,-4.4567,-4.5154,-4.5302,-4.5697,-4.6389,-4.6414,-4.6662,-4.6935,-4.7059,-4.728,-4.7525,-4.7973,-4.8467,-4.8833,-4.9186,-4.9533,-4.9897,-5.0627,-5.1774,-5.3267,-5.3782,-5.4731,-5.6044,-5.6166,-5.6893,-5.8062,-5.8639,-5.9251,-5.9944,-6.0547,-6.0961,-6.1193,-6.1642,-6.1969,-6.2234,-6.2615,-6.2963,-6.3079,-6.3079,-6.3424,-6.3766,-6.3993,-6.43,-6.4635,-6.4888,-6.5187,-6.553,-6.5388,-6.5647,-6.6112,-6.6518,-6.6236,-6.6217,-6.7295,-6.7314,-6.7221,-6.7438,-6.783,-6.8397,-6.9157,-6.9778,-7.0201,-7.052,-7.0973,-7.1204,-7.1186,-7.1747,-7.2147,-7.2304,-7.2987,-7.3506,-7.3756,-7.3867,-7.4126,-7.4638,-7.5113,-7.5469,-7.5721,-7.561,-7.5348,-7.4979,-7.4438,-7.38,-7.3298,-7.2742,-7.2144,-7.1494,-7.0817,-6.9989,-6.9211,-6.8336,-6.8012,-6.8086,-6.7937,-6.7688,-6.7411,-6.7395,-6.6659,-6.5731,-6.6168,-6.5954,-6.5632,-3.8037,-3.857,-3.8967,-3.9363,-3.9757,-4.0149,-4.0517,-4.0777,-4.136,-4.2116,-4.265,-4.3055,-4.3435,-4.3813,-4.4152,-4.4928,-4.5357,-4.5779,-4.6524,-4.6675,-4.6929,-4.7206,-4.7332,-4.7558,-4.7783,-4.8208,-4.8683,-4.9055,-4.9456,-4.9903,-5.0298,-5.1365,-5.2678,-5.4137,-5.4635,-5.5456,-5.6651,-5.6651,-5.7382,-5.8559,-5.9294,-5.9908,-6.0574,-6.1212,-6.16,-6.1745,-6.2078,-6.2438,-6.2706,-6.3061,-6.3414,-6.3588,-6.3199,-6.3429,-6.3779,-6.394,-6.4188,-6.4493,-6.4777,-6.5187,-6.5592,-6.57,-6.6054,-6.6586,-6.7317,-6.7004,-6.6892,-6.7752,-6.7844,-6.7947,-6.8181,-6.8344,-6.8743,-6.9507,-7.0133,-7.0535,-7.0858,-7.1484,-7.1954,-7.1958,-7.2538,-7.2993,-7.3206,-7.3852,-7.4342,-7.4625,-7.4954,-7.5308,-7.5679,-7.5754,-7.5952,-7.6258,-7.5822,-7.5417,-7.5018,-7.44,-7.38,-7.3298,-7.2742,-7.2254,-7.1793,-7.1118,-7.0328,-6.9486,-6.8863,-6.8673,-6.8825,-6.8397,-6.8045,-6.7695,-6.7491,-6.6659,-6.5762,-6.6449,-6.6355,-6.6027,-3.7482,-3.7904,-3.8304,-3.8681,-3.8946,-3.9473,-4.0149,-4.0279,-4.0715,-4.1857,-4.2055,-4.2577,-4.3997,-4.4125,-4.4337,-4.4807,-4.5137,-4.5548,-4.5934,-4.6166,-4.6573,-4.6953,-4.7181,-4.7457,-4.7457,-4.8359,-4.9014,-4.9267,-5.018,-5.0715,-5.112,-5.2701,-5.3814,-5.4373,-5.5159,-5.6112,-5.7287,-5.7287,-5.8022,-5.9205,-5.992,-6.0537,-6.1108,-6.182,-6.2499,-6.308,-6.345,-6.3818,-6.4062,-6.4395,-6.4755,-6.4784,-6.3498,-6.376,-6.4382,-6.4062,-6.4188,-6.4493,-6.4777,-6.5108,-6.5406,-6.5592,-6.5947,-6.6406,-6.7213,-6.7388,-6.747,-6.785,-6.8732,-6.9323,-6.9026,-6.913,-6.9426,-7.0313,-7.0487,-7.0817,-7.1583,-7.2365,-7.2844,-7.2715,-7.3284,-7.3533,-7.3131,-7.432,-7.5197,-7.5495,-7.6425,-7.6601,-7.5741,-7.6403,-7.6682,-7.6411,-7.588,-7.5451,-7.5095,-7.4444,-7.38,-7.3298,-7.2742,-7.2546,-7.2662,-7.1942,-7.1124,-7.0394,-7.0191,-6.9524,-6.8578,-6.886,-6.8401,-6.7388,-6.7388,-6.6659,-6.5762,-6.6449,-6.6355,-6.6027,-3.6423,-3.6964,-3.7636,-3.8304,-3.8437,-3.8702,-3.9473,-3.9751,-4.0296,-4.1243,-4.1551,-4.226,-4.3553,-4.3808,-4.4202,-4.4976,-4.5263,-4.5823,-4.6574,-4.6729,-4.6992,-4.7645,-4.7775,-4.8035,-4.8551,-4.8853,-4.9339,-4.985,-5.0793,-5.1666,-5.2696,-5.3647,-5.4427,-5.5114,-5.5753,-5.6713,-5.7949,-5.8336,-5.9023,-5.9879,-6.1058,-6.1594,-6.189,-6.2514,-6.2906,-6.308,-6.3233,-6.3603,-6.4091,-6.4183,-6.4842,-6.5533,-6.4695,-6.4545,-6.4901,-6.5274,-6.5444,-6.5559,-6.616,-6.6467,-6.6567,-6.6402,-6.6635,-6.6973,-6.7309,-6.8,-6.8535,-6.8601,-6.9097,-6.9491,-6.9701,-6.9917,-7.0164,-7.0453,-7.0912,-7.1323,-7.1567,-7.2285,-7.2906,-7.3329,-7.3986,-7.4524,-7.4746,-7.5478,-7.603,-7.6349,-7.6761,-7.6868,-7.6607,-7.6715,-7.6682,-7.6411,-7.5975,-7.5518,-7.5095,-7.5097,-7.4758,-7.419,-7.4143,-7.365,-7.2753,-7.2006,-7.1438,-7.1105,-7.0376,-6.986,-6.9434,-6.909,-6.8401,-6.7388,-6.7388,-6.6944,-6.648,-6.7198,-6.7064,-6.6695,-3.5879,-3.6423,-3.6964,-3.7636,-3.7913,-3.8285,-3.8954,-3.9488,-4.0117,-4.0964,-4.138,-4.2021,-4.3211,-4.3533,-4.3872,-4.4841,-4.5268,-4.5809,-4.654,-4.6831,-4.7232,-4.763,-4.7894,-4.8387,-4.924,-4.937,-4.9756,-5.0504,-5.1354,-5.2466,-5.3687,-5.4463,-5.5013,-5.5599,-5.659,-5.756,-5.8585,-5.9192,-5.9829,-6.0526,-6.1684,-6.2222,-6.2549,-6.3179,-6.3603,-6.3806,-6.3806,-6.418,-6.4799,-6.4799,-6.5555,-6.6311,-6.5892,-6.5772,-6.5772,-6.6001,-6.5966,-6.6083,-6.669,-6.7002,-6.7105,-6.7118,-6.7245,-6.7494,-6.7756,-6.8395,-6.8994,-6.8994,-6.9401,-6.9994,-7.0445,-7.0704,-7.088,-7.1294,-7.1763,-7.2147,-7.2344,-7.2848,-7.3406,-7.4051,-7.4463,-7.4942,-7.5513,-7.5991,-7.6415,-7.6762,-7.6926,-7.713,-7.7458,-7.7072,-7.6715,-7.6454,-7.6338,-7.6043,-7.5552,-7.5815,-7.5668,-7.5081,-7.5014,-7.4385,-7.3262,-7.2705,-7.2275,-7.1863,-7.0974,-7.0263,-6.9798,-6.9188,-6.8401,-6.742,-6.7604,-6.7218,-6.6823,-6.771,-6.7504,-6.7029,-3.584,-3.5977,-3.623,-3.7044,-3.7365,-3.792,-3.8623,-3.9151,-3.9862,-4.1113,-4.1337,-4.1807,-4.2958,-4.3001,-4.3558,-4.4526,-4.5051,-4.546,-4.589,-4.6563,-4.6989,-4.7036,-4.7678,-4.8475,-4.9387,-4.981,-5.0348,-5.1481,-5.2119,-5.3059,-5.4262,-5.5099,-5.5652,-5.6211,-5.759,-5.8516,-5.9192,-5.98,-6.0468,-6.1301,-6.1968,-6.2565,-6.3179,-6.3844,-6.4473,-6.4996,-6.4996,-6.5378,-6.6007,-6.6007,-6.6506,-6.6999,-6.6999,-6.6999,-6.6881,-6.6365,-6.6118,-6.6235,-6.6813,-6.7042,-6.7156,-6.7772,-6.7933,-6.8076,-6.8521,-6.8816,-6.9059,-6.9059,-6.9798,-7.0699,-7.112,-7.1456,-7.1814,-7.2661,-7.2862,-7.315,-7.379,-7.3922,-7.4201,-7.4909,-7.4824,-7.5015,-7.5704,-7.6129,-7.6566,-7.6957,-7.7111,-7.7547,-7.835,-7.755,-7.6971,-7.669,-7.7009,-7.692,-7.6427,-7.6727,-7.6567,-7.5919,-7.5432,-7.4785,-7.4046,-7.3976,-7.3426,-7.2517,-7.162,-7.0666,-6.9798,-6.9188,-6.8434,-6.7548,-6.7906,-6.7553,-6.69,-6.7982,-6.7788,-6.7089,-3.5604,-3.5887,-3.6291,-3.7112,-3.7191,-3.7549,-3.8404,-3.9068,-3.9795,-4.0459,-4.1074,-4.163,-4.2138,-4.2581,-4.3001,-4.3419,-4.4388,-4.5051,-4.546,-4.5866,-4.6617,-4.7559,-4.7694,-4.8339,-4.9547,-5.0001,-5.0946,-5.268,-5.2946,-5.3653,-5.4889,-5.6107,-5.6638,-5.6824,-5.8238,-5.9144,-5.9828,-6.0435,-6.1108,-6.1846,-6.3078,-6.3593,-6.3866,-6.4509,-6.4851,-6.4996,-6.4996,-6.5378,-6.6007,-6.6007,-6.6506,-6.6999,-6.6999,-6.6999,-6.7061,-6.7456,-6.7484,-6.7603,-6.8311,-6.8427,-6.8421,-6.8582,-6.8831,-6.9148,-6.9202,-6.9529,-6.9813,-6.9813,-7.0163,-7.0699,-7.112,-7.1833,-7.2403,-7.2731,-7.3322,-7.3724,-7.3862,-7.4372,-7.4937,-7.573,-7.6132,-7.668,-7.7505,-7.7843,-7.8201,-7.8668,-7.8819,-7.9001,-7.9287,-7.9032,-7.8737,-7.8395,-7.8323,-7.7905,-7.7302,-7.7603,-7.7517,-7.6958,-7.6272,-7.5577,-7.4795,-7.4223,-7.3426,-7.2517,-7.162,-7.0666,-6.9798,-6.9188,-6.8726,-6.8252,-6.8097,-6.8152,-6.8239,-6.8355,-6.8096,-6.7727,-3.5189,-3.5619,-3.6029,-3.6578,-3.7016,-3.7436,-3.8023,-3.8806,-3.9515,-3.9922,-4.0595,-4.1046,-4.1452,-4.1877,-4.2386,-4.3165,-4.383,-4.4616,-4.5416,-4.5828,-4.647,-4.7534,-4.7969,-4.8642,-4.9697,-5.0269,-5.1494,-5.3535,-5.3792,-5.4505,-5.5491,-5.6849,-5.741,-5.7437,-5.886,-5.9773,-6.0463,-6.1071,-6.1719,-6.2464,-6.3562,-6.3965,-6.4095,-6.474,-6.517,-6.5431,-6.5431,-6.5991,-6.6638,-6.6765,-6.7271,-6.7647,-6.7897,-6.7687,-6.7571,-6.8061,-6.8092,-6.809,-6.8535,-6.8772,-6.8914,-6.9236,-6.9541,-6.9797,-7.0012,-7.017,-7.0466,-7.0599,-7.0792,-7.111,-7.1627,-7.2209,-7.2714,-7.3221,-7.3996,-7.4583,-7.4911,-7.526,-7.5785,-7.6588,-7.6798,-7.7207,-7.8118,-7.8459,-7.8781,-7.9252,-7.9416,-7.969,-8.0186,-8.0113,-7.9753,-7.9016,-7.9121,-7.8852,-7.8178,-7.8163,-7.7845,-7.7304,-7.6607,-7.5865,-7.5044,-7.4293,-7.3426,-7.2552,-7.1995,-7.1169,-7.0199,-7.0043,-6.9635,-6.8882,-6.8774,-6.88,-6.8738,-6.859,-6.8347,-6.797,-3.4921,-3.5355,-3.5643,-3.6074,-3.6789,-3.7451,-3.774,-3.8485,-3.9156,-3.9425,-3.9878,-4.031,-4.074,-4.1251,-4.201,-4.2964,-4.3556,-4.4258,-4.5382,-4.5964,-4.6449,-4.7376,-4.8098,-4.903,-4.9974,-5.0669,-5.2042,-5.3989,-5.4637,-5.5306,-5.593,-5.735,-5.805,-5.805,-5.9481,-6.0401,-6.1071,-6.1568,-6.222,-6.2942,-6.3789,-6.4108,-6.4238,-6.4971,-6.5606,-6.607,-6.607,-6.6708,-6.7435,-6.7824,-6.8052,-6.8436,-6.8877,-6.8585,-6.826,-6.8509,-6.8485,-6.8333,-6.8329,-6.8772,-6.9123,-6.9672,-7.006,-7.0313,-7.0639,-7.0777,-7.0982,-7.132,-7.1521,-7.1882,-7.2404,-7.2688,-7.3026,-7.3922,-7.4669,-7.5407,-7.6208,-7.6282,-7.6596,-7.7483,-7.74,-7.7586,-7.8501,-7.8844,-7.9207,-7.968,-7.9806,-8.0236,-8.1045,-8.1048,-8.0509,-7.9404,-7.9842,-7.9729,-7.8894,-7.8428,-7.792,-7.7304,-7.6716,-7.6009,-7.5223,-7.4534,-7.3775,-7.2896,-7.2586,-7.1942,-7.0927,-7.1094,-7.0507,-6.9617,-6.954,-6.9301,-6.8924,-6.8907,-6.8417,-6.797,-3.4979,-3.5276,-3.5721,-3.6165,-3.6515,-3.7014,-3.7454,-3.8243,-3.872,-3.872,-3.9425,-4.0002,-4.031,-4.109,-4.1793,-4.2289,-4.3306,-4.4242,-4.5168,-4.5901,-4.6671,-4.7459,-4.8357,-4.918,-5.0103,-5.1114,-5.2501,-5.4326,-5.4679,-5.5375,-5.6254,-5.7794,-5.8636,-5.8662,-6.0075,-6.1029,-6.1678,-6.1761,-6.222,-6.297,-6.4273,-6.4736,-6.4925,-6.6128,-6.6651,-6.6738,-6.6738,-6.7058,-6.7435,-6.7824,-6.8052,-6.8436,-6.8877,-6.8944,-6.8854,-6.898,-6.9265,-6.9519,-6.8603,-6.8976,-6.9672,-6.9787,-7.0438,-7.1155,-7.1374,-7.1552,-7.1765,-7.1938,-7.225,-7.2747,-7.3215,-7.3386,-7.3822,-7.4763,-7.5059,-7.5407,-7.6208,-7.6756,-7.7445,-7.8304,-7.8752,-7.9329,-8.0225,-8.0615,-8.0987,-8.1454,-8.1636,-8.1797,-8.1985,-8.1917,-8.1675,-8.1187,-8.104,-8.0443,-7.9335,-7.8574,-7.792,-7.7304,-7.7262,-7.6767,-7.5854,-7.5873,-7.5297,-7.4219,-7.364,-7.2714,-7.1688,-7.1058,-7.0662,-7.032,-6.9541,-6.9358,-6.9547,-6.871,-6.8298,-6.797,-3.4574,-3.5007,-3.5456,-3.5754,-3.6201,-3.6664,-3.696,-3.7549,-3.799,-3.8302,-3.872,-3.938,-3.9931,-4.0715,-4.1626,-4.2396,-4.3509,-4.4332,-4.5178,-4.5956,-4.6766,-4.7698,-4.8585,-4.9843,-5.1341,-5.1932,-5.3188,-5.5051,-5.5471,-5.6173,-5.699,-5.854,-5.9248,-5.9248,-6.051,-6.1466,-6.2314,-6.2585,-6.305,-6.406,-6.5013,-6.5393,-6.5555,-6.6504,-6.7115,-6.7405,-6.7405,-6.777,-6.8194,-6.8854,-6.9116,-6.9376,-6.9893,-6.9782,-6.9542,-6.9542,-6.9506,-6.9397,-6.924,-6.9488,-6.9787,-6.9787,-7.0388,-7.1092,-7.1534,-7.1896,-7.2306,-7.2691,-7.3011,-7.3519,-7.3992,-7.4261,-7.4618,-7.5533,-7.6122,-7.6553,-7.6827,-7.7486,-7.8108,-7.8528,-7.9053,-7.9746,-8.0608,-8.1,-8.1387,-8.1809,-8.2012,-8.2335,-8.2807,-8.2814,-8.2841,-8.2932,-8.1946,-8.0927,-8.0066,-7.977,-7.9311,-7.8589,-7.8244,-7.7595,-7.6595,-7.6243,-7.5512,-7.4542,-7.4102,-7.3328,-7.2449,-7.2036,-7.1561,-7.1023,-7.014,-6.9765,-6.9703,-6.8741,-6.8179,-6.797,-3.429,-3.4574,-3.5007,-3.5306,-3.5754,-3.6201,-3.6497,-3.696,-3.7402,-3.7715,-3.8233,-3.8848,-3.9623,-4.0579,-4.1575,-4.272,-4.3614,-4.4571,-4.5234,-4.6095,-4.6782,-4.7626,-4.8905,-5.0652,-5.2755,-5.2779,-5.3761,-5.5753,-5.6303,-5.6868,-5.7729,-5.9017,-5.9648,-5.9648,-6.0891,-6.2041,-6.2892,-6.3304,-6.4047,-6.5041,-6.5724,-6.605,-6.6184,-6.7024,-6.7667,-6.8102,-6.8102,-6.8421,-6.8963,-6.9737,-7.0002,-7.0134,-7.0759,-7.059,-7.0201,-7.0201,-6.9868,-6.9489,-6.9942,-7.01,-7.0036,-7.0036,-7.0514,-7.0981,-7.1534,-7.2154,-7.2688,-7.3214,-7.3674,-7.4291,-7.4769,-7.5048,-7.5414,-7.6339,-7.7043,-7.7556,-7.7658,-7.8325,-7.8883,-7.9125,-7.9616,-8.0315,-8.1221,-8.1578,-8.1968,-8.2375,-8.2582,-8.299,-8.3708,-8.3711,-8.3776,-8.3987,-8.2549,-8.1478,-8.0934,-8.0923,-8.0481,-7.969,-7.9122,-7.8351,-7.7376,-7.6713,-7.5863,-7.5056,-7.4627,-7.4001,-7.3209,-7.2952,-7.2369,-7.1534,-7.0501,-7.0047,-6.9672,-6.8654,-6.8179,-6.8,-3.3837,-3.4139,-3.4441,-3.4441,-3.5174,-3.5605,-3.5605,-3.6367,-3.6812,-3.6812,-3.7892,-3.8735,-3.9199,-4.0654,-4.1797,-4.233,-4.3757,-4.4762,-4.4805,-4.5959,-4.6847,-4.7186,-4.9229,-5.12,-5.3345,-5.3369,-5.4216,-5.5913,-5.6341,-5.6907,-5.7876,-5.9061,-5.9648,-5.9675,-6.1325,-6.2426,-6.292,-6.3749,-6.4548,-6.5312,-6.6315,-6.6978,-6.7305,-6.8316,-6.8712,-6.8741,-6.8741,-6.8905,-6.9337,-6.9737,-7.0134,-7.0397,-7.0789,-7.0859,-7.0829,-7.0829,-7.0833,-7.0766,-7.077,-7.0813,-7.0754,-7.0754,-7.0973,-7.1203,-7.1534,-7.2262,-7.2972,-7.3181,-7.4206,-7.5064,-7.5512,-7.5743,-7.621,-7.7145,-7.7433,-7.7771,-7.8454,-7.9165,-7.9952,-8.0803,-8.1395,-8.2065,-8.2945,-8.3349,-8.3734,-8.4176,-8.4381,-8.4561,-8.468,-8.4635,-8.4339,-8.3779,-8.306,-8.2433,-8.1802,-8.1222,-8.0481,-7.969,-7.9493,-7.892,-7.7956,-7.7797,-7.7194,-7.6324,-7.5512,-7.4736,-7.3937,-7.2972,-7.2154,-7.1502,-7.0275,-6.9787,-6.9703,-6.8417,-6.797,-6.8061,-3.3365,-3.3517,-3.382,-3.429,-3.4574,-3.5025,-3.5456,-3.5903,-3.6292,-3.7147,-3.7764,-3.8517,-3.9507,-4.0597,-4.1675,-4.2261,-4.3359,-4.4201,-4.4805,-4.5986,-4.7359,-4.869,-5.0056,-5.1749,-5.3885,-5.391,-5.4882,-5.6929,-5.7046,-5.7578,-5.8664,-5.974,-6.0322,-6.0656,-6.2313,-6.3363,-6.4027,-6.4805,-6.5693,-6.6474,-6.7113,-6.7638,-6.7968,-6.8606,-6.8828,-6.8828,-6.8828,-6.8963,-6.9337,-6.9737,-7.0134,-7.0528,-7.0759,-7.0889,-7.1048,-7.1435,-7.154,-7.1648,-7.2152,-7.1866,-7.1503,-7.1503,-7.1666,-7.1951,-7.2173,-7.2585,-7.2972,-7.3525,-7.4339,-7.5164,-7.5805,-7.6371,-7.7006,-7.7951,-7.8567,-7.906,-7.9322,-8.0034,-8.0738,-8.1027,-8.1633,-8.2298,-8.3137,-8.3503,-8.3902,-8.4375,-8.4606,-8.4941,-8.5503,-8.5818,-8.5739,-8.5304,-8.4707,-8.3802,-8.2669,-8.2548,-8.2081,-8.1195,-8.0545,-7.9709,-7.8735,-7.7977,-7.7244,-7.6402,-7.5552,-7.4738,-7.4003,-7.29,-7.2154,-7.1502,-7.0243,-6.9787,-6.9672,-6.8417,-6.8243,-6.8486,-3.3044,-3.3196,-3.3348,-3.4139,-3.429,-3.4591,-3.5174,-3.5564,-3.6044,-3.692,-3.7783,-3.8785,-3.9663,-4.0625,-4.1589,-4.235,-4.3157,-4.3961,-4.5018,-4.6681,-4.8395,-5.004,-5.0982,-5.2297,-5.4451,-5.4451,-5.538,-5.7379,-5.7379,-5.8057,-5.9378,-6.0199,-6.0749,-6.1414,-6.3222,-6.4137,-6.4692,-6.5614,-6.648,-6.7431,-6.7541,-6.7982,-6.8421,-6.8692,-6.8828,-6.8828,-6.8963,-6.9232,-6.9604,-6.9869,-7.0265,-7.0658,-7.0789,-7.0889,-7.1048,-7.1722,-7.2007,-7.2134,-7.2859,-7.2765,-7.2501,-7.2283,-7.2506,-7.2764,-7.2988,-7.321,-7.3541,-7.3957,-7.4505,-7.5262,-7.5994,-7.6702,-7.7544,-7.8406,-7.9276,-7.992,-8.0117,-8.0941,-8.1612,-8.1811,-8.2473,-8.3139,-8.3903,-8.4311,-8.4714,-8.5192,-8.5361,-8.5754,-8.6327,-8.6605,-8.6571,-8.6307,-8.5665,-8.4752,-8.35,-8.3447,-8.2972,-8.2113,-8.1126,-8.0099,-7.9196,-7.791,-7.7065,-7.6309,-7.5455,-7.4639,-7.3902,-7.29,-7.2154,-7.1502,-7.0243,-6.9943,-7.0015,-6.8753,-6.8698,-6.9183,-3.3044,-3.3196,-3.3348,-3.3685,-3.4139,-3.4441,-3.4441,-3.5362,-3.6236,-3.6236,-3.7982,-3.9258,-3.9258,-4.0724,-4.1927,-4.237,-4.3157,-4.4106,-4.5486,-4.7948,-4.9864,-5.121,-5.1686,-5.2845,-5.4868,-5.5041,-5.5779,-5.7405,-5.7405,-5.8264,-5.9958,-6.0385,-6.0989,-6.2148,-6.3853,-6.4551,-6.4747,-6.6062,-6.7014,-6.7679,-6.7679,-6.8119,-6.8828,-6.8828,-6.8828,-6.8828,-6.9203,-6.9604,-7.0002,-7.0265,-7.0629,-7.0889,-7.0889,-7.0889,-7.1048,-7.1722,-7.2007,-7.2104,-7.2859,-7.3447,-7.3749,-7.3094,-7.3317,-7.3724,-7.3724,-7.403,-7.4504,-7.4714,-7.4871,-7.5262,-7.5994,-7.6736,-7.7544,-7.8406,-7.9276,-8.0099,-8.0912,-8.1849,-8.2684,-8.3434,-8.4167,-8.4886,-8.5627,-8.6082,-8.6481,-8.6938,-8.7128,-8.7201,-8.7215,-8.6863,-8.6571,-8.6307,-8.5665,-8.5056,-8.4405,-8.3692,-8.289,-8.2113,-8.0947,-7.9947,-7.9196,-7.7858,-7.6828,-7.6088,-7.5359,-7.4539,-7.3628,-7.2827,-7.2187,-7.1534,-7.0275,-7.0224,-7.0583,-6.9426,-6.9397,-7.0064,-3.2299,-3.2604,-3.2892,-3.3365,-3.3668,-3.4225,-3.4789,-3.5387,-3.6111,-3.6994,-3.8043,-3.908,-3.9675,-4.0432,-4.1288,-4.237,-4.2981,-4.4091,-4.6266,-4.8322,-5.0023,-5.1286,-5.2073,-5.3203,-5.5041,-5.5041,-5.5953,-5.7943,-5.7943,-5.8952,-6.0997,-6.1566,-6.2292,-6.3455,-6.4654,-6.5328,-6.5612,-6.6651,-6.7293,-6.7679,-6.7982,-6.8421,-6.8828,-6.8828,-6.8963,-6.9203,-6.9203,-6.9737,-7.0265,-7.0397,-7.0629,-7.0889,-7.0889,-7.1048,-7.1307,-7.185,-7.2104,-7.2483,-7.3107,-7.357,-7.3874,-7.3655,-7.4044,-7.4491,-7.4491,-7.4808,-7.5259,-7.5785,-7.6306,-7.6901,-7.7315,-7.7891,-7.8344,-7.8728,-7.9479,-8.0326,-8.1055,-8.2076,-8.2987,-8.3638,-8.4318,-8.4975,-8.5627,-8.6082,-8.6481,-8.6938,-8.7159,-8.7249,-8.7199,-8.6863,-8.6842,-8.7117,-8.6394,-8.6024,-8.6065,-8.4254,-8.283,-8.1879,-8.0876,-7.9947,-7.8952,-7.7772,-7.6828,-7.6088,-7.5359,-7.4739,-7.4385,-7.3542,-7.3186,-7.2972,-7.1719,-7.1409,-7.1478,-7.0129,-7.0095,-7.0547,-3.1993,-3.2299,-3.2757,-3.3196,-3.3635,-3.4128,-3.4657,-3.5568,-3.6403,-3.7041,-3.8181,-3.9149,-3.9883,-4.0197,-4.1036,-4.2611,-4.382,-4.5357,-4.7026,-4.8808,-5.0294,-5.1539,-5.2307,-5.337,-5.4892,-5.5237,-5.6227,-5.8174,-5.8404,-5.9695,-6.1753,-6.2126,-6.2974,-6.4369,-6.5182,-6.5633,-6.6031,-6.6875,-6.7431,-6.7679,-6.8148,-6.8421,-6.8857,-6.9225,-6.9447,-6.9746,-7.0279,-7.077,-7.1169,-7.1302,-7.1565,-7.1637,-7.1368,-7.1568,-7.1767,-7.194,-7.2231,-7.2608,-7.3386,-7.3723,-7.3905,-7.4268,-7.4785,-7.5195,-7.5538,-7.5774,-7.612,-7.6755,-7.7211,-7.7675,-7.8289,-7.8866,-7.9443,-7.9893,-8.0392,-8.0942,-8.1775,-8.2491,-8.3106,-8.373,-8.4454,-8.5105,-8.5627,-8.6114,-8.6687,-8.755,-8.7717,-8.7947,-8.8195,-8.7912,-8.7771,-8.8004,-8.7235,-8.6822,-8.682,-8.5096,-8.3732,-8.2764,-8.1853,-8.0798,-7.9787,-7.8588,-7.7594,-7.6781,-7.6004,-7.5469,-7.5036,-7.4183,-7.3785,-7.3579,-7.2347,-7.2064,-7.2195,-7.0832,-7.0763,-7.1244,-3.184,-3.2299,-3.2604,-3.3095,-3.3839,-3.4419,-3.447,-3.5869,-3.6798,-3.6833,-3.8244,-3.943,-3.9902,-4.0235,-4.1191,-4.3014,-4.542,-4.7069,-4.7604,-4.9273,-5.0766,-5.2024,-5.2506,-5.3442,-5.5115,-5.5582,-5.6775,-5.8328,-5.8866,-6.0319,-6.2365,-6.2365,-6.3361,-6.5033,-6.5347,-6.5775,-6.6173,-6.6875,-6.7431,-6.7845,-6.8205,-6.8644,-6.8973,-7.002,-7.039,-7.0614,-7.188,-7.2387,-7.2522,-7.279,-7.2924,-7.2804,-7.2176,-7.2229,-7.25,-7.228,-7.2448,-7.2795,-7.3386,-7.3692,-7.4147,-7.4778,-7.5486,-7.6034,-7.6605,-7.6678,-7.6984,-7.7694,-7.7781,-7.8111,-7.9102,-7.9809,-8.0614,-8.152,-8.1656,-8.203,-8.2822,-8.307,-8.3329,-8.3954,-8.473,-8.5414,-8.5857,-8.6401,-8.7235,-8.852,-8.8661,-8.9033,-8.9752,-8.9426,-8.9127,-8.893,-8.8115,-8.7505,-8.7046,-8.6217,-8.5234,-8.4122,-8.3226,-8.2227,-8.1113,-7.9942,-7.8837,-7.781,-7.701,-7.6324,-7.5471,-7.46,-7.4076,-7.377,-7.2535,-7.247,-7.279,-7.1535,-7.143,-7.188,-3.1533,-3.184,-3.2381,-3.3138,-3.3563,-3.428,-3.5172,-3.6202,-3.6904,-3.7206,-3.8109,-3.9114,-3.9745,-4.0186,-4.1206,-4.2877,-4.542,-4.7197,-4.8057,-4.945,-5.0766,-5.2024,-5.2834,-5.3966,-5.5655,-5.5778,-5.715,-5.9532,-5.966,-6.0892,-6.2925,-6.2925,-6.3738,-6.5347,-6.549,-6.6059,-6.7014,-6.7431,-6.7845,-6.8205,-6.9106,-6.9719,-7.005,-7.08,-7.1473,-7.2044,-7.2328,-7.2522,-7.279,-7.2924,-7.2924,-7.2894,-7.3112,-7.3345,-7.3616,-7.3333,-7.3658,-7.4035,-7.3848,-7.4057,-7.4539,-7.5337,-7.5919,-7.6264,-7.6605,-7.7291,-7.7957,-7.8564,-7.9398,-8.0028,-8.0184,-8.0914,-8.1506,-8.1721,-8.2356,-8.3047,-8.3833,-8.4553,-8.5217,-8.5842,-8.6566,-8.7166,-8.7695,-8.8481,-8.9078,-8.9547,-8.9599,-8.9657,-8.9774,-8.9404,-8.9398,-8.9818,-8.8995,-8.8644,-8.8744,-8.7742,-8.6148,-8.3983,-8.319,-8.2148,-8.0942,-7.9852,-7.8837,-7.781,-7.701,-7.6518,-7.6332,-7.5312,-7.5103,-7.524,-7.3948,-7.3562,-7.3565,-7.2238,-7.1855,-7.185,-3.1395,-3.1831,-3.2471,-3.3133,-3.3759,-3.4581,-3.5446,-3.6465,-3.7135,-3.733,-3.8163,-3.903,-4.0028,-4.0394,-4.1457,-4.3775,-4.6037,-4.7654,-4.8684,-4.9673,-5.0879,-5.2657,-5.3069,-5.4372,-5.659,-5.6919,-5.7951,-5.9891,-6.0298,-6.1484,-6.3111,-6.3286,-6.4165,-6.549,-6.549,-6.6201,-6.7182,-6.7883,-6.8441,-6.8803,-6.9822,-7.0496,-7.0829,-7.1748,-7.2424,-7.2892,-7.3461,-7.3716,-7.3851,-7.3851,-7.3986,-7.4061,-7.3967,-7.4274,-7.4576,-7.4134,-7.4461,-7.4967,-7.4499,-7.4769,-7.5188,-7.5667,-7.6149,-7.6605,-7.7055,-7.7719,-7.8511,-7.9146,-7.9972,-8.077,-8.1224,-8.1861,-8.2524,-8.3034,-8.3523,-8.4101,-8.4813,-8.5281,-8.5893,-8.653,-8.7155,-8.7836,-8.8656,-8.926,-8.9854,-9.0423,-9.0504,-9.0633,-9.0924,-9.0608,-9.0494,-9.0603,-8.9835,-8.9403,-8.9272,-8.8242,-8.6782,-8.5043,-8.4196,-8.3127,-8.198,-8.0962,-7.9898,-7.8857,-7.7944,-7.7338,-7.6943,-7.5943,-7.5483,-7.5486,-7.4388,-7.3814,-7.357,-7.2357,-7.1722,-7.1307,-3.1474,-3.2023,-3.2576,-3.3331,-3.4159,-3.5054,-3.56,-3.6675,-3.7365,-3.7365,-3.8163,-3.9104,-4.0311,-4.096,-4.2305,-4.5025,-4.672,-4.8071,-4.9494,-5.0054,-5.124,-5.334,-5.3707,-5.498,-5.7425,-5.7987,-5.8958,-6.0045,-6.0934,-6.1894,-6.3111,-6.358,-6.4482,-6.549,-6.549,-6.6256,-6.7491,-6.8311,-6.8986,-6.9546,-7.0628,-7.1167,-7.164,-7.27,-7.3241,-7.3742,-7.4552,-7.4869,-7.5006,-7.5006,-7.5278,-7.5459,-7.4885,-7.5236,-7.5509,-7.4966,-7.5266,-7.565,-7.5464,-7.5766,-7.618,-7.6187,-7.6571,-7.7106,-7.7642,-7.8188,-7.883,-7.9699,-8.0276,-8.097,-8.199,-8.2816,-8.3611,-8.442,-8.4763,-8.5082,-8.5862,-8.6037,-8.6325,-8.705,-8.7762,-8.8539,-8.9526,-8.9877,-9.039,-9.1272,-9.1406,-9.164,-9.2169,-9.1967,-9.1589,-9.1231,-9.0485,-8.9859,-8.931,-8.8205,-8.7224,-8.6283,-8.5267,-8.4171,-8.3208,-8.2176,-8.1097,-8.0006,-7.9008,-7.8155,-7.7499,-7.6264,-7.5603,-7.5283,-7.4268,-7.3692,-7.3231,-7.2231,-7.1435,-7.0789,-3.1792,-3.1887,-3.2424,-3.3832,-3.4332,-3.4836,-3.5799,-3.685,-3.7365,-3.7365,-3.8481,-3.958,-4.047,-4.2602,-4.4543,-4.6,-4.7069,-4.8071,-4.9494,-5.0389,-5.1604,-5.3364,-5.4547,-5.6035,-5.745,-5.8669,-5.9691,-6.0608,-6.1443,-6.222,-6.3111,-6.3873,-6.46,-6.549,-6.5747,-6.6904,-6.8536,-6.8621,-6.9412,-7.0628,-7.1546,-7.2226,-7.2759,-7.3655,-7.4337,-7.4749,-7.4839,-7.5142,-7.5278,-7.5278,-7.555,-7.5954,-7.6099,-7.6335,-7.6344,-7.632,-7.6488,-7.6744,-7.677,-7.6946,-7.727,-7.7506,-7.7804,-7.8094,-7.832,-7.8617,-7.9146,-7.9972,-8.0675,-8.1421,-8.2234,-8.3138,-8.4039,-8.4702,-8.5463,-8.6138,-8.6912,-8.7524,-8.818,-8.8941,-8.9964,-9.0783,-9.1386,-9.1625,-9.1924,-9.2267,-9.2304,-9.2272,-9.2208,-9.1967,-9.1589,-9.1129,-9.0482,-8.9811,-8.9152,-8.8022,-8.7053,-8.6283,-8.5075,-8.4087,-8.3208,-8.2176,-8.1097,-8.0006,-7.9008,-7.8155,-7.7499,-7.6264,-7.5603,-7.5283,-7.4268,-7.3539,-7.2797,-7.1819,-7.1048,-7.0397,-3.2126,-3.2364,-3.2906,-3.4029,-3.4404,-3.4925,-3.5901,-3.6885,-3.7365,-3.7365,-3.8664,-3.9917,-4.083,-4.3234,-4.5291,-4.6629,-4.7272,-4.8359,-5.0209,-5.0928,-5.2261,-5.4234,-5.5312,-5.6505,-5.7917,-5.9228,-6.0125,-6.0737,-6.177,-6.2518,-6.3111,-6.4138,-6.508,-6.6015,-6.6533,-6.775,-6.9221,-6.9818,-7.0556,-7.1575,-7.2356,-7.304,-7.3655,-7.406,-7.4594,-7.4869,-7.5142,-7.5278,-7.5414,-7.5685,-7.5954,-7.6355,-7.6488,-7.6752,-7.7054,-7.7036,-7.7458,-7.7842,-7.7618,-7.7919,-7.8363,-7.8364,-7.8567,-7.8847,-7.9281,-7.9518,-7.9768,-8.0276,-8.097,-8.1707,-8.2509,-8.335,-8.4158,-8.498,-8.5725,-8.6536,-8.7261,-8.791,-8.871,-8.9763,-9.0605,-9.1258,-9.176,-9.2016,-9.2263,-9.2473,-9.25,-9.2389,-9.2148,-9.1928,-9.1561,-9.1062,-9.044,-8.9811,-8.9098,-8.796,-8.7053,-8.6283,-8.5111,-8.4003,-8.3208,-8.2176,-8.1097,-8.0006,-7.9008,-7.8046,-7.7278,-7.6264,-7.5486,-7.4778,-7.4147,-7.3293,-7.2326,-7.1692,-7.1048,-7.0397]}]]